Time,TemperatureF,DewpointF,PressureIn,WindDirection,WindDirectionDegrees,WindSpeedMPH,WindSpeedGustMPH,Humidity,HourlyPrecipIn,Conditions,Clouds,dailyrainin,SoftwareType,DateUTC
2013-04-23 00:00:00,31.6,21.9,29.95,NNE,30,0.0,0.0,67,0.00,,CLR,0.17,VWS V14.01,2013-04-23 05:00:00,
2013-04-23 00:01:00,31.8,19.9,29.95,NNE,30,0.0,0.0,61,0.00,,CLR,0.00,VWS V14.01,2013-04-23 05:01:00,
2013-04-23 00:02:00,31.6,19.3,29.95,NNE,30,0.0,0.0,60,0.00,,CLR,0.00,VWS V14.01,2013-04-23 05:02:00,
2013-04-23 00:03:00,31.6,18.5,29.95,NNE,30,0.0,0.0,58,0.00,,CLR,0.00,VWS V14.01,2013-04-23 05:03:00,
2013-04-23 00:04:00,31.6,18.1,29.95,NNE,30,0.0,0.0,57,0.00,,CLR,0.00,VWS V14.01,2013-04-23 05:04:00,
2013-04-23 00:05:00,31.8,17.9,29.95,NNE,30,0.0,0.0,56,0.00,,CLR,0.00,VWS V14.01,2013-04-23 05:05:00,
2013-04-23 00:06:00,31.5,17.2,29.95,NNE,30,0.0,0.0,55,0.00,,CLR,0.00,VWS V14.01,2013-04-23 05:06:00,
2013-04-23 00:07:00,31.5,16.8,29.95,NNE,30,0.0,0.0,54,0.00,,CLR,0.00,VWS V14.01,2013-04-23 05:07:00,
2013-04-23 00:08:00,31.8,16.2,29.95,NNE,30,0.0,0.0,52,0.00,,CLR,0.00,VWS V14.01,2013-04-23 05:08:00,
2013-04-23 00:09:00,31.8,15.8,29.95,NNE,30,0.0,0.0,51,0.00,,CLR,0.00,VWS V14.01,2013-04-23 05:09:00,
2013-04-23 00:10:00,31.6,15.1,29.95,NNE,30,0.0,0.0,50,0.00,,CLR,0.00,VWS V14.01,2013-04-23 05:10:00,
2013-04-23 00:11:00,31.6,14.6,29.95,NNE,30,0.0,0.0,49,0.00,,CLR,0.00,VWS V14.01,2013-04-23 05:11:00,
2013-04-23 00:12:00,31.6,14.2,29.95,NNE,30,0.0,0.0,48,0.00,,CLR,0.00,VWS V14.01,2013-04-23 05:12:00,
2013-04-23 00:13:00,31.8,13.4,29.95,NNE,30,0.0,0.0,46,0.00,,CLR,0.00,VWS V14.01,2013-04-23 05:13:00,
2013-04-23 00:14:00,31.6,13.2,29.95,NNE,30,0.0,0.0,46,0.00,,CLR,0.00,VWS V14.01,2013-04-23 05:14:00,
2013-04-23 00:15:00,31.6,12.7,29.97,NNE,30,0.0,0.0,45,0.00,,CLR,0.00,VWS V14.01,2013-04-23 05:15:00,
2013-04-23 00:16:00,31.6,12.7,29.97,NNE,30,0.0,0.0,45,0.00,,CLR,0.00,VWS V14.01,2013-04-23 05:16:00,
2013-04-23 00:17:00,31.6,12.2,29.97,NNE,30,0.0,0.0,44,0.00,,CLR,0.00,VWS V14.01,2013-04-23 05:17:00,
2013-04-23 00:18:00,31.8,11.9,29.97,NNE,30,0.0,0.0,43,0.00,,CLR,0.00,VWS V14.01,2013-04-23 05:18:00,
2013-04-23 00:19:00,31.6,11.7,29.97,NNE,30,0.0,0.0,43,0.00,,CLR,0.00,VWS V14.01,2013-04-23 05:19:00,
2013-04-23 00:20:00,31.6,10.6,29.97,NNE,31,0.0,0.0,41,0.00,,CLR,0.00,VWS V14.01,2013-04-23 05:20:00,
2013-04-23 00:21:00,31.5,10.5,29.97,NNE,30,0.0,0.0,41,0.00,,CLR,0.00,VWS V14.01,2013-04-23 05:21:00,
2013-04-23 00:22:00,31.5,10.5,29.97,NNE,30,0.0,0.0,41,0.00,,CLR,0.00,VWS V14.01,2013-04-23 05:22:00,
2013-04-23 00:23:00,31.6,10.1,29.97,NNE,30,0.0,0.0,40,0.00,,CLR,0.00,VWS V14.01,2013-04-23 05:23:00,
2013-04-23 00:24:00,31.6,9.5,29.97,NNE,30,0.0,0.0,39,0.00,,CLR,0.00,VWS V14.01,2013-04-23 05:24:00,
2013-04-23 00:25:00,31.5,8.2,29.97,NNE,30,0.0,0.0,37,0.00,,CLR,0.00,VWS V14.01,2013-04-23 05:25:00,
2013-04-23 00:26:00,31.6,8.3,29.97,NNE,30,0.0,0.0,37,0.00,,CLR,0.00,VWS V14.01,2013-04-23 05:26:00,
2013-04-23 00:27:00,31.5,8.2,29.97,NNE,30,0.0,0.0,37,0.00,,CLR,0.00,VWS V14.01,2013-04-23 05:27:00,
2013-04-23 00:28:00,31.5,7.6,29.97,NNE,30,0.0,0.0,36,0.00,,CLR,0.00,VWS V14.01,2013-04-23 05:28:00,
2013-04-23 00:29:00,31.5,7.0,29.97,NNE,30,0.0,0.0,35,0.00,,CLR,0.00,VWS V14.01,2013-04-23 05:29:00,
2013-04-23 00:30:00,31.6,5.8,29.97,NNE,30,0.0,0.0,33,0.00,,CLR,0.00,VWS V14.01,2013-04-23 05:30:00,
2013-04-23 00:31:00,31.8,5.3,29.97,NNE,30,0.0,0.0,32,0.00,,CLR,0.00,VWS V14.01,2013-04-23 05:31:00,
2013-04-23 00:32:00,31.6,5.1,29.97,NNE,30,0.0,0.0,32,0.00,,CLR,0.00,VWS V14.01,2013-04-23 05:32:00,
2013-04-23 00:33:00,31.6,3.7,29.97,NNE,30,0.0,0.0,30,0.00,,CLR,0.00,VWS V14.01,2013-04-23 05:33:00,
2013-04-23 00:34:00,31.5,3.7,29.97,NNE,30,0.0,0.0,30,0.00,,CLR,0.00,VWS V14.01,2013-04-23 05:34:00,
2013-04-23 00:35:00,31.6,2.2,29.97,NNE,30,0.0,0.0,28,0.00,,CLR,0.00,VWS V14.01,2013-04-23 05:35:00,
2013-04-23 00:36:00,31.5,1.4,29.97,NNE,30,0.0,0.0,27,0.00,,CLR,0.00,VWS V14.01,2013-04-23 05:36:00,
2013-04-23 00:37:00,31.6,2.2,29.97,NNE,30,0.0,0.0,28,0.00,,CLR,0.00,VWS V14.01,2013-04-23 05:37:00,
2013-04-23 00:38:00,31.5,0.6,29.97,NNE,30,0.0,0.0,26,0.00,,CLR,0.00,VWS V14.01,2013-04-23 05:38:00,
2013-04-23 00:39:00,31.5,0.6,29.97,NNE,30,0.0,0.0,26,0.00,,CLR,0.00,VWS V14.01,2013-04-23 05:39:00,
2013-04-23 00:40:00,31.6,3.7,29.97,NNE,30,0.0,0.0,30,0.00,,CLR,0.00,VWS V14.01,2013-04-23 05:40:00,
2013-04-23 00:41:00,31.6,4.4,29.97,NNE,30,0.0,0.0,31,0.00,,CLR,0.00,VWS V14.01,2013-04-23 05:41:00,
2013-04-23 00:42:00,31.6,4.4,29.97,NNE,30,0.0,0.0,31,0.00,,CLR,0.00,VWS V14.01,2013-04-23 05:42:00,
2013-04-23 00:43:00,31.3,4.9,29.97,NNE,30,0.0,0.0,32,0.00,,CLR,0.00,VWS V14.01,2013-04-23 05:43:00,
2013-04-23 00:44:00,31.5,4.4,29.97,NNE,30,0.0,0.0,31,0.00,,CLR,0.00,VWS V14.01,2013-04-23 05:44:00,
2013-04-23 00:45:00,31.6,4.4,29.96,NNE,30,0.0,0.0,31,0.00,,CLR,0.00,VWS V14.01,2013-04-23 05:45:00,
2013-04-23 00:46:00,31.3,3.5,29.96,NNE,30,0.0,0.0,30,0.00,,CLR,0.00,VWS V14.01,2013-04-23 05:46:00,
2013-04-23 00:47:00,31.6,3.7,29.96,NNE,30,0.0,0.0,30,0.00,,CLR,0.00,VWS V14.01,2013-04-23 05:47:00,
2013-04-23 00:48:00,31.6,3.7,29.96,NNE,30,0.0,0.0,30,0.00,,CLR,0.00,VWS V14.01,2013-04-23 05:48:00,
2013-04-23 00:49:00,31.6,3.0,29.96,NNE,30,0.0,0.0,29,0.00,,CLR,0.00,VWS V14.01,2013-04-23 05:49:00,
2013-04-23 00:50:00,31.3,2.7,29.96,NNE,30,0.0,0.0,29,0.00,,CLR,0.00,VWS V14.01,2013-04-23 05:50:00,
2013-04-23 00:51:00,31.6,3.0,29.96,NNE,30,0.0,0.0,29,0.00,,CLR,0.00,VWS V14.01,2013-04-23 05:51:00,
2013-04-23 00:52:00,31.6,2.2,29.96,NNE,30,0.0,0.0,28,0.00,,CLR,0.00,VWS V14.01,2013-04-23 05:52:00,
2013-04-23 00:53:00,31.5,2.2,29.96,NNE,30,0.0,0.0,28,0.00,,CLR,0.00,VWS V14.01,2013-04-23 05:53:00,
2013-04-23 00:54:00,31.5,1.4,29.96,NNE,30,0.0,0.0,27,0.00,,CLR,0.00,VWS V14.01,2013-04-23 05:54:00,
2013-04-23 00:55:00,31.6,2.2,29.96,NNE,30,0.0,0.0,28,0.00,,CLR,0.00,VWS V14.01,2013-04-23 05:55:00,
2013-04-23 00:56:00,31.3,2.0,29.96,NNE,30,0.0,0.0,28,0.00,,CLR,0.00,VWS V14.01,2013-04-23 05:56:00,
2013-04-23 00:57:00,31.3,1.2,29.96,NNE,30,0.0,0.0,27,0.00,,CLR,0.00,VWS V14.01,2013-04-23 05:57:00,
2013-04-23 00:58:00,31.5,1.4,29.96,NNE,30,0.0,0.0,27,0.00,,CLR,0.00,VWS V14.01,2013-04-23 05:58:00,
2013-04-23 00:59:00,31.5,1.4,29.96,NNE,30,0.0,0.0,27,0.00,,CLR,0.00,VWS V14.01,2013-04-23 05:59:00,
2013-04-23 01:00:00,31.6,0.7,29.98,NNE,30,0.0,0.0,26,0.00,,CLR,0.00,VWS V14.01,2013-04-23 06:00:00,
2013-04-23 01:01:00,31.3,0.4,29.98,NNE,30,0.0,0.0,26,0.00,,CLR,0.00,VWS V14.01,2013-04-23 06:01:00,
2013-04-23 01:02:00,31.6,-0.2,29.98,NNE,30,0.0,0.0,25,0.00,,CLR,0.00,VWS V14.01,2013-04-23 06:02:00,
2013-04-23 01:03:00,31.5,-0.3,29.98,NNE,30,0.0,0.0,25,0.00,,CLR,0.00,VWS V14.01,2013-04-23 06:03:00,
2013-04-23 01:04:00,31.5,-0.3,29.98,NNE,30,0.0,0.0,25,0.00,,CLR,0.00,VWS V14.01,2013-04-23 06:04:00,
2013-04-23 01:05:00,31.5,-1.1,29.98,NNE,30,0.0,0.0,24,0.00,,CLR,0.00,VWS V14.01,2013-04-23 06:05:00,
2013-04-23 01:06:00,31.5,-1.1,29.98,NNE,30,0.0,0.0,24,0.00,,CLR,0.00,VWS V14.01,2013-04-23 06:06:00,
2013-04-23 01:07:00,31.5,-1.1,29.98,NNE,30,0.0,0.0,24,0.00,,CLR,0.00,VWS V14.01,2013-04-23 06:07:00,
2013-04-23 01:08:00,31.5,-2.0,29.98,NNE,30,0.0,0.0,23,0.00,,CLR,0.00,VWS V14.01,2013-04-23 06:08:00,
2013-04-23 01:09:00,31.6,-1.9,29.98,NNE,30,0.0,0.0,23,0.00,,CLR,0.00,VWS V14.01,2013-04-23 06:09:00,
2013-04-23 01:10:00,31.3,-2.2,29.98,NNE,30,0.0,0.0,23,0.00,,CLR,0.00,VWS V14.01,2013-04-23 06:10:00,
2013-04-23 01:11:00,31.5,-2.0,29.98,NNE,30,0.0,0.0,23,0.00,,CLR,0.00,VWS V14.01,2013-04-23 06:11:00,
2013-04-23 01:12:00,31.5,-3.0,29.98,NNE,30,0.0,0.0,22,0.00,,CLR,0.00,VWS V14.01,2013-04-23 06:12:00,
2013-04-23 01:13:00,31.3,-3.1,29.98,NNE,30,0.0,0.0,22,0.00,,CLR,0.00,VWS V14.01,2013-04-23 06:13:00,
2013-04-23 01:14:00,31.3,-3.1,29.98,NNE,30,0.0,0.0,22,0.00,,CLR,0.00,VWS V14.01,2013-04-23 06:14:00,
2013-04-23 01:15:00,31.6,-3.8,30.01,NNE,30,0.0,0.0,21,0.00,,CLR,0.00,VWS V14.01,2013-04-23 06:15:00,
2013-04-23 01:16:00,31.6,-3.8,30.01,NNE,30,0.0,0.0,21,0.00,,CLR,0.00,VWS V14.01,2013-04-23 06:16:00,
2013-04-23 01:17:00,31.6,-3.8,30.01,NNE,30,0.0,0.0,21,0.00,,CLR,0.00,VWS V14.01,2013-04-23 06:17:00,
2013-04-23 01:18:00,31.3,-4.1,30.01,NNE,30,0.0,0.0,21,0.00,,CLR,0.00,VWS V14.01,2013-04-23 06:18:00,
2013-04-23 01:19:00,31.5,-4.9,30.01,NNE,30,0.0,0.0,20,0.00,,CLR,0.00,VWS V14.01,2013-04-23 06:19:00,
2013-04-23 01:20:00,31.3,-5.1,30.01,NNE,30,0.0,0.0,20,0.00,,CLR,0.00,VWS V14.01,2013-04-23 06:20:00,
2013-04-23 01:21:00,31.3,-5.1,30.01,NNE,30,0.0,0.0,20,0.00,,CLR,0.00,VWS V14.01,2013-04-23 06:21:00,
2013-04-23 01:22:00,31.3,-5.1,30.01,NNE,30,0.0,0.0,20,0.00,,CLR,0.00,VWS V14.01,2013-04-23 06:22:00,
2013-04-23 01:23:00,31.3,-6.2,30.01,NNE,30,0.0,0.0,19,0.00,,CLR,0.00,VWS V14.01,2013-04-23 06:23:00,
2013-04-23 01:24:00,31.5,-6.0,30.01,NNE,30,0.0,0.0,19,0.00,,CLR,0.00,VWS V14.01,2013-04-23 06:24:00,
2013-04-23 01:25:00,31.3,-6.2,30.01,NNE,30,0.0,0.0,19,0.00,,CLR,0.00,VWS V14.01,2013-04-23 06:25:00,
2013-04-23 01:26:00,31.3,-7.3,30.01,NNE,30,0.0,0.0,18,0.00,,CLR,0.00,VWS V14.01,2013-04-23 06:26:00,
2013-04-23 01:27:00,31.3,-7.3,30.01,NNE,30,0.0,0.0,18,0.00,,CLR,0.00,VWS V14.01,2013-04-23 06:27:00,
2013-04-23 01:28:00,31.3,-7.3,30.01,NNE,30,0.0,0.0,18,0.00,,CLR,0.00,VWS V14.01,2013-04-23 06:28:00,
2013-04-23 01:29:00,31.5,-7.1,30.01,NNE,30,0.0,0.0,18,0.00,,CLR,0.00,VWS V14.01,2013-04-23 06:29:00,
2013-04-23 01:30:00,31.3,-7.3,29.99,NNE,30,0.0,0.0,18,0.00,,CLR,0.00,VWS V14.01,2013-04-23 06:30:00,
2013-04-23 01:31:00,31.5,-7.1,29.99,NNE,30,0.0,0.0,18,0.00,,CLR,0.00,VWS V14.01,2013-04-23 06:31:00,
2013-04-23 01:32:00,31.5,-7.1,29.99,NNE,30,0.0,0.0,18,0.00,,CLR,0.00,VWS V14.01,2013-04-23 06:32:00,
2013-04-23 01:33:00,31.2,-8.5,29.99,NNE,30,0.0,0.0,17,0.00,,CLR,0.00,VWS V14.01,2013-04-23 06:33:00,
2013-04-23 01:34:00,31.2,-8.5,29.99,NNE,30,0.0,0.0,17,0.00,,CLR,0.00,VWS V14.01,2013-04-23 06:34:00,
2013-04-23 01:35:00,31.5,-8.3,29.99,NNE,30,0.0,0.0,17,0.00,,CLR,0.00,VWS V14.01,2013-04-23 06:35:00,
2013-04-23 01:36:00,31.3,-8.4,29.99,NNE,30,0.0,0.0,17,0.00,,CLR,0.00,VWS V14.01,2013-04-23 06:36:00,
2013-04-23 01:37:00,31.3,-8.4,29.99,NNE,30,0.0,0.0,17,0.00,,CLR,0.00,VWS V14.01,2013-04-23 06:37:00,
2013-04-23 01:38:00,31.2,-8.5,29.99,NNE,30,0.0,0.0,17,0.00,,CLR,0.00,VWS V14.01,2013-04-23 06:38:00,
2013-04-23 01:39:00,31.3,-8.4,29.99,NNE,30,0.0,0.0,17,0.00,,CLR,0.00,VWS V14.01,2013-04-23 06:39:00,
2013-04-23 01:40:00,31.2,-9.8,29.99,NNE,30,0.0,0.0,16,0.00,,CLR,0.00,VWS V14.01,2013-04-23 06:40:00,
2013-04-23 01:41:00,31.2,-9.8,29.99,NNE,30,0.0,0.0,16,0.00,,CLR,0.00,VWS V14.01,2013-04-23 06:41:00,
2013-04-23 01:42:00,31.3,-9.7,29.99,NNE,30,0.0,0.0,16,0.00,,CLR,0.00,VWS V14.01,2013-04-23 06:42:00,
2013-04-23 01:43:00,31.3,-9.7,29.99,NNE,30,0.0,0.0,16,0.00,,CLR,0.00,VWS V14.01,2013-04-23 06:43:00,
2013-04-23 01:44:00,31.2,-9.8,29.99,NNE,30,0.0,0.0,16,0.00,,CLR,0.00,VWS V14.01,2013-04-23 06:44:00,
2013-04-23 01:45:00,31.2,-9.8,29.99,NNE,30,0.0,0.0,16,0.00,,CLR,0.00,VWS V14.01,2013-04-23 06:45:00,
2013-04-23 01:46:00,31.3,-9.7,29.99,NNE,30,0.0,0.0,16,0.00,,CLR,0.00,VWS V14.01,2013-04-23 06:46:00,
2013-04-23 01:47:00,31.2,-9.8,29.99,NNE,30,0.0,0.0,16,0.00,,CLR,0.00,VWS V14.01,2013-04-23 06:47:00,
2013-04-23 01:48:00,31.2,-9.8,29.99,NNE,30,0.0,0.0,16,0.00,,CLR,0.00,VWS V14.01,2013-04-23 06:48:00,
2013-04-23 01:49:00,31.3,-9.7,29.99,NNE,30,0.0,0.0,16,0.00,,CLR,0.00,VWS V14.01,2013-04-23 06:49:00,
2013-04-23 01:50:00,31.3,-9.7,29.99,NNE,30,0.0,0.0,16,0.00,,CLR,0.00,VWS V14.01,2013-04-23 06:50:00,
2013-04-23 01:51:00,31.3,-9.7,29.99,NNE,30,0.0,0.0,16,0.00,,CLR,0.00,VWS V14.01,2013-04-23 06:51:00,
2013-04-23 01:52:00,31.2,-9.8,29.99,NNE,30,0.0,0.0,16,0.00,,CLR,0.00,VWS V14.01,2013-04-23 06:52:00,
2013-04-23 01:53:00,31.2,-11.1,29.99,NNE,30,0.0,0.0,15,0.00,,CLR,0.00,VWS V14.01,2013-04-23 06:53:00,
2013-04-23 01:54:00,31.3,-11.0,29.99,NNE,30,0.0,0.0,15,0.00,,CLR,0.00,VWS V14.01,2013-04-23 06:54:00,
2013-04-23 01:55:00,31.3,-11.0,29.99,NNE,30,0.0,0.0,15,0.00,,CLR,0.00,VWS V14.01,2013-04-23 06:55:00,
2013-04-23 01:56:00,31.2,-11.1,29.99,NNE,30,0.0,0.0,15,0.00,,CLR,0.00,VWS V14.01,2013-04-23 06:56:00,
2013-04-23 01:57:00,31.3,-11.0,29.99,NNE,30,0.0,0.0,15,0.00,,CLR,0.00,VWS V14.01,2013-04-23 06:57:00,
2013-04-23 01:58:00,31.3,-11.0,29.99,NNE,30,0.0,0.0,15,0.00,,CLR,0.00,VWS V14.01,2013-04-23 06:58:00,
2013-04-23 01:59:00,31.2,-11.1,29.99,NNE,30,0.0,0.0,15,0.00,,CLR,0.00,VWS V14.01,2013-04-23 06:59:00,
2013-04-23 02:00:00,31.2,-11.1,29.99,NNE,30,0.0,0.0,15,0.00,,CLR,0.00,VWS V14.01,2013-04-23 07:00:00,
2013-04-23 02:01:00,31.3,-11.0,29.99,NNE,30,0.0,0.0,15,0.00,,CLR,0.00,VWS V14.01,2013-04-23 07:01:00,
2013-04-23 02:02:00,31.3,-11.0,29.99,NNE,30,0.0,0.0,15,0.00,,CLR,0.00,VWS V14.01,2013-04-23 07:02:00,
2013-04-23 02:03:00,31.3,-11.0,29.99,NNE,30,0.0,0.0,15,0.00,,CLR,0.00,VWS V14.01,2013-04-23 07:03:00,
2013-04-23 02:04:00,31.3,-11.0,29.99,NNE,30,0.0,0.0,15,0.00,,CLR,0.00,VWS V14.01,2013-04-23 07:04:00,
2013-04-23 02:05:00,31.3,-11.0,29.99,NNE,30,0.0,0.0,15,0.00,,CLR,0.00,VWS V14.01,2013-04-23 07:05:00,
2013-04-23 02:06:00,31.0,-11.2,29.99,NNE,30,0.0,0.0,15,0.00,,CLR,0.00,VWS V14.01,2013-04-23 07:06:00,
2013-04-23 02:07:00,31.3,-11.0,29.99,NNE,30,0.0,0.0,15,0.00,,CLR,0.00,VWS V14.01,2013-04-23 07:07:00,
2013-04-23 02:08:00,31.0,-11.2,29.99,NNE,30,0.0,0.0,15,0.00,,CLR,0.00,VWS V14.01,2013-04-23 07:08:00,
2013-04-23 02:09:00,31.3,-11.0,29.99,NNE,30,0.0,0.0,15,0.00,,CLR,0.00,VWS V14.01,2013-04-23 07:09:00,
2013-04-23 02:10:00,31.0,-11.2,29.99,NNE,30,0.0,0.0,15,0.00,,CLR,0.00,VWS V14.01,2013-04-23 07:10:00,
2013-04-23 02:11:00,31.2,-11.1,29.99,NNE,30,0.0,0.0,15,0.00,,CLR,0.00,VWS V14.01,2013-04-23 07:11:00,
2013-04-23 02:12:00,31.2,-11.1,29.99,NNE,30,0.0,0.0,15,0.00,,CLR,0.00,VWS V14.01,2013-04-23 07:12:00,
2013-04-23 02:13:00,31.2,-11.1,29.99,NNE,30,0.0,0.0,15,0.00,,CLR,0.00,VWS V14.01,2013-04-23 07:13:00,
2013-04-23 02:14:00,31.0,-11.2,29.99,NNE,30,0.0,0.0,15,0.00,,CLR,0.00,VWS V14.01,2013-04-23 07:14:00,
2013-04-23 02:15:00,31.2,-12.4,29.99,NNE,30,0.0,0.0,14,0.00,,CLR,0.00,VWS V14.01,2013-04-23 07:15:00,
2013-04-23 02:16:00,31.0,-12.6,29.99,NNE,30,0.0,0.0,14,0.00,,CLR,0.00,VWS V14.01,2013-04-23 07:16:00,
2013-04-23 02:17:00,31.0,-12.6,29.99,NNE,30,0.0,0.0,14,0.00,,CLR,0.00,VWS V14.01,2013-04-23 07:17:00,
2013-04-23 02:18:00,31.0,-12.6,29.99,NNE,30,0.0,0.0,14,0.00,,CLR,0.00,VWS V14.01,2013-04-23 07:18:00,
2013-04-23 02:19:00,31.0,-12.6,29.99,NNE,30,0.0,0.0,14,0.00,,CLR,0.00,VWS V14.01,2013-04-23 07:19:00,
2013-04-23 02:20:00,31.2,-12.4,29.99,NNE,30,0.0,0.0,14,0.00,,CLR,0.00,VWS V14.01,2013-04-23 07:20:00,
2013-04-23 02:21:00,31.0,-12.6,29.99,NNE,30,0.0,0.0,14,0.00,,CLR,0.00,VWS V14.01,2013-04-23 07:21:00,
2013-04-23 02:22:00,31.2,-12.4,29.99,NNE,30,0.0,0.0,14,0.00,,CLR,0.00,VWS V14.01,2013-04-23 07:22:00,
2013-04-23 02:23:00,31.2,-12.4,29.99,NNE,30,0.0,0.0,14,0.00,,CLR,0.00,VWS V14.01,2013-04-23 07:23:00,
2013-04-23 02:24:00,31.0,-12.6,29.99,NNE,30,0.0,0.0,14,0.00,,CLR,0.00,VWS V14.01,2013-04-23 07:24:00,
2013-04-23 02:25:00,31.0,-12.6,29.99,NNE,30,0.0,0.0,14,0.00,,CLR,0.00,VWS V14.01,2013-04-23 07:25:00,
2013-04-23 02:26:00,30.9,-12.7,29.99,NNE,30,0.0,0.0,14,0.00,,CLR,0.00,VWS V14.01,2013-04-23 07:26:00,
2013-04-23 02:27:00,31.2,-12.4,29.99,NNE,30,0.0,0.0,14,0.00,,CLR,0.00,VWS V14.01,2013-04-23 07:27:00,
2013-04-23 02:28:00,31.2,-12.4,29.99,NNE,30,0.0,0.0,14,0.00,,CLR,0.00,VWS V14.01,2013-04-23 07:28:00,
2013-04-23 02:29:00,30.9,-12.7,29.99,NNE,30,0.0,0.0,14,0.00,,CLR,0.00,VWS V14.01,2013-04-23 07:29:00,
2013-04-23 02:30:00,31.0,-12.6,29.99,NNE,30,0.0,0.0,14,0.00,,CLR,0.00,VWS V14.01,2013-04-23 07:30:00,
2013-04-23 02:31:00,31.0,-12.6,29.99,NNE,30,0.0,0.0,14,0.00,,CLR,0.00,VWS V14.01,2013-04-23 07:31:00,
2013-04-23 02:32:00,30.9,-12.7,29.99,NNE,30,0.0,0.0,14,0.00,,CLR,0.00,VWS V14.01,2013-04-23 07:32:00,
2013-04-23 02:33:00,30.9,-12.7,29.99,NNE,30,0.0,0.0,14,0.00,,CLR,0.00,VWS V14.01,2013-04-23 07:33:00,
2013-04-23 02:34:00,31.2,-12.4,29.99,NNE,30,0.0,0.0,14,0.00,,CLR,0.00,VWS V14.01,2013-04-23 07:34:00,
2013-04-23 02:35:00,31.2,-12.4,29.99,NNE,30,0.0,0.0,14,0.00,,CLR,0.00,VWS V14.01,2013-04-23 07:35:00,
2013-04-23 02:36:00,30.9,-12.7,29.99,NNE,30,0.0,0.0,14,0.00,,CLR,0.00,VWS V14.01,2013-04-23 07:36:00,
2013-04-23 02:37:00,31.0,-12.6,29.99,NNE,30,0.0,0.0,14,0.00,,CLR,0.00,VWS V14.01,2013-04-23 07:37:00,
2013-04-23 02:38:00,31.0,-12.6,29.99,NNE,30,0.0,0.0,14,0.00,,CLR,0.00,VWS V14.01,2013-04-23 07:38:00,
2013-04-23 02:39:00,31.0,-12.6,29.99,NNE,30,0.0,0.0,14,0.00,,CLR,0.00,VWS V14.01,2013-04-23 07:39:00,
2013-04-23 02:40:00,30.9,-12.7,29.99,NNE,30,0.0,0.0,14,0.00,,CLR,0.00,VWS V14.01,2013-04-23 07:40:00,
2013-04-23 02:41:00,31.0,-12.6,29.99,NNE,30,0.0,0.0,14,0.00,,CLR,0.00,VWS V14.01,2013-04-23 07:41:00,
2013-04-23 02:42:00,30.9,-12.7,29.99,NNE,30,0.0,0.0,14,0.00,,CLR,0.00,VWS V14.01,2013-04-23 07:42:00,
2013-04-23 02:43:00,30.9,-12.7,29.99,NNE,30,0.0,0.0,14,0.00,,CLR,0.00,VWS V14.01,2013-04-23 07:43:00,
2013-04-23 02:44:00,30.9,-12.7,29.99,NNE,30,0.0,0.0,14,0.00,,CLR,0.00,VWS V14.01,2013-04-23 07:44:00,
2013-04-23 02:45:00,30.9,-12.7,29.99,NNE,30,0.0,0.0,14,0.00,,CLR,0.00,VWS V14.01,2013-04-23 07:45:00,
2013-04-23 02:46:00,31.0,-12.6,29.99,NNE,30,0.0,0.0,14,0.00,,CLR,0.00,VWS V14.01,2013-04-23 07:46:00,
2013-04-23 02:47:00,30.9,-12.7,29.99,NNE,30,0.0,0.0,14,0.00,,CLR,0.00,VWS V14.01,2013-04-23 07:47:00,
2013-04-23 02:48:00,30.9,-12.7,29.99,NNE,30,0.0,0.0,14,0.00,,CLR,0.00,VWS V14.01,2013-04-23 07:48:00,
2013-04-23 02:49:00,31.0,-12.6,29.99,NNE,30,0.0,0.0,14,0.00,,CLR,0.00,VWS V14.01,2013-04-23 07:49:00,
2013-04-23 02:50:00,30.9,-12.7,29.99,NNE,30,0.0,0.0,14,0.00,,CLR,0.00,VWS V14.01,2013-04-23 07:50:00,
2013-04-23 02:51:00,31.0,-12.6,29.99,NNE,30,0.0,0.0,14,0.00,,CLR,0.00,VWS V14.01,2013-04-23 07:51:00,
2013-04-23 02:52:00,31.0,-12.6,29.99,NNE,30,0.0,0.0,14,0.00,,CLR,0.00,VWS V14.01,2013-04-23 07:52:00,
2013-04-23 02:53:00,30.9,-12.7,29.99,NNE,30,0.0,0.0,14,0.00,,CLR,0.00,VWS V14.01,2013-04-23 07:53:00,
2013-04-23 02:54:00,30.7,-12.9,29.99,NNE,30,0.0,0.0,14,0.00,,CLR,0.00,VWS V14.01,2013-04-23 07:54:00,
2013-04-23 02:55:00,30.7,-12.9,29.99,NNE,30,0.0,0.0,14,0.00,,CLR,0.00,VWS V14.01,2013-04-23 07:55:00,
2013-04-23 02:56:00,30.9,-12.7,29.99,NNE,30,0.0,0.0,14,0.00,,CLR,0.00,VWS V14.01,2013-04-23 07:56:00,
2013-04-23 02:57:00,30.7,-12.9,29.99,NNE,30,0.0,0.0,14,0.00,,CLR,0.00,VWS V14.01,2013-04-23 07:57:00,
2013-04-23 02:58:00,30.7,-12.9,29.99,NNE,30,0.0,0.0,14,0.00,,CLR,0.00,VWS V14.01,2013-04-23 07:58:00,
2013-04-23 02:59:00,30.7,-12.9,29.99,NNE,30,0.0,0.0,14,0.00,,CLR,0.00,VWS V14.01,2013-04-23 07:59:00,
2013-04-23 03:00:00,30.9,-12.7,29.98,NNE,30,0.0,0.0,14,0.00,,CLR,0.00,VWS V14.01,2013-04-23 08:00:00,
2013-04-23 03:01:00,30.9,-12.7,29.98,NNE,30,0.0,0.0,14,0.00,,CLR,0.00,VWS V14.01,2013-04-23 08:01:00,
2013-04-23 03:02:00,30.7,-12.9,29.98,NNE,30,0.0,0.0,14,0.00,,CLR,0.00,VWS V14.01,2013-04-23 08:02:00,
2013-04-23 03:03:00,30.7,-12.9,29.98,NNE,30,0.0,0.0,14,0.00,,CLR,0.00,VWS V14.01,2013-04-23 08:03:00,
2013-04-23 03:04:00,30.7,-12.9,29.98,NNE,30,0.0,0.0,14,0.00,,CLR,0.00,VWS V14.01,2013-04-23 08:04:00,
2013-04-23 03:05:00,30.6,-12.9,29.98,NNE,30,0.0,0.0,14,0.00,,CLR,0.00,VWS V14.01,2013-04-23 08:05:00,
2013-04-23 03:06:00,30.6,-12.9,29.98,NNE,30,0.0,0.0,14,0.00,,CLR,0.00,VWS V14.01,2013-04-23 08:06:00,
2013-04-23 03:07:00,30.7,-12.9,29.98,NNE,30,0.0,0.0,14,0.00,,CLR,0.00,VWS V14.01,2013-04-23 08:07:00,
2013-04-23 03:08:00,30.6,-12.9,29.98,NNE,30,0.0,0.0,14,0.00,,CLR,0.00,VWS V14.01,2013-04-23 08:08:00,
2013-04-23 03:09:00,30.7,-14.3,29.98,NNE,30,0.0,0.0,13,0.00,,CLR,0.00,VWS V14.01,2013-04-23 08:09:00,
2013-04-23 03:10:00,30.6,-14.4,29.98,NNE,30,0.0,0.0,13,0.00,,CLR,0.00,VWS V14.01,2013-04-23 08:10:00,
2013-04-23 03:11:00,30.7,-14.3,29.98,NNE,30,0.0,0.0,13,0.00,,CLR,0.00,VWS V14.01,2013-04-23 08:11:00,
2013-04-23 03:12:00,30.6,-14.4,29.98,NNE,30,0.0,0.0,13,0.00,,CLR,0.00,VWS V14.01,2013-04-23 08:12:00,
2013-04-23 03:13:00,30.6,-14.4,29.98,NNE,30,0.0,0.0,13,0.00,,CLR,0.00,VWS V14.01,2013-04-23 08:13:00,
2013-04-23 03:14:00,30.7,-14.3,29.98,NNE,30,0.0,0.0,13,0.00,,CLR,0.00,VWS V14.01,2013-04-23 08:14:00,
2013-04-23 03:15:00,30.6,-14.4,29.97,NNE,30,0.0,0.0,13,0.00,,CLR,0.00,VWS V14.01,2013-04-23 08:15:00,
2013-04-23 03:16:00,30.4,-14.6,29.97,NNE,30,0.0,0.0,13,0.00,,CLR,0.00,VWS V14.01,2013-04-23 08:16:00,
2013-04-23 03:17:00,30.4,-14.6,29.97,NNE,30,0.0,0.0,13,0.00,,CLR,0.00,VWS V14.01,2013-04-23 08:17:00,
2013-04-23 03:18:00,30.6,-14.4,29.97,NNE,30,0.0,0.0,13,0.00,,CLR,0.00,VWS V14.01,2013-04-23 08:18:00,
2013-04-23 03:19:00,30.6,-14.4,29.97,NNE,30,0.0,0.0,13,0.00,,CLR,0.00,VWS V14.01,2013-04-23 08:19:00,
2013-04-23 03:20:00,30.4,-14.6,29.97,NNE,30,0.0,0.0,13,0.00,,CLR,0.00,VWS V14.01,2013-04-23 08:20:00,
2013-04-23 03:21:00,30.4,-14.6,29.97,NNE,30,0.0,0.0,13,0.00,,CLR,0.00,VWS V14.01,2013-04-23 08:21:00,
2013-04-23 03:22:00,30.4,-14.6,29.97,NNE,30,0.0,0.0,13,0.00,,CLR,0.00,VWS V14.01,2013-04-23 08:22:00,
2013-04-23 03:23:00,30.6,-14.4,29.97,NNE,30,0.0,0.0,13,0.00,,CLR,0.00,VWS V14.01,2013-04-23 08:23:00,
2013-04-23 03:24:00,30.3,-14.6,29.97,NNE,30,0.0,0.0,13,0.00,,CLR,0.00,VWS V14.01,2013-04-23 08:24:00,
2013-04-23 03:25:00,30.3,-14.6,29.97,NNE,30,0.0,0.0,13,0.00,,CLR,0.00,VWS V14.01,2013-04-23 08:25:00,
2013-04-23 03:26:00,30.3,-14.6,29.97,NNE,30,0.0,0.0,13,0.00,,CLR,0.00,VWS V14.01,2013-04-23 08:26:00,
2013-04-23 03:27:00,30.3,-14.6,29.97,NNE,30,0.0,0.0,13,0.00,,CLR,0.00,VWS V14.01,2013-04-23 08:27:00,
2013-04-23 03:28:00,30.3,-16.2,29.97,NNE,30,0.0,0.0,12,0.00,,CLR,0.00,VWS V14.01,2013-04-23 08:28:00,
2013-04-23 03:29:00,30.3,-16.2,29.97,NNE,30,0.0,0.0,12,0.00,,CLR,0.00,VWS V14.01,2013-04-23 08:29:00,
2013-04-23 03:30:00,30.3,-16.2,29.97,NNE,30,0.0,0.0,12,0.00,,CLR,0.00,VWS V14.01,2013-04-23 08:30:00,
2013-04-23 03:31:00,30.3,-16.2,29.97,NNE,30,0.0,0.0,12,0.00,,CLR,0.00,VWS V14.01,2013-04-23 08:31:00,
2013-04-23 03:32:00,30.3,-16.2,29.97,NNE,30,0.0,0.0,12,0.00,,CLR,0.00,VWS V14.01,2013-04-23 08:32:00,
2013-04-23 03:33:00,30.3,-16.2,29.97,NNE,30,0.0,0.0,12,0.00,,CLR,0.00,VWS V14.01,2013-04-23 08:33:00,
2013-04-23 03:34:00,30.3,-16.2,29.97,NNE,30,0.0,0.0,12,0.00,,CLR,0.00,VWS V14.01,2013-04-23 08:34:00,
2013-04-23 03:35:00,30.3,-16.2,29.97,NNE,30,0.0,0.0,12,0.00,,CLR,0.00,VWS V14.01,2013-04-23 08:35:00,
2013-04-23 03:36:00,30.3,-16.2,29.97,NNE,30,0.0,0.0,12,0.00,,CLR,0.00,VWS V14.01,2013-04-23 08:36:00,
2013-04-23 03:37:00,30.3,-16.2,29.97,NNE,30,0.0,0.0,12,0.00,,CLR,0.00,VWS V14.01,2013-04-23 08:37:00,
2013-04-23 03:38:00,30.3,-16.2,29.97,NNE,30,0.0,0.0,12,0.00,,CLR,0.00,VWS V14.01,2013-04-23 08:38:00,
2013-04-23 03:39:00,30.1,-16.4,29.97,NNE,30,0.0,0.0,12,0.00,,CLR,0.00,VWS V14.01,2013-04-23 08:39:00,
2013-04-23 03:40:00,30.1,-16.4,29.97,NNE,30,0.0,0.0,12,0.00,,CLR,0.00,VWS V14.01,2013-04-23 08:40:00,
2013-04-23 03:41:00,30.3,-16.2,29.97,NNE,30,0.0,0.0,12,0.00,,CLR,0.00,VWS V14.01,2013-04-23 08:41:00,
2013-04-23 03:42:00,30.3,-16.2,29.97,NNE,30,0.0,0.0,12,0.00,,CLR,0.00,VWS V14.01,2013-04-23 08:42:00,
2013-04-23 03:43:00,30.3,-16.2,29.97,NNE,30,0.0,0.0,12,0.00,,CLR,0.00,VWS V14.01,2013-04-23 08:43:00,
2013-04-23 03:44:00,30.1,-16.4,29.97,NNE,30,0.0,0.0,12,0.00,,CLR,0.00,VWS V14.01,2013-04-23 08:44:00,
2013-04-23 03:45:00,30.1,-16.4,29.97,NNE,30,0.0,0.0,12,0.00,,CLR,0.00,VWS V14.01,2013-04-23 08:45:00,
2013-04-23 03:46:00,30.1,-16.4,29.97,NNE,30,0.0,0.0,12,0.00,,CLR,0.00,VWS V14.01,2013-04-23 08:46:00,
2013-04-23 03:47:00,30.1,-16.4,29.97,NNE,30,0.0,0.0,12,0.00,,CLR,0.00,VWS V14.01,2013-04-23 08:47:00,
2013-04-23 03:48:00,30.1,-16.4,29.97,NNE,30,0.0,0.0,12,0.00,,CLR,0.00,VWS V14.01,2013-04-23 08:48:00,
2013-04-23 03:49:00,30.1,-16.4,29.97,NNE,30,0.0,0.0,12,0.00,,CLR,0.00,VWS V14.01,2013-04-23 08:49:00,
2013-04-23 03:50:00,30.1,-16.4,29.97,NNE,30,0.0,0.0,12,0.00,,CLR,0.00,VWS V14.01,2013-04-23 08:50:00,
2013-04-23 03:51:00,30.1,-16.4,29.97,NNE,30,0.0,0.0,12,0.00,,CLR,0.00,VWS V14.01,2013-04-23 08:51:00,
2013-04-23 03:52:00,30.0,-16.5,29.97,NNE,30,0.0,0.0,12,0.00,,CLR,0.00,VWS V14.01,2013-04-23 08:52:00,
2013-04-23 03:53:00,30.0,-16.5,29.97,NNE,30,0.0,0.0,12,0.00,,CLR,0.00,VWS V14.01,2013-04-23 08:53:00,
2013-04-23 03:54:00,30.0,-16.5,29.97,NNE,30,0.0,0.0,12,0.00,,CLR,0.00,VWS V14.01,2013-04-23 08:54:00,
2013-04-23 03:55:00,30.0,-18.1,29.97,NNE,30,0.0,0.0,11,0.00,,CLR,0.00,VWS V14.01,2013-04-23 08:55:00,
2013-04-23 03:56:00,29.8,-18.3,29.97,NNE,30,0.0,0.0,11,0.00,,CLR,0.00,VWS V14.01,2013-04-23 08:56:00,
2013-04-23 03:57:00,30.0,-18.1,29.97,NNE,30,0.0,0.0,11,0.00,,CLR,0.00,VWS V14.01,2013-04-23 08:57:00,
2013-04-23 03:58:00,30.0,-18.1,29.97,NNE,30,0.0,0.0,11,0.00,,CLR,0.00,VWS V14.01,2013-04-23 08:58:00,
2013-04-23 03:59:00,29.8,-18.3,29.97,NNE,30,0.0,0.0,11,0.00,,CLR,0.00,VWS V14.01,2013-04-23 08:59:00,
2013-04-23 04:00:00,29.8,-18.3,29.97,NNE,30,0.0,0.0,11,0.00,,CLR,0.00,VWS V14.01,2013-04-23 09:00:00,
2013-04-23 04:01:00,29.8,-18.3,29.97,NNE,30,0.0,0.0,11,0.00,,CLR,0.00,VWS V14.01,2013-04-23 09:01:00,
2013-04-23 04:02:00,29.7,-18.4,29.97,NNE,30,0.0,0.0,11,0.00,,CLR,0.00,VWS V14.01,2013-04-23 09:02:00,
2013-04-23 04:03:00,29.7,-18.4,29.97,NNE,30,0.0,0.0,11,0.00,,CLR,0.00,VWS V14.01,2013-04-23 09:03:00,
2013-04-23 04:04:00,29.8,-18.3,29.97,NNE,30,0.0,0.0,11,0.00,,CLR,0.00,VWS V14.01,2013-04-23 09:04:00,
2013-04-23 04:05:00,29.7,-18.4,29.97,NNE,30,0.0,0.0,11,0.00,,CLR,0.00,VWS V14.01,2013-04-23 09:05:00,
2013-04-23 04:06:00,29.7,-18.4,29.97,NNE,30,0.0,0.0,11,0.00,,CLR,0.00,VWS V14.01,2013-04-23 09:06:00,
2013-04-23 04:07:00,29.7,-18.4,29.97,NNE,30,0.0,0.0,11,0.00,,CLR,0.00,VWS V14.01,2013-04-23 09:07:00,
2013-04-23 04:08:00,29.8,-18.3,29.97,NNE,30,0.0,0.0,11,0.00,,CLR,0.00,VWS V14.01,2013-04-23 09:08:00,
2013-04-23 04:09:00,29.7,-18.4,29.97,NNE,30,0.0,0.0,11,0.00,,CLR,0.00,VWS V14.01,2013-04-23 09:09:00,
2013-04-23 04:10:00,29.8,-18.3,29.97,NNE,30,0.0,0.0,11,0.00,,CLR,0.00,VWS V14.01,2013-04-23 09:10:00,
2013-04-23 04:11:00,29.7,-18.4,29.97,NNE,30,0.0,0.0,11,0.00,,CLR,0.00,VWS V14.01,2013-04-23 09:11:00,
2013-04-23 04:12:00,29.8,-18.3,29.97,NNE,30,0.0,0.0,11,0.00,,CLR,0.00,VWS V14.01,2013-04-23 09:12:00,
2013-04-23 04:13:00,29.5,-18.5,29.97,NNE,30,0.0,0.0,11,0.00,,CLR,0.00,VWS V14.01,2013-04-23 09:13:00,
2013-04-23 04:14:00,29.5,-18.5,29.97,NNE,30,0.0,0.0,11,0.00,,CLR,0.00,VWS V14.01,2013-04-23 09:14:00,
2013-04-23 04:15:00,29.7,-18.4,29.97,NNE,30,0.0,0.0,11,0.00,,CLR,0.00,VWS V14.01,2013-04-23 09:15:00,
2013-04-23 04:16:00,29.5,-18.5,29.97,NNE,30,0.0,0.0,11,0.00,,CLR,0.00,VWS V14.01,2013-04-23 09:16:00,
2013-04-23 04:17:00,29.5,-18.5,29.97,NNE,30,0.0,0.0,11,0.00,,CLR,0.00,VWS V14.01,2013-04-23 09:17:00,
2013-04-23 04:18:00,29.7,-18.4,29.97,NNE,30,0.0,0.0,11,0.00,,CLR,0.00,VWS V14.01,2013-04-23 09:18:00,
2013-04-23 04:19:00,29.5,-18.5,29.97,NNE,30,0.0,0.0,11,0.00,,CLR,0.00,VWS V14.01,2013-04-23 09:19:00,
2013-04-23 04:20:00,29.5,-18.5,29.97,NNE,30,0.0,0.0,11,0.00,,CLR,0.00,VWS V14.01,2013-04-23 09:20:00,
2013-04-23 04:21:00,29.5,-18.5,29.97,NNE,30,0.0,0.0,11,0.00,,CLR,0.00,VWS V14.01,2013-04-23 09:21:00,
2013-04-23 04:22:00,29.5,-18.5,29.97,NNE,30,0.0,0.0,11,0.00,,CLR,0.00,VWS V14.01,2013-04-23 09:22:00,
2013-04-23 04:23:00,29.5,-18.5,29.97,NNE,30,0.0,0.0,11,0.00,,CLR,0.00,VWS V14.01,2013-04-23 09:23:00,
2013-04-23 04:24:00,29.5,-18.5,29.97,NNE,30,0.0,0.0,11,0.00,,CLR,0.00,VWS V14.01,2013-04-23 09:24:00,
2013-04-23 04:25:00,29.4,-18.6,29.97,NNE,30,0.0,0.0,11,0.00,,CLR,0.00,VWS V14.01,2013-04-23 09:25:00,
2013-04-23 04:26:00,29.4,-18.6,29.97,NNE,30,0.0,0.0,11,0.00,,CLR,0.00,VWS V14.01,2013-04-23 09:26:00,
2013-04-23 04:27:00,29.4,-18.6,29.97,NNE,30,0.0,0.0,11,0.00,,CLR,0.00,VWS V14.01,2013-04-23 09:27:00,
2013-04-23 04:28:00,29.5,-18.5,29.97,NNE,30,0.0,0.0,11,0.00,,CLR,0.00,VWS V14.01,2013-04-23 09:28:00,
2013-04-23 04:29:00,29.5,-18.5,29.97,NNE,30,0.0,0.0,11,0.00,,CLR,0.00,VWS V14.01,2013-04-23 09:29:00,
2013-04-23 04:30:00,29.4,-18.6,29.98,NNE,30,0.0,0.0,11,0.00,,CLR,0.00,VWS V14.01,2013-04-23 09:30:00,
2013-04-23 04:31:00,29.5,-18.5,29.98,NNE,30,0.0,0.0,11,0.00,,CLR,0.00,VWS V14.01,2013-04-23 09:31:00,
2013-04-23 04:32:00,29.4,-18.6,29.98,NNE,30,0.0,0.0,11,0.00,,CLR,0.00,VWS V14.01,2013-04-23 09:32:00,
2013-04-23 04:33:00,29.4,-20.5,29.98,NNE,30,0.0,0.0,10,0.00,,CLR,0.00,VWS V14.01,2013-04-23 09:33:00,
2013-04-23 04:34:00,29.4,-18.6,29.98,NNE,30,0.0,0.0,11,0.00,,CLR,0.00,VWS V14.01,2013-04-23 09:34:00,
2013-04-23 04:35:00,29.5,-18.5,29.98,NNE,30,0.0,0.0,11,0.00,,CLR,0.00,VWS V14.01,2013-04-23 09:35:00,
2013-04-23 04:36:00,29.4,-18.6,29.98,NNE,30,0.0,0.0,11,0.00,,CLR,0.00,VWS V14.01,2013-04-23 09:36:00,
2013-04-23 04:37:00,29.5,-18.5,29.98,NNE,30,0.0,0.0,11,0.00,,CLR,0.00,VWS V14.01,2013-04-23 09:37:00,
2013-04-23 04:38:00,29.4,-18.6,29.98,NNE,30,0.0,0.0,11,0.00,,CLR,0.00,VWS V14.01,2013-04-23 09:38:00,
2013-04-23 04:39:00,29.4,-18.6,29.98,NNE,30,0.0,0.0,11,0.00,,CLR,0.00,VWS V14.01,2013-04-23 09:39:00,
2013-04-23 04:40:00,29.5,-20.4,29.98,NNE,30,0.0,0.0,10,0.00,,CLR,0.00,VWS V14.01,2013-04-23 09:40:00,
2013-04-23 04:41:00,29.5,-20.4,29.98,NNE,30,0.0,0.0,10,0.00,,CLR,0.00,VWS V14.01,2013-04-23 09:41:00,
2013-04-23 04:42:00,29.5,-20.4,29.98,NNE,30,0.0,0.0,10,0.00,,CLR,0.00,VWS V14.01,2013-04-23 09:42:00,
2013-04-23 04:43:00,29.5,-20.4,29.98,NNE,30,0.0,0.0,10,0.00,,CLR,0.00,VWS V14.01,2013-04-23 09:43:00,
2013-04-23 04:44:00,29.5,-20.4,29.98,NNE,30,0.0,0.0,10,0.00,,CLR,0.00,VWS V14.01,2013-04-23 09:44:00,
2013-04-23 04:45:00,29.5,-20.4,30.00,NNE,30,0.0,0.0,10,0.00,,CLR,0.00,VWS V14.01,2013-04-23 09:45:00,
2013-04-23 04:46:00,29.5,-20.4,30.00,NNE,30,0.0,0.0,10,0.00,,CLR,0.00,VWS V14.01,2013-04-23 09:46:00,
2013-04-23 04:47:00,29.5,-20.4,30.00,NNE,30,0.0,0.0,10,0.00,,CLR,0.00,VWS V14.01,2013-04-23 09:47:00,
2013-04-23 04:48:00,29.5,-20.4,30.00,NNE,30,0.0,0.0,10,0.00,,CLR,0.00,VWS V14.01,2013-04-23 09:48:00,
2013-04-23 04:49:00,29.5,-20.4,30.00,NNE,30,0.0,0.0,10,0.00,,CLR,0.00,VWS V14.01,2013-04-23 09:49:00,
2013-04-23 04:50:00,29.4,-20.5,30.00,NNE,30,0.0,0.0,10,0.00,,CLR,0.00,VWS V14.01,2013-04-23 09:50:00,
2013-04-23 04:51:00,29.5,-20.4,30.00,NNE,30,0.0,0.0,10,0.00,,CLR,0.00,VWS V14.01,2013-04-23 09:51:00,
2013-04-23 04:52:00,29.5,-20.4,30.00,NNE,30,0.0,0.0,10,0.00,,CLR,0.00,VWS V14.01,2013-04-23 09:52:00,
2013-04-23 04:53:00,29.5,-20.4,30.00,NNE,30,0.0,0.0,10,0.00,,CLR,0.00,VWS V14.01,2013-04-23 09:53:00,
2013-04-23 04:54:00,29.5,-20.4,30.00,NNE,30,0.0,0.0,10,0.00,,CLR,0.00,VWS V14.01,2013-04-23 09:54:00,
2013-04-23 04:55:00,29.5,-20.4,30.00,NNE,30,0.0,0.0,10,0.00,,CLR,0.00,VWS V14.01,2013-04-23 09:55:00,
2013-04-23 04:56:00,29.5,-20.4,30.00,NNE,30,0.0,0.0,10,0.00,,CLR,0.00,VWS V14.01,2013-04-23 09:56:00,
2013-04-23 04:57:00,29.5,-20.4,30.00,NNE,30,0.0,0.0,10,0.00,,CLR,0.00,VWS V14.01,2013-04-23 09:57:00,
2013-04-23 04:58:00,29.5,-20.4,30.00,NNE,30,0.0,0.0,10,0.00,,CLR,0.00,VWS V14.01,2013-04-23 09:58:00,
2013-04-23 04:59:00,29.4,-20.5,30.00,NNE,30,0.0,0.0,10,0.00,,CLR,0.00,VWS V14.01,2013-04-23 09:59:00,
2013-04-23 05:00:00,29.4,-20.5,30.01,NNE,30,0.0,0.0,10,0.00,,CLR,0.00,VWS V14.01,2013-04-23 10:00:00,
2013-04-23 05:01:00,29.5,-20.4,30.01,NNE,30,0.0,0.0,10,0.00,,CLR,0.00,VWS V14.01,2013-04-23 10:01:00,
2013-04-23 05:02:00,29.5,-20.4,30.01,NNE,30,0.0,0.0,10,0.00,,CLR,0.00,VWS V14.01,2013-04-23 10:02:00,
2013-04-23 05:03:00,29.5,-20.4,30.01,NNE,30,0.0,0.0,10,0.00,,CLR,0.00,VWS V14.01,2013-04-23 10:03:00,
2013-04-23 05:04:00,29.4,-20.5,30.01,NNE,30,0.0,0.0,10,0.00,,CLR,0.00,VWS V14.01,2013-04-23 10:04:00,
2013-04-23 05:05:00,29.4,-20.5,30.01,NNE,30,0.0,0.0,10,0.00,,CLR,0.00,VWS V14.01,2013-04-23 10:05:00,
2013-04-23 05:06:00,29.3,-20.5,30.01,NNE,30,0.0,0.0,10,0.00,,CLR,0.00,VWS V14.01,2013-04-23 10:06:00,
2013-04-23 05:07:00,29.4,-20.5,30.01,NNE,30,0.0,0.0,10,0.00,,CLR,0.00,VWS V14.01,2013-04-23 10:07:00,
2013-04-23 05:08:00,29.3,-20.5,30.01,NNE,30,0.0,0.0,10,0.00,,CLR,0.00,VWS V14.01,2013-04-23 10:08:00,
2013-04-23 05:09:00,29.4,-20.5,30.01,NNE,30,0.0,0.0,10,0.00,,CLR,0.00,VWS V14.01,2013-04-23 10:09:00,
2013-04-23 05:10:00,29.3,-20.5,30.01,NNE,30,0.0,0.0,10,0.00,,CLR,0.00,VWS V14.01,2013-04-23 10:10:00,
2013-04-23 05:11:00,29.3,-20.5,30.01,NNE,30,0.0,0.0,10,0.00,,CLR,0.00,VWS V14.01,2013-04-23 10:11:00,
2013-04-23 05:12:00,29.1,-20.7,30.01,NNE,30,0.0,0.0,10,0.00,,CLR,0.00,VWS V14.01,2013-04-23 10:12:00,
2013-04-23 05:13:00,29.1,-20.7,30.01,NNE,30,0.0,0.0,10,0.00,,CLR,0.00,VWS V14.01,2013-04-23 10:13:00,
2013-04-23 05:14:00,29.3,-20.5,30.01,NNE,30,0.0,0.0,10,0.00,,CLR,0.00,VWS V14.01,2013-04-23 10:14:00,
2013-04-23 05:15:00,29.1,-20.7,30.00,NNE,30,0.0,0.0,10,0.00,,CLR,0.00,VWS V14.01,2013-04-23 10:15:00,
2013-04-23 05:16:00,29.1,-20.7,30.00,NNE,30,0.0,0.0,10,0.00,,CLR,0.00,VWS V14.01,2013-04-23 10:16:00,
2013-04-23 05:17:00,29.1,-20.7,30.00,NNE,30,0.0,0.0,10,0.00,,CLR,0.00,VWS V14.01,2013-04-23 10:17:00,
2013-04-23 05:18:00,29.1,-20.7,30.00,NNE,30,0.0,0.0,10,0.00,,CLR,0.00,VWS V14.01,2013-04-23 10:18:00,
2013-04-23 05:19:00,29.1,-20.7,30.00,NNE,30,0.0,0.0,10,0.00,,CLR,0.00,VWS V14.01,2013-04-23 10:19:00,
2013-04-23 05:20:00,29.0,-20.8,30.00,NNE,30,0.0,0.0,10,0.00,,CLR,0.00,VWS V14.01,2013-04-23 10:20:00,
2013-04-23 05:21:00,29.1,-20.7,30.00,NNE,30,0.0,0.0,10,0.00,,CLR,0.00,VWS V14.01,2013-04-23 10:21:00,
2013-04-23 05:22:00,29.0,-20.8,30.00,NNE,30,0.0,0.0,10,0.00,,CLR,0.00,VWS V14.01,2013-04-23 10:22:00,
2013-04-23 05:23:00,29.0,-20.8,30.00,NNE,30,0.0,0.0,10,0.00,,CLR,0.00,VWS V14.01,2013-04-23 10:23:00,
2013-04-23 05:24:00,29.0,-20.8,30.00,NNE,30,0.0,0.0,10,0.00,,CLR,0.00,VWS V14.01,2013-04-23 10:24:00,
2013-04-23 05:25:00,29.0,-20.8,30.00,NNE,30,0.0,0.0,10,0.00,,CLR,0.00,VWS V14.01,2013-04-23 10:25:00,
2013-04-23 05:26:00,29.0,-20.8,30.00,NNE,30,0.0,0.0,10,0.00,,CLR,0.00,VWS V14.01,2013-04-23 10:26:00,
2013-04-23 05:27:00,29.0,-20.8,30.00,NNE,30,0.0,0.0,10,0.00,,CLR,0.00,VWS V14.01,2013-04-23 10:27:00,
2013-04-23 05:28:00,29.0,-20.8,30.00,NNE,30,0.0,0.0,10,0.00,,CLR,0.00,VWS V14.01,2013-04-23 10:28:00,
2013-04-23 05:29:00,28.8,-20.9,30.00,NNE,30,0.0,0.0,10,0.00,,CLR,0.00,VWS V14.01,2013-04-23 10:29:00,
2013-04-23 05:30:00,28.8,-20.9,30.00,NNE,30,0.0,0.0,10,0.00,,CLR,0.00,VWS V14.01,2013-04-23 10:30:00,
2013-04-23 05:31:00,28.8,-20.9,30.00,NNE,30,0.0,0.0,10,0.00,,CLR,0.00,VWS V14.01,2013-04-23 10:31:00,
2013-04-23 05:32:00,29.0,-20.8,30.00,NNE,30,0.0,0.0,10,0.00,,CLR,0.00,VWS V14.01,2013-04-23 10:32:00,
2013-04-23 05:33:00,28.8,-20.9,30.00,NNE,30,0.0,0.0,10,0.00,,CLR,0.00,VWS V14.01,2013-04-23 10:33:00,
2013-04-23 05:34:00,28.8,-20.9,30.00,NNE,30,0.0,0.0,10,0.00,,CLR,0.00,VWS V14.01,2013-04-23 10:34:00,
2013-04-23 05:35:00,28.8,-20.9,30.00,NNE,30,0.0,0.0,10,0.00,,CLR,0.00,VWS V14.01,2013-04-23 10:35:00,
2013-04-23 05:36:00,28.8,-20.9,30.00,NNE,30,0.0,0.0,10,0.00,,CLR,0.00,VWS V14.01,2013-04-23 10:36:00,
2013-04-23 05:37:00,28.8,-20.9,30.00,NNE,30,0.0,0.0,10,0.00,,CLR,0.00,VWS V14.01,2013-04-23 10:37:00,
2013-04-23 05:38:00,28.8,-20.9,30.00,NNE,30,0.0,0.0,10,0.00,,CLR,0.00,VWS V14.01,2013-04-23 10:38:00,
2013-04-23 05:39:00,28.7,-21.0,30.00,NNE,30,0.0,0.0,10,0.00,,CLR,0.00,VWS V14.01,2013-04-23 10:39:00,
2013-04-23 05:40:00,28.7,-21.0,30.00,NNE,30,0.0,0.0,10,0.00,,CLR,0.00,VWS V14.01,2013-04-23 10:40:00,
2013-04-23 05:41:00,28.7,-21.0,30.00,NNE,30,0.0,0.0,10,0.00,,CLR,0.00,VWS V14.01,2013-04-23 10:41:00,
2013-04-23 05:42:00,28.7,-21.0,30.00,NNE,30,0.0,0.0,10,0.00,,CLR,0.00,VWS V14.01,2013-04-23 10:42:00,
2013-04-23 05:43:00,28.7,-21.0,30.00,NNE,30,0.0,0.0,10,0.00,,CLR,0.00,VWS V14.01,2013-04-23 10:43:00,
2013-04-23 05:44:00,28.7,-21.0,30.00,NNE,30,0.0,0.0,10,0.00,,CLR,0.00,VWS V14.01,2013-04-23 10:44:00,
2013-04-23 05:45:00,28.7,-21.0,30.01,NNE,30,0.0,0.0,10,0.00,,CLR,0.00,VWS V14.01,2013-04-23 10:45:00,
2013-04-23 05:46:00,28.5,-21.2,30.01,NNE,30,0.0,0.0,10,0.00,,CLR,0.00,VWS V14.01,2013-04-23 10:46:00,
2013-04-23 05:47:00,28.5,-21.2,30.01,NNE,30,0.0,0.0,10,0.00,,CLR,0.00,VWS V14.01,2013-04-23 10:47:00,
2013-04-23 05:48:00,28.7,-21.0,30.01,NNE,30,0.0,0.0,10,0.00,,CLR,0.00,VWS V14.01,2013-04-23 10:48:00,
2013-04-23 05:49:00,28.5,-21.2,30.01,NNE,30,0.0,0.0,10,0.00,,CLR,0.00,VWS V14.01,2013-04-23 10:49:00,
2013-04-23 05:50:00,28.5,-21.2,30.01,NNE,30,0.0,0.0,10,0.00,,CLR,0.00,VWS V14.01,2013-04-23 10:50:00,
2013-04-23 05:51:00,28.5,-21.2,30.01,NNE,30,0.0,0.0,10,0.00,,CLR,0.00,VWS V14.01,2013-04-23 10:51:00,
2013-04-23 05:52:00,28.4,-21.2,30.01,NNE,30,0.0,0.0,10,0.00,,CLR,0.00,VWS V14.01,2013-04-23 10:52:00,
2013-04-23 05:53:00,28.5,-21.2,30.01,NNE,30,0.0,0.0,10,0.00,,CLR,0.00,VWS V14.01,2013-04-23 10:53:00,
2013-04-23 05:54:00,28.4,-21.2,30.01,NNE,30,0.0,0.0,10,0.00,,CLR,0.00,VWS V14.01,2013-04-23 10:54:00,
2013-04-23 05:55:00,28.4,-21.2,30.01,NNE,30,0.0,0.0,10,0.00,,CLR,0.00,VWS V14.01,2013-04-23 10:55:00,
2013-04-23 05:56:00,28.4,-21.2,30.01,NNE,30,0.0,0.0,10,0.00,,CLR,0.00,VWS V14.01,2013-04-23 10:56:00,
2013-04-23 05:57:00,28.2,-21.4,30.01,NNE,30,0.0,0.0,10,0.00,,CLR,0.00,VWS V14.01,2013-04-23 10:57:00,
2013-04-23 05:58:00,28.2,-21.4,30.01,NNE,30,0.0,0.0,10,0.00,,CLR,0.00,VWS V14.01,2013-04-23 10:58:00,
2013-04-23 05:59:00,28.2,-21.4,30.01,NNE,30,0.0,0.0,10,0.00,,CLR,0.00,VWS V14.01,2013-04-23 10:59:00,
2013-04-23 06:00:00,28.2,-21.4,30.01,NNE,30,0.0,0.0,10,0.00,,CLR,0.00,VWS V14.01,2013-04-23 11:00:00,
2013-04-23 06:01:00,28.1,-21.5,30.01,NNE,30,0.0,0.0,10,0.00,,CLR,0.00,VWS V14.01,2013-04-23 11:01:00,
2013-04-23 06:02:00,28.2,-21.4,30.01,NNE,30,0.0,0.0,10,0.00,,CLR,0.00,VWS V14.01,2013-04-23 11:02:00,
2013-04-23 06:03:00,28.1,-21.5,30.01,NNE,30,0.0,0.0,10,0.00,,CLR,0.00,VWS V14.01,2013-04-23 11:03:00,
2013-04-23 06:04:00,28.1,-21.5,30.01,NNE,30,0.0,0.0,10,0.00,,CLR,0.00,VWS V14.01,2013-04-23 11:04:00,
2013-04-23 06:05:00,28.1,-21.5,30.01,NNE,30,0.0,0.0,10,0.00,,CLR,0.00,VWS V14.01,2013-04-23 11:05:00,
2013-04-23 06:06:00,28.1,-21.5,30.01,NNE,30,0.0,0.0,10,0.00,,CLR,0.00,VWS V14.01,2013-04-23 11:06:00,
2013-04-23 06:07:00,27.9,-21.6,30.01,NNE,30,0.0,0.0,10,0.00,,CLR,0.00,VWS V14.01,2013-04-23 11:07:00,
2013-04-23 06:08:00,27.9,-21.6,30.01,NNE,30,0.0,0.0,10,0.00,,CLR,0.00,VWS V14.01,2013-04-23 11:08:00,
2013-04-23 06:09:00,27.9,-21.6,30.01,NNE,30,0.0,0.0,10,0.00,,CLR,0.00,VWS V14.01,2013-04-23 11:09:00,
2013-04-23 06:10:00,27.9,-23.6,30.01,NNE,30,0.0,0.0,9,0.00,,CLR,0.00,VWS V14.01,2013-04-23 11:10:00,
2013-04-23 06:11:00,27.9,-21.6,30.01,NNE,30,0.0,0.0,10,0.00,,CLR,0.00,VWS V14.01,2013-04-23 11:11:00,
2013-04-23 06:12:00,27.9,-21.6,30.01,NNE,30,0.0,0.0,10,0.00,,CLR,0.00,VWS V14.01,2013-04-23 11:12:00,
2013-04-23 06:13:00,27.9,-21.6,30.01,NNE,30,0.0,0.0,10,0.00,,CLR,0.00,VWS V14.01,2013-04-23 11:13:00,
2013-04-23 06:14:00,27.8,-21.7,30.01,NNE,30,0.0,0.0,10,0.00,,CLR,0.00,VWS V14.01,2013-04-23 11:14:00,
2013-04-23 06:15:00,27.9,-21.6,30.00,NNE,30,0.0,0.0,10,0.00,,CLR,0.00,VWS V14.01,2013-04-23 11:15:00,
2013-04-23 06:16:00,27.9,-21.6,30.00,NNE,30,0.0,0.0,10,0.00,,CLR,0.00,VWS V14.01,2013-04-23 11:16:00,
2013-04-23 06:17:00,27.8,-23.7,30.00,NNE,30,0.0,0.0,9,0.00,,CLR,0.00,VWS V14.01,2013-04-23 11:17:00,
2013-04-23 06:18:00,27.8,-23.7,30.00,NNE,30,0.0,0.0,9,0.00,,CLR,0.00,VWS V14.01,2013-04-23 11:18:00,
2013-04-23 06:19:00,27.8,-23.7,30.00,NNE,30,0.0,0.0,9,0.00,,CLR,0.00,VWS V14.01,2013-04-23 11:19:00,
2013-04-23 06:20:00,27.8,-23.7,30.00,NNE,30,0.0,0.0,9,0.00,,CLR,0.00,VWS V14.01,2013-04-23 11:20:00,
2013-04-23 06:21:00,27.8,-23.7,30.00,NNE,30,0.0,0.0,9,0.00,,CLR,0.00,VWS V14.01,2013-04-23 11:21:00,
2013-04-23 06:22:00,27.8,-23.7,30.00,NNE,30,0.0,0.0,9,0.00,,CLR,0.00,VWS V14.01,2013-04-23 11:22:00,
2013-04-23 06:23:00,27.8,-23.7,30.00,NNE,30,0.0,0.0,9,0.00,,CLR,0.00,VWS V14.01,2013-04-23 11:23:00,
2013-04-23 06:24:00,27.8,-23.7,30.00,NNE,30,0.0,0.0,9,0.00,,CLR,0.00,VWS V14.01,2013-04-23 11:24:00,
2013-04-23 06:25:00,27.6,-23.9,30.00,NNE,30,0.0,0.0,9,0.00,,CLR,0.00,VWS V14.01,2013-04-23 11:25:00,
2013-04-23 06:26:00,27.6,-23.9,30.00,NNE,30,0.0,0.0,9,0.00,,CLR,0.00,VWS V14.01,2013-04-23 11:26:00,
2013-04-23 06:27:00,27.6,-23.9,30.00,NNE,30,0.0,0.0,9,0.00,,CLR,0.00,VWS V14.01,2013-04-23 11:27:00,
2013-04-23 06:28:00,27.6,-23.9,30.00,NNE,30,0.0,0.0,9,0.00,,CLR,0.00,VWS V14.01,2013-04-23 11:28:00,
2013-04-23 06:29:00,27.6,-23.9,30.00,NNE,30,0.0,0.0,9,0.00,,CLR,0.00,VWS V14.01,2013-04-23 11:29:00,
2013-04-23 06:30:00,27.6,-23.9,30.01,NNE,30,0.0,0.0,9,0.00,,CLR,0.00,VWS V14.01,2013-04-23 11:30:00,
2013-04-23 06:31:00,27.6,-23.9,30.01,NNE,30,0.0,0.0,9,0.00,,CLR,0.00,VWS V14.01,2013-04-23 11:31:00,
2013-04-23 06:32:00,27.6,-23.9,30.01,NNE,30,0.0,0.0,9,0.00,,CLR,0.00,VWS V14.01,2013-04-23 11:32:00,
2013-04-23 06:33:00,27.5,-23.9,30.01,NNE,30,0.0,0.0,9,0.00,,CLR,0.00,VWS V14.01,2013-04-23 11:33:00,
2013-04-23 06:34:00,27.5,-23.9,30.01,NNE,30,0.0,0.0,9,0.00,,CLR,0.00,VWS V14.01,2013-04-23 11:34:00,
2013-04-23 06:35:00,27.5,-23.9,30.01,NNE,30,0.0,0.0,9,0.00,,CLR,0.00,VWS V14.01,2013-04-23 11:35:00,
2013-04-23 06:36:00,27.5,-23.9,30.01,NNE,30,0.0,0.0,9,0.00,,CLR,0.00,VWS V14.01,2013-04-23 11:36:00,
2013-04-23 06:37:00,27.5,-23.9,30.01,NNE,30,0.0,0.0,9,0.00,,CLR,0.00,VWS V14.01,2013-04-23 11:37:00,
2013-04-23 06:38:00,27.5,-23.9,30.01,NNE,30,0.0,0.0,9,0.00,,CLR,0.00,VWS V14.01,2013-04-23 11:38:00,
2013-04-23 06:39:00,27.5,-23.9,30.01,NNE,30,0.0,0.0,9,0.00,,CLR,0.00,VWS V14.01,2013-04-23 11:39:00,
2013-04-23 06:40:00,27.5,-23.9,30.01,NNE,30,0.0,0.0,9,0.00,,CLR,0.00,VWS V14.01,2013-04-23 11:40:00,
2013-04-23 06:41:00,27.5,-23.9,30.01,NNE,30,0.0,0.0,9,0.00,,CLR,0.00,VWS V14.01,2013-04-23 11:41:00,
2013-04-23 06:42:00,27.5,-23.9,30.01,NNE,30,0.0,0.0,9,0.00,,CLR,0.00,VWS V14.01,2013-04-23 11:42:00,
2013-04-23 06:43:00,27.5,-23.9,30.01,NNE,30,0.0,0.0,9,0.00,,CLR,0.00,VWS V14.01,2013-04-23 11:43:00,
2013-04-23 06:44:00,27.5,-26.1,30.01,NNE,30,0.0,0.0,8,0.00,,CLR,0.00,VWS V14.01,2013-04-23 11:44:00,
2013-04-23 06:45:00,27.5,-26.1,30.01,NNE,30,0.0,0.0,8,0.00,,CLR,0.00,VWS V14.01,2013-04-23 11:45:00,
2013-04-23 06:46:00,27.5,-26.1,30.01,NNE,30,0.0,0.0,8,0.00,,CLR,0.00,VWS V14.01,2013-04-23 11:46:00,
2013-04-23 06:47:00,27.5,-26.1,30.01,NNE,30,0.0,0.0,8,0.00,,CLR,0.00,VWS V14.01,2013-04-23 11:47:00,
2013-04-23 06:48:00,27.5,-26.1,30.01,NNE,30,0.0,0.0,8,0.00,,CLR,0.00,VWS V14.01,2013-04-23 11:48:00,
2013-04-23 06:49:00,27.5,-26.1,30.01,NNE,30,0.0,0.0,8,0.00,,CLR,0.00,VWS V14.01,2013-04-23 11:49:00,
2013-04-23 06:50:00,27.5,-26.1,30.01,NNE,30,0.0,0.0,8,0.00,,CLR,0.00,VWS V14.01,2013-04-23 11:50:00,
2013-04-23 06:51:00,27.5,-26.1,30.01,NNE,30,0.0,0.0,8,0.00,,CLR,0.00,VWS V14.01,2013-04-23 11:51:00,
2013-04-23 06:52:00,27.5,-26.1,30.01,NNE,30,0.0,0.0,8,0.00,,CLR,0.00,VWS V14.01,2013-04-23 11:52:00,
2013-04-23 06:53:00,27.5,-26.1,30.01,NNE,30,0.0,0.0,8,0.00,,CLR,0.00,VWS V14.01,2013-04-23 11:53:00,
2013-04-23 06:54:00,27.5,-26.1,30.01,NNE,30,0.0,0.0,8,0.00,,CLR,0.00,VWS V14.01,2013-04-23 11:54:00,
2013-04-23 06:55:00,27.5,-26.1,30.01,NNE,30,0.0,0.0,8,0.00,,CLR,0.00,VWS V14.01,2013-04-23 11:55:00,
2013-04-23 06:56:00,27.5,-26.1,30.01,NNE,30,0.0,0.0,8,0.00,,CLR,0.00,VWS V14.01,2013-04-23 11:56:00,
2013-04-23 06:57:00,27.5,-26.1,30.01,NNE,30,0.0,0.0,8,0.00,,CLR,0.00,VWS V14.01,2013-04-23 11:57:00,
2013-04-23 06:58:00,27.3,-26.3,30.01,NNE,30,0.0,0.0,8,0.00,,CLR,0.00,VWS V14.01,2013-04-23 11:58:00,
2013-04-23 06:59:00,27.3,-28.8,30.01,NNE,30,0.0,0.0,7,0.00,,CLR,0.00,VWS V14.01,2013-04-23 11:59:00,
2013-04-23 07:00:00,27.3,-28.8,30.02,NNE,30,0.0,0.0,7,0.00,,CLR,0.00,VWS V14.01,2013-04-23 12:00:00,
2013-04-23 07:01:00,27.3,-28.8,30.02,NNE,30,0.0,0.0,7,0.00,,CLR,0.00,VWS V14.01,2013-04-23 12:01:00,
2013-04-23 07:02:00,27.3,-28.8,30.02,NNE,30,0.0,0.0,7,0.00,,CLR,0.00,VWS V14.01,2013-04-23 12:02:00,
2013-04-23 07:03:00,27.3,-26.3,30.02,NNE,30,0.0,0.0,8,0.00,,CLR,0.00,VWS V14.01,2013-04-23 12:03:00,
2013-04-23 07:04:00,27.2,-28.8,30.02,NNE,30,0.0,0.0,7,0.00,,CLR,0.00,VWS V14.01,2013-04-23 12:04:00,
2013-04-23 07:05:00,27.2,-28.8,30.02,NNE,30,0.0,0.0,7,0.00,,CLR,0.00,VWS V14.01,2013-04-23 12:05:00,
2013-04-23 07:06:00,27.2,-28.8,30.02,NNE,30,0.0,0.0,7,0.00,,CLR,0.00,VWS V14.01,2013-04-23 12:06:00,
2013-04-23 07:07:00,27.2,-28.8,30.02,NNE,30,0.0,0.0,7,0.00,,CLR,0.00,VWS V14.01,2013-04-23 12:07:00,
2013-04-23 07:08:00,27.2,-28.8,30.02,NNE,30,0.0,0.0,7,0.00,,CLR,0.00,VWS V14.01,2013-04-23 12:08:00,
2013-04-23 07:09:00,27.0,-29.0,30.02,NNE,30,0.0,0.0,7,0.00,,CLR,0.00,VWS V14.01,2013-04-23 12:09:00,
2013-04-23 07:10:00,27.0,-29.0,30.02,NNE,30,0.0,0.0,7,0.00,,CLR,0.00,VWS V14.01,2013-04-23 12:10:00,
2013-04-23 07:11:00,27.0,-29.0,30.02,NNE,30,0.0,0.0,7,0.00,,CLR,0.00,VWS V14.01,2013-04-23 12:11:00,
2013-04-23 07:12:00,27.0,-29.0,30.02,NNE,30,0.0,0.0,7,0.00,,CLR,0.00,VWS V14.01,2013-04-23 12:12:00,
2013-04-23 07:13:00,27.0,-29.0,30.02,NNE,30,0.0,0.0,7,0.00,,CLR,0.00,VWS V14.01,2013-04-23 12:13:00,
2013-04-23 07:14:00,27.0,-29.0,30.02,NNE,30,0.0,0.0,7,0.00,,CLR,0.00,VWS V14.01,2013-04-23 12:14:00,
2013-04-23 07:15:00,27.0,-29.0,30.01,NNE,30,0.0,0.0,7,0.00,,CLR,0.00,VWS V14.01,2013-04-23 12:15:00,
2013-04-23 07:16:00,27.0,-29.0,30.01,NNE,30,0.0,0.0,7,0.00,,CLR,0.00,VWS V14.01,2013-04-23 12:16:00,
2013-04-23 07:17:00,27.0,-29.0,30.01,NNE,30,0.0,0.0,7,0.00,,CLR,0.00,VWS V14.01,2013-04-23 12:17:00,
2013-04-23 07:18:00,27.0,-29.0,30.01,NNE,30,0.0,0.0,7,0.00,,CLR,0.00,VWS V14.01,2013-04-23 12:18:00,
2013-04-23 07:19:00,27.0,-29.0,30.01,NNE,30,0.0,0.0,7,0.00,,CLR,0.00,VWS V14.01,2013-04-23 12:19:00,
2013-04-23 07:20:00,27.0,-29.0,30.01,NNE,30,0.0,0.0,7,0.00,,CLR,0.00,VWS V14.01,2013-04-23 12:20:00,
2013-04-23 07:21:00,27.2,-28.8,30.01,NNE,30,0.0,0.0,7,0.00,,CLR,0.00,VWS V14.01,2013-04-23 12:21:00,
2013-04-23 07:22:00,27.0,-29.0,30.01,NNE,30,0.0,0.0,7,0.00,,CLR,0.00,VWS V14.01,2013-04-23 12:22:00,
2013-04-23 07:23:00,27.0,-29.0,30.01,NNE,30,0.0,0.0,7,0.00,,CLR,0.00,VWS V14.01,2013-04-23 12:23:00,
2013-04-23 07:24:00,27.0,-29.0,30.01,NNE,30,0.0,0.0,7,0.00,,CLR,0.00,VWS V14.01,2013-04-23 12:24:00,
2013-04-23 07:25:00,27.2,-28.8,30.01,NNE,30,0.0,0.0,7,0.00,,CLR,0.00,VWS V14.01,2013-04-23 12:25:00,
2013-04-23 07:26:00,27.2,-28.8,30.01,NNE,30,0.0,0.0,7,0.00,,CLR,0.00,VWS V14.01,2013-04-23 12:26:00,
2013-04-23 07:27:00,27.2,-28.8,30.01,NNE,30,0.0,0.0,7,0.00,,CLR,0.00,VWS V14.01,2013-04-23 12:27:00,
2013-04-23 07:28:00,27.2,-28.8,30.01,NNE,30,0.0,0.0,7,0.00,,CLR,0.00,VWS V14.01,2013-04-23 12:28:00,
2013-04-23 07:29:00,27.2,-28.8,30.01,NNE,30,0.0,0.0,7,0.00,,CLR,0.00,VWS V14.01,2013-04-23 12:29:00,
2013-04-23 07:30:00,27.2,-28.8,30.01,NNE,30,0.0,0.0,7,0.00,,CLR,0.00,VWS V14.01,2013-04-23 12:30:00,
2013-04-23 07:31:00,27.2,-28.8,30.01,NNE,30,0.0,0.0,7,0.00,,CLR,0.00,VWS V14.01,2013-04-23 12:31:00,
2013-04-23 07:32:00,27.2,-28.8,30.01,NNE,30,0.0,0.0,7,0.00,,CLR,0.00,VWS V14.01,2013-04-23 12:32:00,
2013-04-23 07:33:00,27.2,-28.8,30.01,NNE,30,0.0,0.0,7,0.00,,CLR,0.00,VWS V14.01,2013-04-23 12:33:00,
2013-04-23 07:34:00,27.2,-28.8,30.01,NNE,30,0.0,0.0,7,0.00,,CLR,0.00,VWS V14.01,2013-04-23 12:34:00,
2013-04-23 07:35:00,27.2,-28.8,30.01,NNE,30,0.0,0.0,7,0.00,,CLR,0.00,VWS V14.01,2013-04-23 12:35:00,
2013-04-23 07:36:00,27.2,-28.8,30.01,NNE,30,0.0,0.0,7,0.00,,CLR,0.00,VWS V14.01,2013-04-23 12:36:00,
2013-04-23 07:37:00,27.2,-28.8,30.01,NNE,30,0.0,0.0,7,0.00,,CLR,0.00,VWS V14.01,2013-04-23 12:37:00,
2013-04-23 07:38:00,27.3,-28.8,30.01,NNE,30,0.0,0.0,7,0.00,,CLR,0.00,VWS V14.01,2013-04-23 12:38:00,
2013-04-23 07:39:00,27.2,-28.8,30.01,NNE,30,0.0,0.0,7,0.00,,CLR,0.00,VWS V14.01,2013-04-23 12:39:00,
2013-04-23 07:40:00,27.2,-28.8,30.01,NNE,30,0.0,0.0,7,0.00,,CLR,0.00,VWS V14.01,2013-04-23 12:40:00,
2013-04-23 07:41:00,27.3,-28.8,30.01,NNE,30,0.0,0.0,7,0.00,,CLR,0.00,VWS V14.01,2013-04-23 12:41:00,
2013-04-23 07:42:00,27.3,-31.5,30.01,NNE,30,0.0,0.0,6,0.00,,CLR,0.00,VWS V14.01,2013-04-23 12:42:00,
2013-04-23 07:43:00,27.3,-38.7,30.01,NNE,30,0.0,0.0,4,0.00,,CLR,0.00,VWS V14.01,2013-04-23 12:43:00,
2013-04-23 07:44:00,27.3,-38.7,30.01,NNE,30,0.0,0.0,4,0.00,,CLR,0.00,VWS V14.01,2013-04-23 12:44:00,
2013-04-23 07:45:00,27.3,-38.7,30.01,NNE,30,0.0,0.0,4,0.00,,CLR,0.00,VWS V14.01,2013-04-23 12:45:00,
2013-04-23 07:46:00,27.3,-38.7,30.01,NNE,30,0.0,0.0,4,0.00,,CLR,0.00,VWS V14.01,2013-04-23 12:46:00,
2013-04-23 07:47:00,27.3,-38.7,30.01,NNE,30,0.0,0.0,4,0.00,,CLR,0.00,VWS V14.01,2013-04-23 12:47:00,
2013-04-23 07:48:00,27.3,-38.7,30.01,NNE,30,0.0,0.0,4,0.00,,CLR,0.00,VWS V14.01,2013-04-23 12:48:00,
2013-04-23 07:49:00,27.3,-38.7,30.01,NNE,30,0.0,0.0,4,0.00,,CLR,0.00,VWS V14.01,2013-04-23 12:49:00,
2013-04-23 07:50:00,27.5,-38.6,30.01,NNE,30,0.0,0.0,4,0.00,,CLR,0.00,VWS V14.01,2013-04-23 12:50:00,
2013-04-23 07:51:00,27.5,-38.6,30.01,NNE,30,0.0,0.0,4,0.00,,CLR,0.00,VWS V14.01,2013-04-23 12:51:00,
2013-04-23 07:52:00,27.5,-38.6,30.01,NNE,30,0.0,0.0,4,0.00,,CLR,0.00,VWS V14.01,2013-04-23 12:52:00,
2013-04-23 07:53:00,27.5,-38.6,30.01,NNE,30,0.0,0.0,4,0.00,,CLR,0.00,VWS V14.01,2013-04-23 12:53:00,
2013-04-23 07:54:00,27.5,-43.5,30.01,NNE,30,0.0,0.0,3,0.00,,CLR,0.00,VWS V14.01,2013-04-23 12:54:00,
2013-04-23 07:55:00,27.5,-43.5,30.01,NNE,30,0.0,0.0,3,0.00,,CLR,0.00,VWS V14.01,2013-04-23 12:55:00,
2013-04-23 07:56:00,27.6,-43.4,30.01,NNE,30,0.0,0.0,3,0.00,,CLR,0.00,VWS V14.01,2013-04-23 12:56:00,
2013-04-23 07:57:00,27.6,-43.4,30.01,NNE,30,0.0,0.0,3,0.00,,CLR,0.00,VWS V14.01,2013-04-23 12:57:00,
2013-04-23 07:58:00,27.6,-43.4,30.01,NNE,30,0.0,0.0,3,0.00,,CLR,0.00,VWS V14.01,2013-04-23 12:58:00,
2013-04-23 07:59:00,27.6,-43.4,30.01,NNE,30,0.0,0.0,3,0.00,,CLR,0.00,VWS V14.01,2013-04-23 12:59:00,
2013-04-23 08:00:00,27.6,-43.4,30.01,NNE,30,0.0,0.0,3,0.00,,CLR,0.00,VWS V14.01,2013-04-23 13:00:00,
2013-04-23 08:01:00,27.6,-43.4,30.01,NNE,30,0.0,0.0,3,0.00,,CLR,0.00,VWS V14.01,2013-04-23 13:01:00,
2013-04-23 08:02:00,27.8,-43.3,30.01,NNE,30,0.0,0.0,3,0.00,,CLR,0.00,VWS V14.01,2013-04-23 13:02:00,
2013-04-23 08:03:00,27.8,-43.3,30.01,NNE,30,0.0,0.0,3,0.00,,CLR,0.00,VWS V14.01,2013-04-23 13:03:00,
2013-04-23 08:04:00,27.8,-43.3,30.01,NNE,30,0.0,0.0,3,0.00,,CLR,0.00,VWS V14.01,2013-04-23 13:04:00,
2013-04-23 08:05:00,27.8,-43.3,30.01,NNE,30,0.0,0.0,3,0.00,,CLR,0.00,VWS V14.01,2013-04-23 13:05:00,
2013-04-23 08:06:00,27.8,-43.3,30.01,NNE,30,0.0,0.0,3,0.00,,CLR,0.00,VWS V14.01,2013-04-23 13:06:00,
2013-04-23 08:07:00,27.9,-43.2,30.01,NNE,30,0.0,0.0,3,0.00,,CLR,0.00,VWS V14.01,2013-04-23 13:07:00,
2013-04-23 08:08:00,27.9,-43.2,30.01,NNE,30,0.0,0.0,3,0.00,,CLR,0.00,VWS V14.01,2013-04-23 13:08:00,
2013-04-23 08:09:00,27.9,-43.2,30.01,NNE,30,0.0,0.0,3,0.00,,CLR,0.00,VWS V14.01,2013-04-23 13:09:00,
2013-04-23 08:10:00,27.9,-43.2,30.01,NNE,30,0.0,0.0,3,0.00,,CLR,0.00,VWS V14.01,2013-04-23 13:10:00,
2013-04-23 08:11:00,27.9,-43.2,30.01,NNE,30,0.0,0.0,3,0.00,,CLR,0.00,VWS V14.01,2013-04-23 13:11:00,
2013-04-23 08:12:00,27.9,-43.2,30.01,NNE,30,0.0,0.0,3,0.00,,CLR,0.00,VWS V14.01,2013-04-23 13:12:00,
2013-04-23 08:13:00,27.9,-43.2,30.01,NNE,30,0.0,0.0,3,0.00,,CLR,0.00,VWS V14.01,2013-04-23 13:13:00,
2013-04-23 08:14:00,27.9,-50.0,30.01,NNE,30,0.0,0.0,2,0.00,,CLR,0.00,VWS V14.01,2013-04-23 13:14:00,
2013-04-23 08:15:00,27.9,-43.2,30.01,NNE,30,0.0,0.0,3,0.00,,CLR,0.00,VWS V14.01,2013-04-23 13:15:00,
2013-04-23 08:16:00,28.1,-49.8,30.01,NNE,30,0.0,0.0,2,0.00,,CLR,0.00,VWS V14.01,2013-04-23 13:16:00,
2013-04-23 08:17:00,28.1,-49.8,30.01,NNE,30,0.0,0.0,2,0.00,,CLR,0.00,VWS V14.01,2013-04-23 13:17:00,
2013-04-23 08:18:00,28.1,-49.8,30.01,NNE,30,0.0,0.0,2,0.00,,CLR,0.00,VWS V14.01,2013-04-23 13:18:00,
2013-04-23 08:19:00,28.2,-49.8,30.01,NNE,30,0.0,0.0,2,0.00,,CLR,0.00,VWS V14.01,2013-04-23 13:19:00,
2013-04-23 08:20:00,28.1,-49.8,30.01,NNE,30,0.0,0.0,2,0.00,,CLR,0.00,VWS V14.01,2013-04-23 13:20:00,
2013-04-23 08:21:00,28.1,-49.8,30.01,NNE,30,0.0,0.0,2,0.00,,CLR,0.00,VWS V14.01,2013-04-23 13:21:00,
2013-04-23 08:22:00,28.2,-49.8,30.01,NNE,30,0.0,0.0,2,0.00,,CLR,0.00,VWS V14.01,2013-04-23 13:22:00,
2013-04-23 08:23:00,28.2,-49.8,30.01,NNE,30,0.0,0.0,2,0.00,,CLR,0.00,VWS V14.01,2013-04-23 13:23:00,
2013-04-23 08:24:00,28.2,-49.8,30.01,NNE,30,0.0,0.0,2,0.00,,CLR,0.00,VWS V14.01,2013-04-23 13:24:00,
2013-04-23 08:25:00,28.2,-49.8,30.01,NNE,30,0.0,0.0,2,0.00,,CLR,0.00,VWS V14.01,2013-04-23 13:25:00,
2013-04-23 08:26:00,28.2,-49.8,30.01,NNE,30,0.0,0.0,2,0.00,,CLR,0.00,VWS V14.01,2013-04-23 13:26:00,
2013-04-23 08:27:00,28.2,-49.8,30.01,NNE,30,0.0,0.0,2,0.00,,CLR,0.00,VWS V14.01,2013-04-23 13:27:00,
2013-04-23 08:28:00,28.2,-49.8,30.01,NNE,30,0.0,0.0,2,0.00,,CLR,0.00,VWS V14.01,2013-04-23 13:28:00,
2013-04-23 08:29:00,28.2,-49.8,30.01,NNE,30,0.0,0.0,2,0.00,,CLR,0.00,VWS V14.01,2013-04-23 13:29:00,
2013-04-23 08:30:00,28.2,-49.8,30.01,NNE,30,0.0,0.0,2,0.00,,CLR,0.00,VWS V14.01,2013-04-23 13:30:00,
2013-04-23 08:31:00,28.4,-49.6,30.01,NNE,30,0.0,0.0,2,0.00,,CLR,0.00,VWS V14.01,2013-04-23 13:31:00,
2013-04-23 08:32:00,28.2,-49.8,30.01,NNE,30,0.0,0.0,2,0.00,,CLR,0.00,VWS V14.01,2013-04-23 13:32:00,
2013-04-23 08:33:00,28.4,-49.6,30.01,NNE,30,0.0,0.0,2,0.00,,CLR,0.00,VWS V14.01,2013-04-23 13:33:00,
2013-04-23 08:34:00,28.4,-49.6,30.01,NNE,30,0.0,0.0,2,0.00,,CLR,0.00,VWS V14.01,2013-04-23 13:34:00,
2013-04-23 08:35:00,28.4,-49.6,30.01,NNE,30,0.0,0.0,2,0.00,,CLR,0.00,VWS V14.01,2013-04-23 13:35:00,
2013-04-23 08:36:00,28.4,-49.6,30.01,NNE,30,0.0,0.0,2,0.00,,CLR,0.00,VWS V14.01,2013-04-23 13:36:00,
2013-04-23 08:37:00,28.4,-49.6,30.01,NNE,30,0.0,0.0,2,0.00,,CLR,0.00,VWS V14.01,2013-04-23 13:37:00,
2013-04-23 08:38:00,28.5,-49.6,30.01,NNE,30,0.0,0.0,2,0.00,,CLR,0.00,VWS V14.01,2013-04-23 13:38:00,
2013-04-23 08:39:00,28.4,-49.6,30.01,NNE,30,0.0,0.0,2,0.00,,CLR,0.00,VWS V14.01,2013-04-23 13:39:00,
2013-04-23 08:40:00,28.4,-49.6,30.01,NNE,30,0.0,0.0,2,0.00,,CLR,0.00,VWS V14.01,2013-04-23 13:40:00,
2013-04-23 08:41:00,28.5,-49.6,30.01,NNE,30,0.0,0.0,2,0.00,,CLR,0.00,VWS V14.01,2013-04-23 13:41:00,
2013-04-23 08:42:00,28.5,-49.6,30.01,NNE,30,0.0,0.0,2,0.00,,CLR,0.00,VWS V14.01,2013-04-23 13:42:00,
2013-04-23 08:43:00,28.5,-49.6,30.01,NNE,30,0.0,0.0,2,0.00,,CLR,0.00,VWS V14.01,2013-04-23 13:43:00,
2013-04-23 08:44:00,28.5,-49.6,30.01,NNE,30,0.0,0.0,2,0.00,,CLR,0.00,VWS V14.01,2013-04-23 13:44:00,
2013-04-23 08:45:00,28.5,-49.6,30.00,NNE,30,0.0,0.0,2,0.00,,CLR,0.00,VWS V14.01,2013-04-23 13:45:00,
2013-04-23 08:46:00,28.5,-49.6,30.00,NNE,30,0.0,0.0,2,0.00,,CLR,0.00,VWS V14.01,2013-04-23 13:46:00,
2013-04-23 08:47:00,28.5,-49.6,30.00,NNE,30,0.0,0.0,2,0.00,,CLR,0.00,VWS V14.01,2013-04-23 13:47:00,
2013-04-23 08:48:00,28.5,-49.6,30.00,NNE,30,0.0,0.0,2,0.00,,CLR,0.00,VWS V14.01,2013-04-23 13:48:00,
2013-04-23 08:49:00,28.5,-49.6,30.00,NNE,30,0.0,0.0,2,0.00,,CLR,0.00,VWS V14.01,2013-04-23 13:49:00,
2013-04-23 08:50:00,28.5,-49.6,30.00,NNE,30,0.0,0.0,2,0.00,,CLR,0.00,VWS V14.01,2013-04-23 13:50:00,
2013-04-23 08:51:00,28.5,-49.6,30.00,NNE,30,0.0,0.0,2,0.00,,CLR,0.00,VWS V14.01,2013-04-23 13:51:00,
2013-04-23 08:52:00,28.5,-49.6,30.00,NNE,30,0.0,0.0,2,0.00,,CLR,0.00,VWS V14.01,2013-04-23 13:52:00,
2013-04-23 08:53:00,28.7,-49.4,30.00,NNE,30,0.0,0.0,2,0.00,,CLR,0.00,VWS V14.01,2013-04-23 13:53:00,
2013-04-23 08:54:00,28.5,-49.6,30.00,NNE,30,0.0,0.0,2,0.00,,CLR,0.00,VWS V14.01,2013-04-23 13:54:00,
2013-04-23 08:55:00,28.7,-49.4,30.00,NNE,30,0.0,0.0,2,0.00,,CLR,0.00,VWS V14.01,2013-04-23 13:55:00,
2013-04-23 08:56:00,28.7,-49.4,30.00,NNE,30,0.0,0.0,2,0.00,,CLR,0.00,VWS V14.01,2013-04-23 13:56:00,
2013-04-23 08:57:00,28.8,-49.4,30.00,NNE,30,0.0,0.0,2,0.00,,CLR,0.00,VWS V14.01,2013-04-23 13:57:00,
2013-04-23 08:58:00,28.8,-49.4,30.00,NNE,30,0.0,0.0,2,0.00,,CLR,0.00,VWS V14.01,2013-04-23 13:58:00,
2013-04-23 08:59:00,29.0,-49.2,30.00,NNE,30,0.0,0.0,2,0.00,,CLR,0.00,VWS V14.01,2013-04-23 13:59:00,
2013-04-23 09:00:00,29.0,-49.2,30.01,NNE,30,0.0,0.0,2,0.00,,CLR,0.00,VWS V14.01,2013-04-23 14:00:00,
2013-04-23 09:01:00,29.1,-49.2,30.01,NNE,30,0.0,0.0,2,0.00,,CLR,0.00,VWS V14.01,2013-04-23 14:01:00,
2013-04-23 09:02:00,29.1,-49.2,30.01,NNE,30,0.0,0.0,2,0.00,,CLR,0.00,VWS V14.01,2013-04-23 14:02:00,
2013-04-23 09:03:00,29.0,-49.2,30.01,NNE,30,0.0,0.0,2,0.00,,CLR,0.00,VWS V14.01,2013-04-23 14:03:00,
2013-04-23 09:04:00,29.1,-49.2,30.01,NNE,30,0.0,0.0,1,0.00,,CLR,0.00,VWS V14.01,2013-04-23 14:04:00,
2013-04-23 09:05:00,29.1,-49.2,30.01,NNE,30,0.0,0.0,1,0.00,,CLR,0.00,VWS V14.01,2013-04-23 14:05:00,
2013-04-23 09:06:00,29.1,-49.2,30.01,NNE,30,0.0,0.0,1,0.00,,CLR,0.00,VWS V14.01,2013-04-23 14:06:00,
2013-04-23 09:07:00,29.1,-49.2,30.01,NNE,30,0.0,0.0,1,0.00,,CLR,0.00,VWS V14.01,2013-04-23 14:07:00,
2013-04-23 09:08:00,29.3,-49.2,30.01,NNE,30,0.0,0.0,1,0.00,,CLR,0.00,VWS V14.01,2013-04-23 14:08:00,
2013-04-23 09:09:00,29.3,-49.2,30.01,NNE,30,0.0,0.0,1,0.00,,CLR,0.00,VWS V14.01,2013-04-23 14:09:00,
2013-04-23 09:10:00,29.3,-49.2,30.01,NNE,30,0.0,0.0,1,0.00,,CLR,0.00,VWS V14.01,2013-04-23 14:10:00,
2013-04-23 09:11:00,29.3,-60.0,30.01,NNE,30,0.0,0.0,1,0.00,,CLR,0.00,VWS V14.01,2013-04-23 14:11:00,
2013-04-23 09:12:00,29.4,-60.0,30.01,NNE,30,0.0,0.0,1,0.00,,CLR,0.00,VWS V14.01,2013-04-23 14:12:00,
2013-04-23 09:13:00,29.4,-60.0,30.01,NNE,30,0.0,0.0,1,0.00,,CLR,0.00,VWS V14.01,2013-04-23 14:13:00,
2013-04-23 09:14:00,29.4,-60.0,30.01,NNE,30,0.0,0.0,1,0.00,,CLR,0.00,VWS V14.01,2013-04-23 14:14:00,
2013-04-23 09:15:00,29.4,-60.0,30.02,NNE,30,0.0,0.0,1,0.00,,CLR,0.00,VWS V14.01,2013-04-23 14:15:00,
2013-04-23 09:16:00,29.4,-60.0,30.02,NNE,30,0.0,0.0,1,0.00,,CLR,0.00,VWS V14.01,2013-04-23 14:16:00,
2013-04-23 09:17:00,29.5,-59.9,30.02,NNE,30,0.0,0.0,1,0.00,,CLR,0.00,VWS V14.01,2013-04-23 14:17:00,
2013-04-23 09:18:00,29.5,-59.9,30.02,NNE,30,0.0,0.0,1,0.00,,CLR,0.00,VWS V14.01,2013-04-23 14:18:00,
2013-04-23 09:19:00,29.5,-59.9,30.02,NNE,30,0.0,0.0,1,0.00,,CLR,0.00,VWS V14.01,2013-04-23 14:19:00,
2013-04-23 09:20:00,29.5,0.0,30.02,NNE,30,0.0,0.0,0,0.00,,CLR,0.00,VWS V14.01,2013-04-23 14:20:00,
2013-04-23 09:21:00,29.5,0.0,30.02,NNE,30,0.0,0.0,0,0.00,,CLR,0.00,VWS V14.01,2013-04-23 14:21:00,
2013-04-23 09:22:00,29.7,0.0,30.02,NNE,30,0.0,0.0,0,0.00,,CLR,0.00,VWS V14.01,2013-04-23 14:22:00,
2013-04-23 09:23:00,29.5,0.0,30.02,NNE,30,0.0,0.0,0,0.00,,CLR,0.00,VWS V14.01,2013-04-23 14:23:00,
2013-04-23 09:24:00,29.5,0.0,30.02,NNE,30,0.0,0.0,0,0.00,,CLR,0.00,VWS V14.01,2013-04-23 14:24:00,
2013-04-23 09:25:00,29.5,0.0,30.02,NNE,30,0.0,0.0,0,0.00,,CLR,0.00,VWS V14.01,2013-04-23 14:25:00,
2013-04-23 09:26:00,29.5,0.0,30.02,NNE,30,0.0,0.0,0,0.00,,CLR,0.00,VWS V14.01,2013-04-23 14:26:00,
2013-04-23 09:27:00,29.7,0.0,30.02,NNE,30,0.0,0.0,0,0.00,,CLR,0.00,VWS V14.01,2013-04-23 14:27:00,
2013-04-23 09:28:00,29.5,0.0,30.02,NNE,30,0.0,0.0,0,0.00,,CLR,0.00,VWS V14.01,2013-04-23 14:28:00,
2013-04-23 09:29:00,29.5,0.0,30.02,NNE,30,0.0,0.0,0,0.00,,CLR,0.00,VWS V14.01,2013-04-23 14:29:00,
2013-04-23 09:30:00,29.5,0.0,30.02,NNE,30,0.0,0.0,0,0.00,,CLR,0.00,VWS V14.01,2013-04-23 14:30:00,
2013-04-23 09:31:00,29.4,0.0,30.02,NNE,30,0.0,0.0,0,0.00,,CLR,0.00,VWS V14.01,2013-04-23 14:31:00,
2013-04-23 09:32:00,29.4,0.0,30.02,NNE,30,0.0,0.0,0,0.00,,CLR,0.00,VWS V14.01,2013-04-23 14:32:00,
2013-04-23 09:33:00,29.4,0.0,30.02,NNE,30,0.0,0.0,0,0.00,,CLR,0.00,VWS V14.01,2013-04-23 14:33:00,
2013-04-23 09:34:00,29.4,0.0,30.02,NNE,30,0.0,0.0,0,0.00,,CLR,0.00,VWS V14.01,2013-04-23 14:34:00,
2013-04-23 09:35:00,29.4,0.0,30.02,NNE,30,0.0,0.0,0,0.00,,CLR,0.00,VWS V14.01,2013-04-23 14:35:00,
2013-04-23 09:36:00,29.4,0.0,30.02,NNE,30,0.0,0.0,0,0.00,,CLR,0.00,VWS V14.01,2013-04-23 14:36:00,
2013-04-23 09:37:00,29.4,0.0,30.02,NNE,30,0.0,0.0,0,0.00,,CLR,0.00,VWS V14.01,2013-04-23 14:37:00,
2013-04-23 09:38:00,29.4,0.0,30.02,NNE,30,0.0,0.0,0,0.00,,CLR,0.00,VWS V14.01,2013-04-23 14:38:00,
2013-04-23 09:39:00,29.4,0.0,30.02,NNE,30,0.0,0.0,0,0.00,,CLR,0.00,VWS V14.01,2013-04-23 14:39:00,
2013-04-23 09:40:00,29.3,0.0,30.02,NNE,30,0.0,0.0,0,0.00,,CLR,0.00,VWS V14.01,2013-04-23 14:40:00,
2013-04-23 09:41:00,29.3,0.0,30.02,NNE,30,0.0,0.0,0,0.00,,CLR,0.00,VWS V14.01,2013-04-23 14:41:00,
2013-04-23 09:42:00,29.3,0.0,30.02,NNE,30,0.0,0.0,0,0.00,,CLR,0.00,VWS V14.01,2013-04-23 14:42:00,
2013-04-23 09:43:00,29.3,0.0,30.02,NNE,30,0.0,0.0,0,0.00,,CLR,0.00,VWS V14.01,2013-04-23 14:43:00,
2013-04-23 09:44:00,29.3,0.0,30.02,NNE,30,0.0,0.0,0,0.00,,CLR,0.00,VWS V14.01,2013-04-23 14:44:00,
2013-04-23 09:45:00,29.3,0.0,30.01,NNE,30,0.0,0.0,0,0.00,,CLR,0.00,VWS V14.01,2013-04-23 14:45:00,
2013-04-23 09:46:00,29.3,0.0,30.01,NNE,30,0.0,0.0,0,0.00,,CLR,0.00,VWS V14.01,2013-04-23 14:46:00,
2013-04-23 09:47:00,29.3,0.0,30.01,NNE,30,0.0,0.0,0,0.00,,CLR,0.00,VWS V14.01,2013-04-23 14:47:00,
2013-04-23 09:48:00,29.5,0.0,30.01,NNE,30,0.0,0.0,0,0.00,,CLR,0.00,VWS V14.01,2013-04-23 14:48:00,
2013-04-23 09:49:00,29.5,0.0,30.01,NNE,30,0.0,0.0,0,0.00,,CLR,0.00,VWS V14.01,2013-04-23 14:49:00,
2013-04-23 09:50:00,29.5,0.0,30.01,NNE,30,0.0,0.0,0,0.00,,CLR,0.00,VWS V14.01,2013-04-23 14:50:00,
2013-04-23 09:51:00,29.5,0.0,30.01,NNE,30,0.0,0.0,0,0.00,,CLR,0.00,VWS V14.01,2013-04-23 14:51:00,
2013-04-23 09:52:00,29.7,0.0,30.01,NNE,30,0.0,0.0,0,0.00,,CLR,0.00,VWS V14.01,2013-04-23 14:52:00,
2013-04-23 09:53:00,29.7,0.0,30.01,NNE,30,0.0,0.0,0,0.00,,CLR,0.00,VWS V14.01,2013-04-23 14:53:00,
2013-04-23 09:54:00,29.8,0.0,30.01,NNE,30,0.0,0.0,0,0.00,,CLR,0.00,VWS V14.01,2013-04-23 14:54:00,
2013-04-23 09:55:00,30.0,0.0,30.01,NNE,30,0.0,0.0,0,0.00,,CLR,0.00,VWS V14.01,2013-04-23 14:55:00,
2013-04-23 09:56:00,29.8,0.0,30.01,NNE,30,0.0,0.0,0,0.00,,CLR,0.00,VWS V14.01,2013-04-23 14:56:00,
2013-04-23 09:57:00,30.0,0.0,30.01,NNE,30,0.0,0.0,0,0.00,,CLR,0.00,VWS V14.01,2013-04-23 14:57:00,
2013-04-23 09:58:00,30.0,0.0,30.01,NNE,30,0.0,0.0,0,0.00,,CLR,0.00,VWS V14.01,2013-04-23 14:58:00,
2013-04-23 09:59:00,30.1,0.0,30.01,NNE,30,0.0,0.0,0,0.00,,CLR,0.00,VWS V14.01,2013-04-23 14:59:00,
2013-04-23 10:00:00,30.1,0.0,30.00,NNE,30,0.0,0.0,0,0.00,,CLR,0.00,VWS V14.01,2013-04-23 15:00:00,
2013-04-23 10:01:00,30.1,0.0,30.00,NNE,30,0.0,0.0,0,0.00,,CLR,0.00,VWS V14.01,2013-04-23 15:01:00,
2013-04-23 10:02:00,30.1,0.0,30.00,NNE,30,0.0,0.0,0,0.00,,CLR,0.00,VWS V14.01,2013-04-23 15:02:00,
2013-04-23 10:03:00,30.1,0.0,30.00,NNE,30,0.0,0.0,0,0.00,,CLR,0.00,VWS V14.01,2013-04-23 15:03:00,
2013-04-23 10:04:00,30.1,0.0,30.00,NNE,30,0.0,0.0,0,0.00,,CLR,0.00,VWS V14.01,2013-04-23 15:04:00,
2013-04-23 10:05:00,30.1,0.0,30.00,NNE,30,0.0,0.0,0,0.00,,CLR,0.00,VWS V14.01,2013-04-23 15:05:00,
2013-04-23 10:06:00,30.1,0.0,30.00,NNE,30,0.0,0.0,0,0.00,,CLR,0.00,VWS V14.01,2013-04-23 15:06:00,
2013-04-23 10:07:00,30.3,0.0,30.00,NNE,30,0.0,0.0,0,0.00,,CLR,0.00,VWS V14.01,2013-04-23 15:07:00,
2013-04-23 10:08:00,30.1,0.0,30.00,NNE,30,0.0,0.0,0,0.00,,CLR,0.00,VWS V14.01,2013-04-23 15:08:00,
2013-04-23 10:09:00,30.3,0.0,30.00,NNE,30,0.0,0.0,0,0.00,,CLR,0.00,VWS V14.01,2013-04-23 15:09:00,
2013-04-23 10:10:00,30.3,0.0,30.00,NNE,30,0.0,0.0,0,0.00,,CLR,0.00,VWS V14.01,2013-04-23 15:10:00,
2013-04-23 10:11:00,30.3,0.0,30.00,NNE,30,0.0,0.0,0,0.00,,CLR,0.00,VWS V14.01,2013-04-23 15:11:00,
2013-04-23 10:12:00,30.3,0.0,30.00,NNE,30,0.0,0.0,0,0.00,,CLR,0.00,VWS V14.01,2013-04-23 15:12:00,
2013-04-23 10:13:00,30.4,0.0,30.00,NNE,30,0.0,0.0,0,0.00,,CLR,0.00,VWS V14.01,2013-04-23 15:13:00,
2013-04-23 10:14:00,30.4,0.0,30.00,NNE,30,0.0,0.0,0,0.00,,CLR,0.00,VWS V14.01,2013-04-23 15:14:00,
2013-04-23 10:15:00,30.7,0.0,29.99,NNE,30,0.0,0.0,0,0.00,,CLR,0.00,VWS V14.01,2013-04-23 15:15:00,
2013-04-23 10:16:00,30.6,0.0,29.99,NNE,30,0.0,0.0,0,0.00,,CLR,0.00,VWS V14.01,2013-04-23 15:16:00,
2013-04-23 10:17:00,30.6,0.0,29.99,NNE,30,0.0,0.0,0,0.00,,CLR,0.00,VWS V14.01,2013-04-23 15:17:00,
2013-04-23 10:18:00,30.7,0.0,29.99,NNE,30,0.0,0.0,0,0.00,,CLR,0.00,VWS V14.01,2013-04-23 15:18:00,
2013-04-23 10:19:00,30.7,0.0,29.99,NNE,30,0.0,0.0,0,0.00,,CLR,0.00,VWS V14.01,2013-04-23 15:19:00,
2013-04-23 10:20:00,30.9,0.0,29.99,NNE,30,0.0,0.0,0,0.00,,CLR,0.00,VWS V14.01,2013-04-23 15:20:00,
2013-04-23 10:21:00,30.7,0.0,29.99,NNE,30,0.0,0.0,0,0.00,,CLR,0.00,VWS V14.01,2013-04-23 15:21:00,
2013-04-23 10:22:00,30.9,0.0,29.99,NNE,30,0.0,0.0,0,0.00,,CLR,0.00,VWS V14.01,2013-04-23 15:22:00,
2013-04-23 10:23:00,31.0,0.0,29.99,NNE,30,0.0,0.0,0,0.00,,CLR,0.00,VWS V14.01,2013-04-23 15:23:00,
2013-04-23 10:24:00,31.0,0.0,29.99,NNE,30,0.0,0.0,0,0.00,,CLR,0.00,VWS V14.01,2013-04-23 15:24:00,
2013-04-23 10:25:00,31.0,0.0,29.99,NNE,30,0.0,0.0,0,0.00,,CLR,0.00,VWS V14.01,2013-04-23 15:25:00,
2013-04-23 10:26:00,30.9,0.0,29.99,NNE,30,0.0,0.0,0,0.00,,CLR,0.00,VWS V14.01,2013-04-23 15:26:00,
2013-04-23 10:27:00,31.0,0.0,29.99,NNE,30,0.0,0.0,0,0.00,,CLR,0.00,VWS V14.01,2013-04-23 15:27:00,
2013-04-23 10:28:00,31.0,0.0,29.99,NNE,30,0.0,0.0,0,0.00,,CLR,0.00,VWS V14.01,2013-04-23 15:28:00,
2013-04-23 10:29:00,31.0,0.0,29.99,NNE,30,0.0,0.0,0,0.00,,CLR,0.00,VWS V14.01,2013-04-23 15:29:00,
2013-04-23 10:30:00,31.0,0.0,29.99,NNE,30,0.0,0.0,0,0.00,,CLR,0.00,VWS V14.01,2013-04-23 15:30:00,
2013-04-23 10:31:00,31.2,0.0,29.99,NNE,30,0.0,0.0,0,0.00,,CLR,0.00,VWS V14.01,2013-04-23 15:31:00,
2013-04-23 10:32:00,31.0,0.0,29.99,NNE,30,0.0,0.0,0,0.00,,CLR,0.00,VWS V14.01,2013-04-23 15:32:00,
2013-04-23 10:33:00,31.0,0.0,29.99,NNE,30,0.0,0.0,0,0.00,,CLR,0.00,VWS V14.01,2013-04-23 15:33:00,
2013-04-23 10:34:00,31.0,0.0,29.99,NNE,30,0.0,0.0,0,0.00,,CLR,0.00,VWS V14.01,2013-04-23 15:34:00,
2013-04-23 10:35:00,31.2,0.0,29.99,NNE,30,0.0,0.0,0,0.00,,CLR,0.00,VWS V14.01,2013-04-23 15:35:00,
2013-04-23 10:36:00,31.2,0.0,29.99,NNE,30,0.0,0.0,0,0.00,,CLR,0.00,VWS V14.01,2013-04-23 15:36:00,
2013-04-23 10:37:00,31.2,0.0,29.99,NNE,30,0.0,0.0,0,0.00,,CLR,0.00,VWS V14.01,2013-04-23 15:37:00,
2013-04-23 10:38:00,31.2,0.0,29.99,NNE,30,0.0,0.0,0,0.00,,CLR,0.00,VWS V14.01,2013-04-23 15:38:00,
2013-04-23 10:39:00,31.3,0.0,29.99,NNE,30,0.0,0.0,0,0.00,,CLR,0.00,VWS V14.01,2013-04-23 15:39:00,
2013-04-23 10:40:00,31.3,0.0,29.99,NNE,30,0.0,0.0,0,0.00,,CLR,0.00,VWS V14.01,2013-04-23 15:40:00,
2013-04-23 10:41:00,31.2,0.0,29.99,NNE,30,0.0,0.0,0,0.00,,CLR,0.00,VWS V14.01,2013-04-23 15:41:00,
2013-04-23 10:42:00,31.2,0.0,29.99,NNE,30,0.0,0.0,0,0.00,,CLR,0.00,VWS V14.01,2013-04-23 15:42:00,
2013-04-23 10:43:00,31.3,0.0,29.99,NNE,30,0.0,0.0,0,0.00,,CLR,0.00,VWS V14.01,2013-04-23 15:43:00,
2013-04-23 10:44:00,31.3,0.0,29.99,NNE,30,0.0,0.0,0,0.00,,CLR,0.00,VWS V14.01,2013-04-23 15:44:00,
2013-04-23 10:45:00,31.3,0.0,30.00,NNE,30,0.0,0.0,0,0.00,,CLR,0.00,VWS V14.01,2013-04-23 15:45:00,
2013-04-23 10:46:00,31.3,0.0,30.00,NNE,30,0.0,0.0,0,0.00,,CLR,0.00,VWS V14.01,2013-04-23 15:46:00,
2013-04-23 10:47:00,31.3,0.0,30.00,NNE,30,0.0,0.0,0,0.00,,CLR,0.00,VWS V14.01,2013-04-23 15:47:00,
2013-04-23 10:48:00,31.5,0.0,30.00,NNE,30,0.0,0.0,0,0.00,,CLR,0.00,VWS V14.01,2013-04-23 15:48:00,
2013-04-23 10:49:00,31.5,0.0,30.00,NNE,30,0.0,0.0,0,0.00,,CLR,0.00,VWS V14.01,2013-04-23 15:49:00,
2013-04-23 10:50:00,31.5,0.0,30.00,NNE,30,0.0,0.0,0,0.00,,CLR,0.00,VWS V14.01,2013-04-23 15:50:00,
2013-04-23 10:51:00,31.5,0.0,30.00,NNE,30,0.0,0.0,0,0.00,,CLR,0.00,VWS V14.01,2013-04-23 15:51:00,
2013-04-23 10:52:00,31.6,0.0,30.00,NNE,30,0.0,0.0,0,0.00,,CLR,0.00,VWS V14.01,2013-04-23 15:52:00,
2013-04-23 10:53:00,31.8,0.0,30.00,NNE,30,0.0,0.0,0,0.00,,CLR,0.00,VWS V14.01,2013-04-23 15:53:00,
2013-04-23 10:54:00,31.8,0.0,30.00,NNE,30,0.0,0.0,0,0.00,,CLR,0.00,VWS V14.01,2013-04-23 15:54:00,
2013-04-23 10:55:00,31.8,0.0,30.00,NNE,30,0.0,0.0,0,0.00,,CLR,0.00,VWS V14.01,2013-04-23 15:55:00,
2013-04-23 10:56:00,31.8,0.0,30.00,NNE,30,0.0,0.0,0,0.00,,CLR,0.00,VWS V14.01,2013-04-23 15:56:00,
2013-04-23 10:57:00,31.9,0.0,30.00,NNE,30,0.0,0.0,0,0.00,,CLR,0.00,VWS V14.01,2013-04-23 15:57:00,
2013-04-23 10:58:00,31.9,0.0,30.00,NNE,30,0.0,0.0,0,0.00,,CLR,0.00,VWS V14.01,2013-04-23 15:58:00,
2013-04-23 10:59:00,32.2,0.0,30.00,NNE,30,0.0,0.0,0,0.00,,CLR,0.00,VWS V14.01,2013-04-23 15:59:00,
2013-04-23 11:00:00,32.1,0.0,29.99,NNE,30,0.0,0.0,0,0.00,,CLR,0.00,VWS V14.01,2013-04-23 16:00:00,
2013-04-23 11:01:00,32.2,0.0,29.99,NNE,30,0.0,0.0,0,0.00,,CLR,0.00,VWS V14.01,2013-04-23 16:01:00,
2013-04-23 11:02:00,32.1,0.0,29.99,NNE,29,0.0,0.0,0,0.00,,CLR,0.00,VWS V14.01,2013-04-23 16:02:00,
2013-04-23 11:03:00,32.4,0.0,29.99,WNW,286,0.0,0.0,0,0.00,,CLR,0.00,VWS V14.01,2013-04-23 16:03:00,
2013-04-23 11:04:00,32.4,0.0,29.99,WNW,287,0.0,0.0,0,0.00,,CLR,0.00,VWS V14.01,2013-04-23 16:04:00,
2013-04-23 11:05:00,32.2,0.0,29.99,WNW,286,0.0,0.0,0,0.00,,CLR,0.00,VWS V14.01,2013-04-23 16:05:00,
2013-04-23 11:06:00,32.2,0.0,29.99,WNW,293,0.0,0.0,0,0.00,,CLR,0.00,VWS V14.01,2013-04-23 16:06:00,
2013-04-23 11:07:00,32.4,0.0,29.99,WNW,283,0.0,0.0,0,0.00,,CLR,0.00,VWS V14.01,2013-04-23 16:07:00,
2013-04-23 11:08:00,32.2,0.0,29.99,WNW,283,0.0,0.0,0,0.00,,CLR,0.00,VWS V14.01,2013-04-23 16:08:00,
2013-04-23 11:09:00,32.1,0.0,29.99,WNW,290,0.0,0.0,0,0.00,,CLR,0.00,VWS V14.01,2013-04-23 16:09:00,
2013-04-23 11:10:00,32.4,0.0,29.99,WNW,290,0.0,0.0,0,0.00,,CLR,0.00,VWS V14.01,2013-04-23 16:10:00,
2013-04-23 11:11:00,32.1,0.0,29.99,WNW,291,0.0,0.0,0,0.00,,CLR,0.00,VWS V14.01,2013-04-23 16:11:00,
2013-04-23 11:12:00,32.1,0.0,29.99,WNW,293,0.0,0.0,0,0.00,,CLR,0.00,VWS V14.01,2013-04-23 16:12:00,
2013-04-23 11:13:00,32.2,0.0,29.99,WNW,286,0.0,0.0,0,0.00,,CLR,0.00,VWS V14.01,2013-04-23 16:13:00,
2013-04-23 11:14:00,32.2,0.0,29.99,NW,325,0.0,0.0,0,0.00,,CLR,0.00,VWS V14.01,2013-04-23 16:14:00,
2013-04-23 11:15:00,32.2,0.0,30.00,WNW,293,0.0,0.0,0,0.00,,CLR,0.00,VWS V14.01,2013-04-23 16:15:00,
2013-04-23 11:16:00,32.2,0.0,30.00,WNW,286,0.0,0.0,0,0.00,,CLR,0.00,VWS V14.01,2013-04-23 16:16:00,
2013-04-23 11:17:00,32.2,0.0,30.00,WNW,290,0.0,0.0,0,0.00,,CLR,0.00,VWS V14.01,2013-04-23 16:17:00,
2013-04-23 11:18:00,32.2,0.0,30.00,WNW,288,0.0,0.0,0,0.00,,CLR,0.00,VWS V14.01,2013-04-23 16:18:00,
2013-04-23 11:19:00,32.4,0.0,30.00,NW,310,0.0,0.0,0,0.00,,CLR,0.00,VWS V14.01,2013-04-23 16:19:00,
2013-04-23 11:20:00,32.4,0.0,30.00,NNW,329,0.0,0.0,0,0.00,,CLR,0.00,VWS V14.01,2013-04-23 16:20:00,
2013-04-23 11:21:00,32.2,0.0,30.00,WNW,291,0.0,0.0,0,0.00,,CLR,0.00,VWS V14.01,2013-04-23 16:21:00,
2013-04-23 11:22:00,32.5,0.0,30.00,WNW,291,0.0,0.0,0,0.00,,CLR,0.00,VWS V14.01,2013-04-23 16:22:00,
2013-04-23 11:23:00,32.5,0.0,30.00,WNW,291,0.0,0.0,0,0.00,,CLR,0.00,VWS V14.01,2013-04-23 16:23:00,
2013-04-23 11:24:00,32.5,0.0,30.00,WNW,286,0.0,0.0,0,0.00,,CLR,0.00,VWS V14.01,2013-04-23 16:24:00,
2013-04-23 11:25:00,32.4,0.0,30.00,WNW,288,0.0,0.0,0,0.00,,CLR,0.00,VWS V14.01,2013-04-23 16:25:00,
2013-04-23 11:26:00,32.5,0.0,30.00,WNW,283,0.0,0.0,0,0.00,,CLR,0.00,VWS V14.01,2013-04-23 16:26:00,
2013-04-23 11:27:00,32.4,0.0,30.00,West,281,0.0,0.0,0,0.00,,CLR,0.00,VWS V14.01,2013-04-23 16:27:00,
2013-04-23 11:28:00,32.2,0.0,30.00,NW,304,0.0,0.0,0,0.00,,CLR,0.00,VWS V14.01,2013-04-23 16:28:00,
2013-04-23 11:29:00,32.1,0.0,30.00,WNW,298,0.0,0.0,0,0.00,,CLR,0.00,VWS V14.01,2013-04-23 16:29:00,
2013-04-23 11:30:00,32.4,0.0,29.99,NW,307,0.0,0.0,0,0.00,,CLR,0.00,VWS V14.01,2013-04-23 16:30:00,
2013-04-23 11:31:00,32.4,0.0,29.99,WNW,287,0.0,0.0,0,0.00,,CLR,0.00,VWS V14.01,2013-04-23 16:31:00,
2013-04-23 11:32:00,32.4,0.0,29.99,WNW,288,0.0,0.0,0,0.00,,CLR,0.00,VWS V14.01,2013-04-23 16:32:00,
2013-04-23 11:33:00,32.4,0.0,29.99,NW,304,0.0,0.0,0,0.00,,CLR,0.00,VWS V14.01,2013-04-23 16:33:00,
2013-04-23 11:34:00,32.5,0.0,29.99,WNW,298,0.0,0.0,0,0.00,,CLR,0.00,VWS V14.01,2013-04-23 16:34:00,
2013-04-23 11:35:00,32.5,0.0,29.99,West,270,0.0,0.0,0,0.00,,CLR,0.00,VWS V14.01,2013-04-23 16:35:00,
2013-04-23 11:36:00,32.5,0.0,29.99,West,273,0.0,0.0,0,0.00,,CLR,0.00,VWS V14.01,2013-04-23 16:36:00,
2013-04-23 11:37:00,32.5,0.0,29.99,West,276,0.0,0.0,0,0.00,,CLR,0.00,VWS V14.01,2013-04-23 16:37:00,
2013-04-23 11:38:00,32.5,0.0,29.99,West,280,0.0,0.0,0,0.00,,CLR,0.00,VWS V14.01,2013-04-23 16:38:00,
2013-04-23 11:39:00,32.5,0.0,29.99,WNW,286,0.0,0.0,0,0.00,,CLR,0.00,VWS V14.01,2013-04-23 16:39:00,
2013-04-23 11:40:00,32.5,0.0,29.99,WNW,290,0.0,0.0,0,0.00,,CLR,0.00,VWS V14.01,2013-04-23 16:40:00,
2013-04-23 11:41:00,32.7,0.0,29.99,WNW,288,0.0,0.0,0,0.00,,CLR,0.00,VWS V14.01,2013-04-23 16:41:00,
2013-04-23 11:42:00,32.5,0.0,29.99,NW,307,0.0,0.0,0,0.00,,CLR,0.00,VWS V14.01,2013-04-23 16:42:00,
2013-04-23 11:43:00,32.5,0.0,29.99,WNW,294,0.0,0.0,0,0.00,,CLR,0.00,VWS V14.01,2013-04-23 16:43:00,
2013-04-23 11:44:00,32.5,0.0,29.99,WNW,291,0.0,0.0,0,0.00,,CLR,0.00,VWS V14.01,2013-04-23 16:44:00,
2013-04-23 11:45:00,32.7,0.0,29.99,WNW,286,0.0,0.0,0,0.00,,CLR,0.00,VWS V14.01,2013-04-23 16:45:00,
2013-04-23 11:46:00,32.7,0.0,29.99,WNW,286,0.0,0.0,0,0.00,,CLR,0.00,VWS V14.01,2013-04-23 16:46:00,
2013-04-23 11:47:00,32.7,0.0,29.99,WNW,293,0.0,0.0,0,0.00,,CLR,0.00,VWS V14.01,2013-04-23 16:47:00,
2013-04-23 11:48:00,32.7,0.0,29.99,NW,307,0.0,0.0,0,0.00,,CLR,0.00,VWS V14.01,2013-04-23 16:48:00,
2013-04-23 11:49:00,32.9,0.0,29.99,NNW,329,0.0,0.0,0,0.00,,CLR,0.00,VWS V14.01,2013-04-23 16:49:00,
2013-04-23 11:50:00,33.1,0.0,29.99,WNW,301,0.0,0.0,0,0.00,,CLR,0.00,VWS V14.01,2013-04-23 16:50:00,
2013-04-23 11:51:00,32.9,0.0,29.99,West,270,0.0,0.0,0,0.00,,CLR,0.00,VWS V14.01,2013-04-23 16:51:00,
2013-04-23 11:52:00,32.9,0.0,29.99,West,274,0.0,0.0,0,0.00,,CLR,0.00,VWS V14.01,2013-04-23 16:52:00,
2013-04-23 11:53:00,32.9,0.0,29.99,West,270,0.0,0.0,0,0.00,,CLR,0.00,VWS V14.01,2013-04-23 16:53:00,
2013-04-23 11:54:00,32.9,0.0,29.99,WNW,287,0.0,0.0,0,0.00,,CLR,0.00,VWS V14.01,2013-04-23 16:54:00,
2013-04-23 11:55:00,32.9,0.0,29.99,WNW,297,0.0,0.0,0,0.00,,CLR,0.00,VWS V14.01,2013-04-23 16:55:00,
2013-04-23 11:56:00,32.9,0.0,29.99,WNW,287,0.0,0.0,0,0.00,,CLR,0.00,VWS V14.01,2013-04-23 16:56:00,
2013-04-23 11:57:00,32.9,0.0,29.99,West,273,0.0,0.0,0,0.00,,CLR,0.00,VWS V14.01,2013-04-23 16:57:00,
2013-04-23 11:58:00,32.9,0.0,29.99,West,274,0.0,0.0,0,0.00,,CLR,0.00,VWS V14.01,2013-04-23 16:58:00,
2013-04-23 11:59:00,33.1,0.0,29.99,West,274,0.0,0.0,0,0.00,,CLR,0.00,VWS V14.01,2013-04-23 16:59:00,
2013-04-23 12:00:00,32.9,0.0,29.98,West,276,0.0,0.0,0,0.00,,CLR,0.00,VWS V14.01,2013-04-23 17:00:00,
2013-04-23 12:01:00,32.9,0.0,29.98,WNW,294,0.0,0.0,0,0.00,,CLR,0.00,VWS V14.01,2013-04-23 17:01:00,
2013-04-23 12:02:00,33.1,0.0,29.98,West,276,0.0,0.0,0,0.00,,CLR,0.00,VWS V14.01,2013-04-23 17:02:00,
2013-04-23 12:03:00,33.1,0.0,29.98,West,270,0.0,0.0,0,0.00,,CLR,0.00,VWS V14.01,2013-04-23 17:03:00,
2013-04-23 12:04:00,32.9,0.0,29.98,NW,310,0.0,0.0,0,0.00,,CLR,0.00,VWS V14.01,2013-04-23 17:04:00,
2013-04-23 12:05:00,33.1,0.0,29.98,NW,304,0.0,0.0,0,0.00,,CLR,0.00,VWS V14.01,2013-04-23 17:05:00,
2013-04-23 12:06:00,33.2,0.0,29.98,WNW,295,0.0,0.0,0,0.00,,CLR,0.00,VWS V14.01,2013-04-23 17:06:00,
2013-04-23 12:07:00,33.4,0.0,29.98,West,281,0.0,0.0,0,0.00,,CLR,0.00,VWS V14.01,2013-04-23 17:07:00,
2013-04-23 12:08:00,33.4,0.0,29.98,WNW,298,0.0,0.0,0,0.00,,CLR,0.00,VWS V14.01,2013-04-23 17:08:00,
2013-04-23 12:09:00,33.5,0.0,29.98,WNW,297,0.0,0.0,0,0.00,,CLR,0.00,VWS V14.01,2013-04-23 17:09:00,
2013-04-23 12:10:00,33.5,0.0,29.98,WNW,290,0.0,0.0,0,0.00,,CLR,0.00,VWS V14.01,2013-04-23 17:10:00,
2013-04-23 12:11:00,33.4,0.0,29.98,WNW,293,0.0,0.0,0,0.00,,CLR,0.00,VWS V14.01,2013-04-23 17:11:00,
2013-04-23 12:12:00,33.4,0.0,29.98,WNW,286,0.0,0.0,0,0.00,,CLR,0.00,VWS V14.01,2013-04-23 17:12:00,
2013-04-23 12:13:00,33.5,0.0,29.98,WNW,286,0.0,0.0,0,0.01,,CLR,0.01,VWS V14.01,2013-04-23 17:13:00,
2013-04-23 12:14:00,33.5,0.0,29.98,West,280,0.0,0.0,0,0.01,,CLR,0.01,VWS V14.01,2013-04-23 17:14:00,
2013-04-23 12:15:00,33.4,0.0,29.97,West,281,0.0,0.0,0,0.01,,CLR,0.01,VWS V14.01,2013-04-23 17:15:00,
2013-04-23 12:16:00,33.4,0.0,29.97,WNW,291,0.0,0.0,0,0.04,,CLR,0.04,VWS V14.01,2013-04-23 17:16:00,
2013-04-23 12:17:00,33.5,0.0,29.97,WNW,284,0.0,0.0,0,0.07,,CLR,0.07,VWS V14.01,2013-04-23 17:17:00,
2013-04-23 12:18:00,33.5,0.0,29.97,West,274,0.0,0.0,0,0.07,,CLR,0.07,VWS V14.01,2013-04-23 17:18:00,
2013-04-23 12:19:00,33.5,0.0,29.97,West,273,0.0,0.0,0,0.08,,CLR,0.08,VWS V14.01,2013-04-23 17:19:00,
2013-04-23 12:20:00,33.5,0.0,29.97,West,270,0.0,0.0,0,0.08,,CLR,0.08,VWS V14.01,2013-04-23 17:20:00,
2013-04-23 12:21:00,33.7,0.0,29.97,West,276,0.0,0.0,0,0.08,,CLR,0.08,VWS V14.01,2013-04-23 17:21:00,
2013-04-23 12:22:00,33.5,0.0,29.97,West,270,0.0,0.0,0,0.08,,CLR,0.08,VWS V14.01,2013-04-23 17:22:00,
2013-04-23 12:23:00,33.5,0.0,29.97,West,273,2.0,2.0,0,0.09,,CLR,0.09,VWS V14.01,2013-04-23 17:23:00,
2013-04-23 12:24:00,33.7,0.0,29.97,West,280,1.0,2.0,0,0.09,,CLR,0.09,VWS V14.01,2013-04-23 17:24:00,
2013-04-23 12:25:00,33.8,0.0,29.97,WNW,290,1.0,6.0,0,0.09,,CLR,0.09,VWS V14.01,2013-04-23 17:25:00,
2013-04-23 12:26:00,33.8,0.0,29.97,WNW,287,2.0,6.0,0,0.09,,CLR,0.09,VWS V14.01,2013-04-23 17:26:00,
2013-04-23 12:27:00,34.0,0.0,29.97,WNW,298,1.0,6.0,0,0.09,,CLR,0.09,VWS V14.01,2013-04-23 17:27:00,
2013-04-23 12:28:00,34.0,0.0,29.97,WNW,293,4.0,6.0,0,0.09,,CLR,0.09,VWS V14.01,2013-04-23 17:28:00,
2013-04-23 12:29:00,34.0,0.0,29.97,WNW,287,1.0,6.0,0,0.09,,CLR,0.09,VWS V14.01,2013-04-23 17:29:00,
2013-04-23 12:30:00,34.1,0.0,29.97,NW,325,7.0,9.0,0,0.09,,CLR,0.09,VWS V14.01,2013-04-23 17:30:00,
2013-04-23 12:31:00,34.1,0.0,29.97,NW,319,6.0,7.0,0,0.10,,CLR,0.10,VWS V14.01,2013-04-23 17:31:00,
2013-04-23 12:32:00,34.1,0.0,29.97,NW,314,2.0,7.0,0,0.10,,CLR,0.10,VWS V14.01,2013-04-23 17:32:00,
2013-04-23 12:33:00,34.3,0.0,29.97,NW,314,0.0,7.0,0,0.10,,CLR,0.10,VWS V14.01,2013-04-23 17:33:00,
2013-04-23 12:34:00,34.4,0.0,29.97,West,270,3.0,7.0,0,0.10,,CLR,0.10,VWS V14.01,2013-04-23 17:34:00,
2013-04-23 12:35:00,34.4,0.0,29.97,WNW,298,6.0,7.0,0,0.11,,CLR,0.11,VWS V14.01,2013-04-23 17:35:00,
2013-04-23 12:36:00,34.4,0.0,29.97,NNW,332,2.0,7.0,0,0.11,,CLR,0.11,VWS V14.01,2013-04-23 17:36:00,
2013-04-23 12:37:00,34.6,0.0,29.97,NNW,329,7.0,8.0,0,0.11,,CLR,0.11,VWS V14.01,2013-04-23 17:37:00,
2013-04-23 12:38:00,34.6,0.0,29.97,NW,326,7.0,8.0,0,0.11,,CLR,0.11,VWS V14.01,2013-04-23 17:38:00,
2013-04-23 12:39:00,34.6,0.0,29.97,NW,324,7.0,10.0,0,0.11,,CLR,0.11,VWS V14.01,2013-04-23 17:39:00,
2013-04-23 12:40:00,34.7,0.0,29.97,WNW,286,6.0,10.0,0,0.11,,CLR,0.11,VWS V14.01,2013-04-23 17:40:00,
2013-04-23 12:41:00,34.7,0.0,29.97,WNW,286,0.0,10.0,0,0.12,,CLR,0.12,VWS V14.01,2013-04-23 17:41:00,
2013-04-23 12:42:00,34.9,0.0,29.97,WNW,300,0.0,10.0,0,0.12,,CLR,0.12,VWS V14.01,2013-04-23 17:42:00,
2013-04-23 12:43:00,34.9,0.0,29.97,WNW,287,0.0,10.0,0,0.12,,CLR,0.12,VWS V14.01,2013-04-23 17:43:00,
2013-04-23 12:44:00,34.9,0.0,29.97,West,264,6.0,10.0,0,0.12,,CLR,0.12,VWS V14.01,2013-04-23 17:44:00,
2013-04-23 12:45:00,34.7,0.0,29.97,West,278,0.0,10.0,0,0.12,,CLR,0.12,VWS V14.01,2013-04-23 17:45:00,
2013-04-23 12:46:00,34.6,0.0,29.97,WNW,297,0.0,10.0,0,0.12,,CLR,0.12,VWS V14.01,2013-04-23 17:46:00,
2013-04-23 12:47:00,34.6,0.0,29.97,West,270,3.0,10.0,0,0.13,,CLR,0.13,VWS V14.01,2013-04-23 17:47:00,
2013-04-23 12:48:00,34.6,0.0,29.97,NNW,328,7.0,10.0,0,0.13,,CLR,0.13,VWS V14.01,2013-04-23 17:48:00,
2013-04-23 12:49:00,34.6,0.0,29.97,WNW,288,3.0,10.0,0,0.13,,CLR,0.13,VWS V14.01,2013-04-23 17:49:00,
2013-04-23 12:50:00,34.6,0.0,29.97,WNW,302,7.0,16.0,0,0.13,,CLR,0.13,VWS V14.01,2013-04-23 17:50:00,
2013-04-23 12:51:00,34.7,0.0,29.97,WNW,301,10.0,16.0,0,0.13,,CLR,0.13,VWS V14.01,2013-04-23 17:51:00,
2013-04-23 12:52:00,34.7,0.0,29.97,WNW,288,0.0,16.0,0,0.13,,CLR,0.13,VWS V14.01,2013-04-23 17:52:00,
2013-04-23 12:53:00,34.9,0.0,29.97,NW,318,11.0,16.0,0,0.13,,CLR,0.13,VWS V14.01,2013-04-23 17:53:00,
2013-04-23 12:54:00,34.9,0.0,29.97,NNW,331,9.0,16.0,0,0.14,,CLR,0.14,VWS V14.01,2013-04-23 17:54:00,
2013-04-23 12:55:00,34.9,0.0,29.97,NW,308,8.0,16.0,0,0.14,,CLR,0.14,VWS V14.01,2013-04-23 17:55:00,
2013-04-23 12:56:00,35.0,0.0,29.97,NW,307,8.0,16.0,0,0.14,,CLR,0.14,VWS V14.01,2013-04-23 17:56:00,
2013-04-23 12:57:00,35.2,35.2,29.97,West,278,3.0,16.0,100,0.14,,CLR,0.14,VWS V14.01,2013-04-23 17:57:00,
2013-04-23 12:58:00,35.2,35.2,29.97,WNW,302,1.0,16.0,100,0.14,,CLR,0.14,VWS V14.01,2013-04-23 17:58:00,
2013-04-23 12:59:00,35.2,35.2,29.97,WNW,298,3.0,16.0,100,0.14,,CLR,0.14,VWS V14.01,2013-04-23 17:59:00,
2013-04-23 13:00:00,35.3,35.3,29.96,WNW,287,1.0,16.0,100,0.14,,CLR,0.14,VWS V14.01,2013-04-23 18:00:00,
2013-04-23 13:01:00,35.3,35.3,29.96,NNW,342,10.0,10.0,100,0.14,,CLR,0.14,VWS V14.01,2013-04-23 18:01:00,
2013-04-23 13:02:00,35.5,35.5,29.96,WNW,302,1.0,10.0,100,0.14,,CLR,0.14,VWS V14.01,2013-04-23 18:02:00,
2013-04-23 13:03:00,35.5,35.5,29.96,WNW,295,0.0,10.0,100,0.15,,CLR,0.15,VWS V14.01,2013-04-23 18:03:00,
2013-04-23 13:04:00,35.6,35.6,29.96,WNW,295,5.0,10.0,100,0.15,,CLR,0.15,VWS V14.01,2013-04-23 18:04:00,
2013-04-23 13:05:00,35.6,35.6,29.96,West,270,1.0,10.0,100,0.15,,CLR,0.15,VWS V14.01,2013-04-23 18:05:00,
2013-04-23 13:06:00,35.5,35.5,29.96,WNW,293,3.0,10.0,100,0.15,,CLR,0.15,VWS V14.01,2013-04-23 18:06:00,
2013-04-23 13:07:00,35.6,35.6,29.96,West,277,2.0,13.0,100,0.15,,CLR,0.15,VWS V14.01,2013-04-23 18:07:00,
2013-04-23 13:08:00,35.6,35.6,29.96,WNW,283,7.0,13.0,100,0.15,,CLR,0.15,VWS V14.01,2013-04-23 18:08:00,
2013-04-23 13:09:00,35.5,35.5,29.96,NNW,332,7.0,13.0,100,0.15,,CLR,0.15,VWS V14.01,2013-04-23 18:09:00,
2013-04-23 13:10:00,35.5,35.5,29.96,NW,312,0.0,13.0,100,0.15,,CLR,0.15,VWS V14.01,2013-04-23 18:10:00,
2013-04-23 13:11:00,35.5,35.5,29.96,West,280,1.0,13.0,100,0.15,,CLR,0.15,VWS V14.01,2013-04-23 18:11:00,
2013-04-23 13:12:00,35.6,35.6,29.96,WNW,291,5.0,13.0,100,0.16,,CLR,0.16,VWS V14.01,2013-04-23 18:12:00,
2013-04-23 13:13:00,35.6,35.6,29.96,West,281,0.0,13.0,100,0.16,,CLR,0.16,VWS V14.01,2013-04-23 18:13:00,
2013-04-23 13:14:00,35.6,35.6,29.96,West,267,11.0,13.0,100,0.16,,CLR,0.16,VWS V14.01,2013-04-23 18:14:00,
2013-04-23 13:15:00,35.6,35.6,29.96,West,276,2.0,13.0,100,0.16,,CLR,0.16,VWS V14.01,2013-04-23 18:15:00,
2013-04-23 13:16:00,35.5,35.5,29.96,West,264,3.0,13.0,100,0.16,,CLR,0.16,VWS V14.01,2013-04-23 18:16:00,
2013-04-23 13:17:00,35.5,35.5,29.96,WNW,287,5.0,13.0,100,0.16,,CLR,0.16,VWS V14.01,2013-04-23 18:17:00,
2013-04-23 13:18:00,35.5,35.5,29.96,WNW,293,3.0,13.0,100,0.16,,CLR,0.16,VWS V14.01,2013-04-23 18:18:00,
2013-04-23 13:19:00,35.6,35.6,29.96,West,277,2.0,13.0,100,0.16,,CLR,0.16,VWS V14.01,2013-04-23 18:19:00,
2013-04-23 13:20:00,35.6,35.6,29.96,West,270,3.0,13.0,100,0.16,,CLR,0.16,VWS V14.01,2013-04-23 18:20:00,
2013-04-23 13:21:00,35.6,35.6,29.96,WNW,300,7.0,13.0,100,0.16,,CLR,0.16,VWS V14.01,2013-04-23 18:21:00,
2013-04-23 13:22:00,35.6,35.6,29.96,WNW,293,7.0,13.0,100,0.17,,CLR,0.17,VWS V14.01,2013-04-23 18:22:00,
2013-04-23 13:23:00,35.8,35.8,29.96,West,278,3.0,13.0,100,0.17,,CLR,0.17,VWS V14.01,2013-04-23 18:23:00,
2013-04-23 13:24:00,35.9,35.9,29.96,West,270,2.0,13.0,100,0.17,,CLR,0.17,VWS V14.01,2013-04-23 18:24:00,
2013-04-23 13:25:00,35.9,35.9,29.96,WNW,293,3.0,13.0,100,0.17,,CLR,0.17,VWS V14.01,2013-04-23 18:25:00,
2013-04-23 13:26:00,35.9,35.9,29.96,NW,324,11.0,13.0,100,0.17,,CLR,0.17,VWS V14.01,2013-04-23 18:26:00,
2013-04-23 13:27:00,36.0,36.0,29.96,NNW,329,10.0,13.0,100,0.17,,CLR,0.17,VWS V14.01,2013-04-23 18:27:00,
2013-04-23 13:28:00,36.2,36.2,29.96,NW,315,2.0,13.0,100,0.17,,CLR,0.17,VWS V14.01,2013-04-23 18:28:00,
2013-04-23 13:29:00,36.3,36.3,29.96,WNW,300,3.0,13.0,100,0.17,,CLR,0.17,VWS V14.01,2013-04-23 18:29:00,
2013-04-23 13:30:00,36.5,36.5,29.96,WNW,283,2.0,13.0,100,0.17,,CLR,0.17,VWS V14.01,2013-04-23 18:30:00,
2013-04-23 13:31:00,36.5,36.5,29.96,NNW,329,6.0,11.0,100,0.08,,CLR,0.17,VWS V14.01,2013-04-23 18:31:00,
2013-04-23 13:32:00,36.5,36.5,29.96,NW,325,7.0,11.0,100,0.08,,CLR,0.17,VWS V14.01,2013-04-23 18:32:00,
2013-04-23 13:33:00,36.6,36.6,29.96,NW,318,6.0,11.0,100,0.08,,CLR,0.17,VWS V14.01,2013-04-23 18:33:00,
2013-04-23 13:34:00,36.8,36.8,29.96,NW,319,12.0,12.0,100,0.09,,CLR,0.18,VWS V14.01,2013-04-23 18:34:00,
2013-04-23 13:35:00,36.8,36.8,29.96,NW,305,2.0,13.0,100,0.09,,CLR,0.18,VWS V14.01,2013-04-23 18:35:00,
2013-04-23 13:36:00,36.9,36.9,29.96,WNW,301,5.0,13.0,100,0.09,,CLR,0.18,VWS V14.01,2013-04-23 18:36:00,
2013-04-23 13:37:00,36.9,36.9,29.96,WNW,295,1.0,13.0,100,0.09,,CLR,0.18,VWS V14.01,2013-04-23 18:37:00,
2013-04-23 13:38:00,36.9,36.9,29.96,West,270,2.0,13.0,100,0.09,,CLR,0.18,VWS V14.01,2013-04-23 18:38:00,
2013-04-23 13:39:00,36.9,36.9,29.96,West,278,4.0,13.0,100,0.09,,CLR,0.18,VWS V14.01,2013-04-23 18:39:00,
2013-04-23 13:40:00,36.9,36.9,29.96,North,352,3.0,13.0,100,0.09,,CLR,0.18,VWS V14.01,2013-04-23 18:40:00,
2013-04-23 13:41:00,37.0,37.0,29.96,NW,311,0.0,13.0,100,0.09,,CLR,0.18,VWS V14.01,2013-04-23 18:41:00,
2013-04-23 13:42:00,37.0,37.0,29.96,West,281,3.0,13.0,100,0.09,,CLR,0.18,VWS V14.01,2013-04-23 18:42:00,
2013-04-23 13:43:00,37.0,37.0,29.96,West,271,5.0,13.0,100,0.09,,CLR,0.18,VWS V14.01,2013-04-23 18:43:00,
2013-04-23 13:44:00,36.9,36.9,29.96,NW,308,2.0,13.0,100,0.09,,CLR,0.18,VWS V14.01,2013-04-23 18:44:00,
2013-04-23 13:45:00,36.9,36.9,29.95,WNW,283,0.0,13.0,100,0.09,,CLR,0.18,VWS V14.01,2013-04-23 18:45:00,
2013-04-23 13:46:00,36.9,36.9,29.95,West,276,2.0,13.0,100,0.09,,CLR,0.18,VWS V14.01,2013-04-23 18:46:00,
2013-04-23 13:47:00,36.9,36.9,29.95,WNW,290,5.0,14.0,100,0.09,,CLR,0.18,VWS V14.01,2013-04-23 18:47:00,
2013-04-23 13:48:00,36.9,36.9,29.95,WNW,287,3.0,14.0,100,0.09,,CLR,0.18,VWS V14.01,2013-04-23 18:48:00,
2013-04-23 13:49:00,36.9,36.9,29.95,WNW,291,0.0,14.0,100,0.10,,CLR,0.19,VWS V14.01,2013-04-23 18:49:00,
2013-04-23 13:50:00,36.9,36.9,29.95,NW,318,0.0,14.0,100,0.10,,CLR,0.19,VWS V14.01,2013-04-23 18:50:00,
2013-04-23 13:51:00,36.9,36.9,29.95,WNW,295,2.0,14.0,100,0.10,,CLR,0.19,VWS V14.01,2013-04-23 18:51:00,
2013-04-23 13:52:00,37.0,37.0,29.95,West,273,2.0,14.0,100,0.10,,CLR,0.19,VWS V14.01,2013-04-23 18:52:00,
2013-04-23 13:53:00,37.0,37.0,29.95,NW,314,8.0,14.0,100,0.10,,CLR,0.19,VWS V14.01,2013-04-23 18:53:00,
2013-04-23 13:54:00,37.0,37.0,29.95,WNW,300,0.0,14.0,100,0.10,,CLR,0.19,VWS V14.01,2013-04-23 18:54:00,
2013-04-23 13:55:00,37.2,37.2,29.95,WNW,290,0.0,14.0,100,0.10,,CLR,0.19,VWS V14.01,2013-04-23 18:55:00,
2013-04-23 13:56:00,37.2,37.2,29.95,WNW,287,2.0,14.0,100,0.10,,CLR,0.19,VWS V14.01,2013-04-23 18:56:00,
2013-04-23 13:57:00,37.2,37.2,29.95,West,281,1.0,14.0,100,0.10,,CLR,0.19,VWS V14.01,2013-04-23 18:57:00,
2013-04-23 13:58:00,37.2,37.2,29.95,West,271,5.0,14.0,100,0.10,,CLR,0.19,VWS V14.01,2013-04-23 18:58:00,
2013-04-23 13:59:00,37.2,37.2,29.95,WNW,291,2.0,14.0,100,0.10,,CLR,0.19,VWS V14.01,2013-04-23 18:59:00,
2013-04-23 14:00:00,37.3,37.3,29.95,West,270,2.0,14.0,100,0.10,,CLR,0.19,VWS V14.01,2013-04-23 19:00:00,
2013-04-23 14:01:00,37.2,37.2,29.95,West,270,2.0,7.0,100,0.05,,CLR,0.19,VWS V14.01,2013-04-23 19:01:00,
2013-04-23 14:02:00,37.2,37.2,29.95,NNW,328,1.0,7.0,100,0.05,,CLR,0.19,VWS V14.01,2013-04-23 19:02:00,
2013-04-23 14:03:00,37.3,37.3,29.95,West,267,3.0,9.0,100,0.05,,CLR,0.19,VWS V14.01,2013-04-23 19:03:00,
2013-04-23 14:04:00,37.3,37.3,29.95,WNW,290,1.0,9.0,100,0.05,,CLR,0.19,VWS V14.01,2013-04-23 19:04:00,
2013-04-23 14:05:00,37.3,37.3,29.95,WNW,287,4.0,9.0,100,0.05,,CLR,0.19,VWS V14.01,2013-04-23 19:05:00,
2013-04-23 14:06:00,37.3,37.3,29.95,WNW,301,2.0,12.0,100,0.05,,CLR,0.19,VWS V14.01,2013-04-23 19:06:00,
2013-04-23 14:07:00,37.5,37.5,29.95,WNW,301,8.0,12.0,100,0.05,,CLR,0.19,VWS V14.01,2013-04-23 19:07:00,
2013-04-23 14:08:00,37.5,37.5,29.95,WNW,297,1.0,12.0,100,0.05,,CLR,0.19,VWS V14.01,2013-04-23 19:08:00,
2013-04-23 14:09:00,37.6,37.6,29.95,NW,310,5.0,12.0,100,0.06,,CLR,0.20,VWS V14.01,2013-04-23 19:09:00,
2013-04-23 14:10:00,37.8,37.8,29.95,NW,319,7.0,12.0,100,0.06,,CLR,0.20,VWS V14.01,2013-04-23 19:10:00,
2013-04-23 14:11:00,37.8,37.8,29.95,WNW,298,1.0,12.0,100,0.06,,CLR,0.20,VWS V14.01,2013-04-23 19:11:00,
2013-04-23 14:12:00,37.9,37.9,29.95,WNW,301,8.0,12.0,100,0.06,,CLR,0.20,VWS V14.01,2013-04-23 19:12:00,
2013-04-23 14:13:00,38.2,38.2,29.95,NW,310,9.0,13.0,100,0.06,,CLR,0.20,VWS V14.01,2013-04-23 19:13:00,
2013-04-23 14:14:00,38.2,38.2,29.95,West,270,2.0,13.0,100,0.06,,CLR,0.20,VWS V14.01,2013-04-23 19:14:00,
2013-04-23 14:15:00,38.2,38.2,29.94,West,281,3.0,13.0,100,0.06,,CLR,0.20,VWS V14.01,2013-04-23 19:15:00,
2013-04-23 14:16:00,38.2,38.2,29.94,West,270,5.0,13.0,100,0.06,,CLR,0.20,VWS V14.01,2013-04-23 19:16:00,
2013-04-23 14:17:00,38.0,38.0,29.94,West,270,1.0,13.0,100,0.06,,CLR,0.20,VWS V14.01,2013-04-23 19:17:00,
2013-04-23 14:18:00,38.0,38.0,29.94,WNW,295,0.0,13.0,100,0.06,,CLR,0.20,VWS V14.01,2013-04-23 19:18:00,
2013-04-23 14:19:00,38.0,38.0,29.94,West,273,2.0,13.0,100,0.06,,CLR,0.20,VWS V14.01,2013-04-23 19:19:00,
2013-04-23 14:20:00,37.9,37.9,29.94,WNW,284,0.0,13.0,100,0.06,,CLR,0.20,VWS V14.01,2013-04-23 19:20:00,
2013-04-23 14:21:00,37.9,37.9,29.94,NW,307,6.0,13.0,100,0.06,,CLR,0.20,VWS V14.01,2013-04-23 19:21:00,
2013-04-23 14:22:00,37.9,37.9,29.94,WNW,288,3.0,13.0,100,0.06,,CLR,0.20,VWS V14.01,2013-04-23 19:22:00,
2013-04-23 14:23:00,38.0,38.0,29.94,North,3,13.0,14.0,100,0.06,,CLR,0.20,VWS V14.01,2013-04-23 19:23:00,
2013-04-23 14:24:00,38.2,38.2,29.94,West,280,3.0,14.0,100,0.06,,CLR,0.20,VWS V14.01,2013-04-23 19:24:00,
2013-04-23 14:25:00,38.2,38.2,29.94,NW,305,5.0,14.0,100,0.06,,CLR,0.20,VWS V14.01,2013-04-23 19:25:00,
2013-04-23 14:26:00,38.2,38.2,29.94,NW,314,8.0,14.0,100,0.06,,CLR,0.20,VWS V14.01,2013-04-23 19:26:00,
2013-04-23 14:27:00,38.2,38.2,29.94,WNW,298,4.0,14.0,100,0.06,,CLR,0.20,VWS V14.01,2013-04-23 19:27:00,
2013-04-23 14:28:00,38.3,38.3,29.94,NW,305,6.0,14.0,100,0.06,,CLR,0.20,VWS V14.01,2013-04-23 19:28:00,
2013-04-23 14:29:00,38.3,38.3,29.94,WNW,286,3.0,14.0,100,0.06,,CLR,0.20,VWS V14.01,2013-04-23 19:29:00,
2013-04-23 14:30:00,38.2,38.2,29.94,West,273,0.0,14.0,100,0.06,,CLR,0.20,VWS V14.01,2013-04-23 19:30:00,
2013-04-23 14:31:00,38.2,38.2,29.94,West,276,0.0,2.0,100,0.03,,CLR,0.20,VWS V14.01,2013-04-23 19:31:00,
2013-04-23 14:32:00,38.2,38.2,29.94,West,280,2.0,7.0,100,0.03,,CLR,0.20,VWS V14.01,2013-04-23 19:32:00,
2013-04-23 14:33:00,38.2,38.2,29.94,West,280,1.0,7.0,100,0.03,,CLR,0.20,VWS V14.01,2013-04-23 19:33:00,
2013-04-23 14:34:00,38.2,38.2,29.94,West,274,1.0,7.0,100,0.03,,CLR,0.20,VWS V14.01,2013-04-23 19:34:00,
2013-04-23 14:35:00,38.0,38.0,29.94,WNW,293,6.0,7.0,100,0.03,,CLR,0.20,VWS V14.01,2013-04-23 19:35:00,
2013-04-23 14:36:00,38.0,38.0,29.94,NW,310,1.0,7.0,100,0.03,,CLR,0.20,VWS V14.01,2013-04-23 19:36:00,
2013-04-23 14:37:00,38.0,38.0,29.94,NW,307,7.0,11.0,100,0.03,,CLR,0.20,VWS V14.01,2013-04-23 19:37:00,
2013-04-23 14:38:00,38.2,38.2,29.94,NNW,335,6.0,11.0,100,0.03,,CLR,0.20,VWS V14.01,2013-04-23 19:38:00,
2013-04-23 14:39:00,38.3,38.3,29.94,NW,312,1.0,11.0,100,0.04,,CLR,0.21,VWS V14.01,2013-04-23 19:39:00,
2013-04-23 14:40:00,38.5,38.5,29.94,NW,321,7.0,12.0,100,0.04,,CLR,0.21,VWS V14.01,2013-04-23 19:40:00,
2013-04-23 14:41:00,38.6,38.6,29.94,NNW,329,8.0,12.0,100,0.04,,CLR,0.21,VWS V14.01,2013-04-23 19:41:00,
2013-04-23 14:42:00,38.9,38.9,29.94,West,281,3.0,12.0,100,0.04,,CLR,0.21,VWS V14.01,2013-04-23 19:42:00,
2013-04-23 14:43:00,38.9,38.9,29.94,WNW,284,5.0,12.0,100,0.04,,CLR,0.21,VWS V14.01,2013-04-23 19:43:00,
2013-04-23 14:44:00,38.9,38.9,29.94,NW,305,0.0,12.0,100,0.04,,CLR,0.21,VWS V14.01,2013-04-23 19:44:00,
2013-04-23 14:45:00,38.8,38.8,29.94,WNW,290,0.0,12.0,100,0.04,,CLR,0.21,VWS V14.01,2013-04-23 19:45:00,
2013-04-23 14:46:00,38.6,38.6,29.94,West,270,1.0,12.0,100,0.04,,CLR,0.21,VWS V14.01,2013-04-23 19:46:00,
2013-04-23 14:47:00,38.5,38.5,29.94,WNW,294,1.0,12.0,100,0.04,,CLR,0.21,VWS V14.01,2013-04-23 19:47:00,
2013-04-23 14:48:00,38.3,38.3,29.94,NW,312,8.0,12.0,100,0.04,,CLR,0.21,VWS V14.01,2013-04-23 19:48:00,
2013-04-23 14:49:00,38.2,38.2,29.94,NW,311,0.0,12.0,100,0.04,,CLR,0.21,VWS V14.01,2013-04-23 19:49:00,
2013-04-23 14:50:00,38.2,38.2,29.94,WNW,298,1.0,12.0,100,0.04,,CLR,0.21,VWS V14.01,2013-04-23 19:50:00,
2013-04-23 14:51:00,38.2,38.2,29.94,WNW,291,6.0,12.0,100,0.04,,CLR,0.21,VWS V14.01,2013-04-23 19:51:00,
2013-04-23 14:52:00,38.3,38.3,29.94,NW,318,5.0,12.0,100,0.04,,CLR,0.21,VWS V14.01,2013-04-23 19:52:00,
2013-04-23 14:53:00,38.3,38.3,29.94,West,270,1.0,12.0,100,0.04,,CLR,0.21,VWS V14.01,2013-04-23 19:53:00,
2013-04-23 14:54:00,38.5,38.5,29.94,NW,308,4.0,12.0,100,0.04,,CLR,0.21,VWS V14.01,2013-04-23 19:54:00,
2013-04-23 14:55:00,38.5,38.5,29.94,WNW,301,5.0,12.0,100,0.04,,CLR,0.21,VWS V14.01,2013-04-23 19:55:00,
2013-04-23 14:56:00,38.6,38.6,29.94,NW,304,1.0,12.0,100,0.04,,CLR,0.21,VWS V14.01,2013-04-23 19:56:00,
2013-04-23 14:57:00,38.8,38.8,29.94,West,273,2.0,12.0,100,0.04,,CLR,0.21,VWS V14.01,2013-04-23 19:57:00,
2013-04-23 14:58:00,38.8,38.8,29.94,WNW,283,2.0,12.0,100,0.04,,CLR,0.21,VWS V14.01,2013-04-23 19:58:00,
2013-04-23 14:59:00,38.8,38.8,29.94,West,269,3.0,12.0,100,0.04,,CLR,0.21,VWS V14.01,2013-04-23 19:59:00,
2013-04-23 15:00:00,38.5,38.5,29.94,NW,326,7.0,12.0,100,0.04,,CLR,0.21,VWS V14.01,2013-04-23 20:00:00,
2013-04-23 15:01:00,38.5,38.5,29.94,West,280,1.0,6.0,100,0.02,,CLR,0.21,VWS V14.01,2013-04-23 20:01:00,
2013-04-23 15:02:00,38.3,38.3,29.94,NW,315,5.0,8.0,100,0.02,,CLR,0.21,VWS V14.01,2013-04-23 20:02:00,
2013-04-23 15:03:00,38.3,38.3,29.94,NNW,336,9.0,9.0,100,0.02,,CLR,0.21,VWS V14.01,2013-04-23 20:03:00,
2013-04-23 15:04:00,38.3,38.3,29.94,WNW,291,6.0,9.0,100,0.02,,CLR,0.21,VWS V14.01,2013-04-23 20:04:00,
2013-04-23 15:05:00,38.3,38.3,29.94,West,278,1.0,9.0,100,0.02,,CLR,0.21,VWS V14.01,2013-04-23 20:05:00,
2013-04-23 15:06:00,38.3,38.3,29.94,WNW,287,2.0,9.0,100,0.02,,CLR,0.21,VWS V14.01,2013-04-23 20:06:00,
2013-04-23 15:07:00,38.3,38.3,29.94,WNW,300,6.0,9.0,100,0.02,,CLR,0.21,VWS V14.01,2013-04-23 20:07:00,
2013-04-23 15:08:00,38.3,38.3,29.94,NW,317,7.0,12.0,100,0.02,,CLR,0.21,VWS V14.01,2013-04-23 20:08:00,
2013-04-23 15:09:00,38.3,38.3,29.94,WNW,283,5.0,12.0,100,0.02,,CLR,0.21,VWS V14.01,2013-04-23 20:09:00,
2013-04-23 15:10:00,38.3,38.3,29.94,WNW,284,4.0,12.0,100,0.02,,CLR,0.21,VWS V14.01,2013-04-23 20:10:00,
2013-04-23 15:11:00,38.3,38.3,29.94,WNW,287,2.0,12.0,100,0.02,,CLR,0.21,VWS V14.01,2013-04-23 20:11:00,
2013-04-23 15:12:00,38.3,38.3,29.94,West,277,1.0,12.0,100,0.02,,CLR,0.21,VWS V14.01,2013-04-23 20:12:00,
2013-04-23 15:13:00,38.3,38.3,29.94,WNW,294,0.0,12.0,100,0.02,,CLR,0.21,VWS V14.01,2013-04-23 20:13:00,
2013-04-23 15:14:00,38.3,38.3,29.94,North,349,9.0,12.0,100,0.02,,CLR,0.21,VWS V14.01,2013-04-23 20:14:00,
2013-04-23 15:15:00,38.5,38.5,29.94,North,355,8.0,12.0,100,0.02,,CLR,0.21,VWS V14.01,2013-04-23 20:15:00,
2013-04-23 15:16:00,38.6,38.6,29.94,WNW,293,1.0,12.0,100,0.02,,CLR,0.21,VWS V14.01,2013-04-23 20:16:00,
2013-04-23 15:17:00,38.6,38.6,29.94,NW,325,5.0,12.0,100,0.02,,CLR,0.21,VWS V14.01,2013-04-23 20:17:00,
2013-04-23 15:18:00,38.8,38.8,29.94,NW,326,1.0,12.0,100,0.02,,CLR,0.21,VWS V14.01,2013-04-23 20:18:00,
2013-04-23 15:19:00,38.9,38.9,29.94,NNW,328,10.0,12.0,100,0.02,,CLR,0.21,VWS V14.01,2013-04-23 20:19:00,
2013-04-23 15:20:00,39.1,39.1,29.94,West,271,1.0,12.0,100,0.02,,CLR,0.21,VWS V14.01,2013-04-23 20:20:00,
2013-04-23 15:21:00,39.1,39.1,29.94,WNW,286,5.0,12.0,100,0.02,,CLR,0.21,VWS V14.01,2013-04-23 20:21:00,
2013-04-23 15:22:00,39.1,39.1,29.94,WNW,295,1.0,12.0,100,0.02,,CLR,0.21,VWS V14.01,2013-04-23 20:22:00,
2013-04-23 15:23:00,38.9,38.9,29.94,WNW,283,5.0,12.0,100,0.02,,CLR,0.21,VWS V14.01,2013-04-23 20:23:00,
2013-04-23 15:24:00,38.9,38.9,29.94,WNW,283,6.0,12.0,100,0.02,,CLR,0.21,VWS V14.01,2013-04-23 20:24:00,
2013-04-23 15:25:00,38.6,38.6,29.94,WNW,283,2.0,12.0,100,0.02,,CLR,0.21,VWS V14.01,2013-04-23 20:25:00,
2013-04-23 15:26:00,38.5,38.5,29.94,West,277,1.0,12.0,100,0.02,,CLR,0.21,VWS V14.01,2013-04-23 20:26:00,
2013-04-23 15:27:00,38.3,38.3,29.94,WNW,291,4.0,12.0,100,0.02,,CLR,0.21,VWS V14.01,2013-04-23 20:27:00,
2013-04-23 15:28:00,38.3,38.3,29.94,WNW,284,5.0,12.0,100,0.02,,CLR,0.21,VWS V14.01,2013-04-23 20:28:00,
2013-04-23 15:29:00,38.3,38.3,29.94,West,270,2.0,12.0,100,0.02,,CLR,0.21,VWS V14.01,2013-04-23 20:29:00,
2013-04-23 15:30:00,38.3,38.3,29.93,West,270,0.0,12.0,100,0.02,,CLR,0.21,VWS V14.01,2013-04-23 20:30:00,
2013-04-23 15:31:00,38.3,38.3,29.93,West,276,1.0,6.0,100,0.01,,CLR,0.21,VWS V14.01,2013-04-23 20:31:00,
2013-04-23 15:32:00,38.3,38.3,29.93,West,271,1.0,6.0,100,0.01,,CLR,0.21,VWS V14.01,2013-04-23 20:32:00,
2013-04-23 15:33:00,38.2,38.2,29.93,WNW,291,0.0,6.0,100,0.01,,CLR,0.21,VWS V14.01,2013-04-23 20:33:00,
2013-04-23 15:34:00,38.2,38.2,29.93,NW,321,3.0,6.0,100,0.01,,CLR,0.21,VWS V14.01,2013-04-23 20:34:00,
2013-04-23 15:35:00,38.2,38.2,29.93,West,281,2.0,6.0,100,0.01,,CLR,0.21,VWS V14.01,2013-04-23 20:35:00,
2013-04-23 15:36:00,38.2,38.2,29.93,WNW,288,0.0,6.0,100,0.01,,CLR,0.21,VWS V14.01,2013-04-23 20:36:00,
2013-04-23 15:37:00,38.2,38.2,29.93,WNW,286,1.0,6.0,100,0.01,,CLR,0.21,VWS V14.01,2013-04-23 20:37:00,
2013-04-23 15:38:00,38.2,38.2,29.93,WNW,302,1.0,6.0,100,0.01,,CLR,0.21,VWS V14.01,2013-04-23 20:38:00,
2013-04-23 15:39:00,38.3,38.3,29.93,WNW,302,3.0,6.0,100,0.01,,CLR,0.21,VWS V14.01,2013-04-23 20:39:00,
2013-04-23 15:40:00,38.3,38.3,29.93,NW,315,10.0,10.0,100,0.01,,CLR,0.21,VWS V14.01,2013-04-23 20:40:00,
2013-04-23 15:41:00,38.3,38.3,29.93,NW,325,5.0,10.0,100,0.01,,CLR,0.21,VWS V14.01,2013-04-23 20:41:00,
2013-04-23 15:42:00,38.3,38.3,29.93,WNW,301,6.0,10.0,100,0.01,,CLR,0.21,VWS V14.01,2013-04-23 20:42:00,
2013-04-23 15:43:00,38.5,38.5,29.93,NW,312,6.0,11.0,100,0.01,,CLR,0.21,VWS V14.01,2013-04-23 20:43:00,
2013-04-23 15:44:00,38.6,38.6,29.93,WNW,300,6.0,12.0,100,0.01,,CLR,0.21,VWS V14.01,2013-04-23 20:44:00,
2013-04-23 15:45:00,38.6,38.6,29.93,West,281,2.0,12.0,100,0.01,,CLR,0.21,VWS V14.01,2013-04-23 20:45:00,
2013-04-23 15:46:00,38.6,38.6,29.93,NNW,341,4.0,12.0,100,0.01,,CLR,0.21,VWS V14.01,2013-04-23 20:46:00,
2013-04-23 15:47:00,38.8,38.8,29.93,WNW,287,7.0,12.0,100,0.01,,CLR,0.21,VWS V14.01,2013-04-23 20:47:00,
2013-04-23 15:48:00,38.8,38.8,29.93,NW,310,5.0,12.0,100,0.01,,CLR,0.21,VWS V14.01,2013-04-23 20:48:00,
2013-04-23 15:49:00,38.8,38.8,29.93,WNW,294,5.0,12.0,100,0.01,,CLR,0.21,VWS V14.01,2013-04-23 20:49:00,
2013-04-23 15:50:00,38.9,38.9,29.93,WNW,286,2.0,12.0,100,0.01,,CLR,0.21,VWS V14.01,2013-04-23 20:50:00,
2013-04-23 15:51:00,38.8,38.8,29.93,NW,312,10.0,12.0,100,0.01,,CLR,0.21,VWS V14.01,2013-04-23 20:51:00,
2013-04-23 15:52:00,38.6,38.6,29.93,WNW,290,6.0,12.0,100,0.01,,CLR,0.21,VWS V14.01,2013-04-23 20:52:00,
2013-04-23 15:53:00,38.5,38.5,29.93,NW,315,13.0,13.0,100,0.01,,CLR,0.21,VWS V14.01,2013-04-23 20:53:00,
2013-04-23 15:54:00,38.8,38.8,29.93,WNW,288,2.0,13.0,100,0.01,,CLR,0.21,VWS V14.01,2013-04-23 20:54:00,
2013-04-23 15:55:00,38.8,38.8,29.93,WNW,297,2.0,13.0,100,0.01,,CLR,0.21,VWS V14.01,2013-04-23 20:55:00,
2013-04-23 15:56:00,38.6,38.6,29.93,WNW,300,1.0,13.0,100,0.01,,CLR,0.21,VWS V14.01,2013-04-23 20:56:00,
2013-04-23 15:57:00,38.6,38.6,29.93,West,270,0.0,13.0,100,0.01,,CLR,0.21,VWS V14.01,2013-04-23 20:57:00,
2013-04-23 15:58:00,38.5,38.5,29.93,WNW,286,1.0,13.0,100,0.01,,CLR,0.21,VWS V14.01,2013-04-23 20:58:00,
2013-04-23 15:59:00,38.5,38.5,29.93,WNW,291,6.0,13.0,100,0.01,,CLR,0.21,VWS V14.01,2013-04-23 20:59:00,
2013-04-23 16:00:00,38.5,38.5,29.93,NW,315,0.0,13.0,100,0.01,,CLR,0.21,VWS V14.01,2013-04-23 21:00:00,
2013-04-23 16:01:00,38.5,38.5,29.93,West,271,6.0,6.0,100,0.00,,CLR,0.21,VWS V14.01,2013-04-23 21:01:00,
2013-04-23 16:02:00,38.5,38.5,29.93,WNW,302,6.0,6.0,100,0.00,,CLR,0.21,VWS V14.01,2013-04-23 21:02:00,
2013-04-23 16:03:00,38.6,38.6,29.93,WNW,300,0.0,8.0,100,0.00,,CLR,0.21,VWS V14.01,2013-04-23 21:03:00,
2013-04-23 16:04:00,38.8,38.8,29.93,WNW,284,3.0,8.0,100,0.00,,CLR,0.21,VWS V14.01,2013-04-23 21:04:00,
2013-04-23 16:05:00,38.8,38.8,29.93,NW,305,1.0,8.0,100,0.00,,CLR,0.21,VWS V14.01,2013-04-23 21:05:00,
2013-04-23 16:06:00,38.9,38.9,29.93,NW,322,7.0,8.0,100,0.00,,CLR,0.21,VWS V14.01,2013-04-23 21:06:00,
2013-04-23 16:07:00,39.2,39.2,29.93,WNW,297,0.0,8.0,100,0.00,,CLR,0.21,VWS V14.01,2013-04-23 21:07:00,
2013-04-23 16:08:00,39.3,39.3,29.93,WNW,288,1.0,8.0,100,0.00,,CLR,0.21,VWS V14.01,2013-04-23 21:08:00,
2013-04-23 16:09:00,39.3,39.3,29.93,WNW,284,2.0,8.0,100,0.00,,CLR,0.21,VWS V14.01,2013-04-23 21:09:00,
2013-04-23 16:10:00,39.2,39.2,29.93,West,267,1.0,8.0,100,0.00,,CLR,0.21,VWS V14.01,2013-04-23 21:10:00,
2013-04-23 16:11:00,39.2,39.2,29.93,West,278,5.0,8.0,100,0.00,,CLR,0.21,VWS V14.01,2013-04-23 21:11:00,
2013-04-23 16:12:00,39.1,39.1,29.93,WNW,287,3.0,8.0,100,0.00,,CLR,0.21,VWS V14.01,2013-04-23 21:12:00,
2013-04-23 16:13:00,39.1,39.1,29.93,West,269,2.0,8.0,100,0.00,,CLR,0.21,VWS V14.01,2013-04-23 21:13:00,
2013-04-23 16:14:00,38.9,38.9,29.93,West,270,1.0,8.0,100,0.00,,CLR,0.21,VWS V14.01,2013-04-23 21:14:00,
2013-04-23 16:15:00,38.9,38.9,29.93,West,276,1.0,8.0,100,0.00,,CLR,0.21,VWS V14.01,2013-04-23 21:15:00,
2013-04-23 16:16:00,39.1,39.1,29.93,NNW,331,8.0,8.0,100,0.00,,CLR,0.21,VWS V14.01,2013-04-23 21:16:00,
2013-04-23 16:17:00,39.5,39.5,29.93,NW,315,2.0,8.0,100,0.00,,CLR,0.21,VWS V14.01,2013-04-23 21:17:00,
2013-04-23 16:18:00,39.6,39.6,29.93,NNW,332,0.0,8.0,100,0.00,,CLR,0.21,VWS V14.01,2013-04-23 21:18:00,
2013-04-23 16:19:00,39.9,39.9,29.93,NW,311,9.0,12.0,100,0.00,,CLR,0.21,VWS V14.01,2013-04-23 21:19:00,
2013-04-23 16:20:00,39.9,39.9,29.93,NW,322,2.0,13.0,100,0.00,,CLR,0.21,VWS V14.01,2013-04-23 21:20:00,
2013-04-23 16:21:00,40.1,40.1,29.93,NW,307,8.0,13.0,100,0.00,,CLR,0.21,VWS V14.01,2013-04-23 21:21:00,
2013-04-23 16:22:00,40.1,40.1,29.93,NW,315,0.0,13.0,100,0.00,,CLR,0.21,VWS V14.01,2013-04-23 21:22:00,
2013-04-23 16:23:00,39.9,39.9,29.93,NW,305,5.0,13.0,100,0.00,,CLR,0.21,VWS V14.01,2013-04-23 21:23:00,
2013-04-23 16:24:00,39.8,39.8,29.93,WNW,293,1.0,13.0,100,0.00,,CLR,0.21,VWS V14.01,2013-04-23 21:24:00,
2013-04-23 16:25:00,39.6,39.6,29.93,NW,310,2.0,13.0,100,0.00,,CLR,0.21,VWS V14.01,2013-04-23 21:25:00,
2013-04-23 16:26:00,39.5,39.5,29.93,West,271,5.0,13.0,100,0.00,,CLR,0.21,VWS V14.01,2013-04-23 21:26:00,
2013-04-23 16:27:00,39.3,39.3,29.93,West,276,2.0,13.0,100,0.00,,CLR,0.21,VWS V14.01,2013-04-23 21:27:00,
2013-04-23 16:28:00,39.3,39.3,29.93,WNW,286,2.0,13.0,100,0.00,,CLR,0.21,VWS V14.01,2013-04-23 21:28:00,
2013-04-23 16:29:00,39.3,39.3,29.93,NW,310,1.0,13.0,100,0.00,,CLR,0.21,VWS V14.01,2013-04-23 21:29:00,
2013-04-23 16:30:00,39.5,39.5,29.93,NW,319,1.0,13.0,100,0.00,,CLR,0.21,VWS V14.01,2013-04-23 21:30:00,
2013-04-23 16:31:00,39.5,39.5,29.93,West,278,0.0,5.0,100,0.00,,CLR,0.21,VWS V14.01,2013-04-23 21:31:00,
2013-04-23 16:32:00,39.5,39.5,29.93,West,270,2.0,5.0,100,0.00,,CLR,0.21,VWS V14.01,2013-04-23 21:32:00,
2013-04-23 16:33:00,39.3,39.3,29.93,WNW,297,2.0,5.0,100,0.00,,CLR,0.21,VWS V14.01,2013-04-23 21:33:00,
2013-04-23 16:34:00,39.6,39.6,29.93,NW,321,0.0,13.0,100,0.00,,CLR,0.21,VWS V14.01,2013-04-23 21:34:00,
2013-04-23 16:35:00,39.9,39.9,29.93,NW,321,1.0,13.0,100,0.00,,CLR,0.21,VWS V14.01,2013-04-23 21:35:00,
2013-04-23 16:36:00,39.9,39.9,29.93,NW,325,11.0,13.0,100,0.00,,CLR,0.21,VWS V14.01,2013-04-23 21:36:00,
2013-04-23 16:37:00,40.1,40.1,29.93,North,349,6.0,13.0,100,0.00,,CLR,0.21,VWS V14.01,2013-04-23 21:37:00,
2013-04-23 16:38:00,40.3,40.3,29.93,West,270,1.0,13.0,100,0.00,,CLR,0.21,VWS V14.01,2013-04-23 21:38:00,
2013-04-23 16:39:00,40.1,40.1,29.93,West,276,0.0,13.0,100,0.00,,CLR,0.21,VWS V14.01,2013-04-23 21:39:00,
2013-04-23 16:40:00,40.1,40.1,29.93,NW,304,0.0,13.0,100,0.00,,CLR,0.21,VWS V14.01,2013-04-23 21:40:00,
2013-04-23 16:41:00,40.1,40.1,29.93,WNW,298,0.0,13.0,100,0.00,,CLR,0.21,VWS V14.01,2013-04-23 21:41:00,
2013-04-23 16:42:00,39.9,39.9,29.93,West,276,1.0,13.0,100,0.00,,CLR,0.21,VWS V14.01,2013-04-23 21:42:00,
2013-04-23 16:43:00,39.8,39.8,29.93,WNW,283,1.0,13.0,100,0.00,,CLR,0.21,VWS V14.01,2013-04-23 21:43:00,
2013-04-23 16:44:00,39.5,39.5,29.93,West,270,4.0,13.0,100,0.00,,CLR,0.21,VWS V14.01,2013-04-23 21:44:00,
2013-04-23 16:45:00,39.3,39.3,29.93,WNW,290,3.0,13.0,100,0.00,,CLR,0.21,VWS V14.01,2013-04-23 21:45:00,
2013-04-23 16:46:00,39.2,39.2,29.93,West,278,0.0,13.0,100,0.00,,CLR,0.21,VWS V14.01,2013-04-23 21:46:00,
2013-04-23 16:47:00,39.1,39.1,29.93,West,270,3.0,13.0,100,0.00,,CLR,0.21,VWS V14.01,2013-04-23 21:47:00,
2013-04-23 16:48:00,38.9,38.9,29.93,WNW,286,3.0,13.0,100,0.00,,CLR,0.21,VWS V14.01,2013-04-23 21:48:00,
2013-04-23 16:49:00,39.1,39.1,29.93,WNW,290,0.0,13.0,100,0.00,,CLR,0.21,VWS V14.01,2013-04-23 21:49:00,
2013-04-23 16:50:00,39.1,39.1,29.93,WNW,293,4.0,13.0,100,0.00,,CLR,0.21,VWS V14.01,2013-04-23 21:50:00,
2013-04-23 16:51:00,38.9,38.9,29.93,WNW,302,6.0,13.0,100,0.00,,CLR,0.21,VWS V14.01,2013-04-23 21:51:00,
2013-04-23 16:52:00,38.9,38.9,29.93,WNW,284,10.0,13.0,100,0.00,,CLR,0.21,VWS V14.01,2013-04-23 21:52:00,
2013-04-23 16:53:00,38.9,38.9,29.93,NW,319,8.0,14.0,100,0.00,,CLR,0.21,VWS V14.01,2013-04-23 21:53:00,
2013-04-23 16:54:00,38.9,38.9,29.93,NW,308,12.0,14.0,100,0.00,,CLR,0.21,VWS V14.01,2013-04-23 21:54:00,
2013-04-23 16:55:00,39.1,39.1,29.93,West,277,2.0,14.0,100,0.00,,CLR,0.21,VWS V14.01,2013-04-23 21:55:00,
2013-04-23 16:56:00,39.1,39.1,29.93,West,273,1.0,14.0,100,0.00,,CLR,0.21,VWS V14.01,2013-04-23 21:56:00,
2013-04-23 16:57:00,38.9,38.9,29.93,WNW,298,6.0,14.0,100,0.00,,CLR,0.21,VWS V14.01,2013-04-23 21:57:00,
2013-04-23 16:58:00,38.9,38.9,29.93,West,274,1.0,14.0,100,0.00,,CLR,0.21,VWS V14.01,2013-04-23 21:58:00,
2013-04-23 16:59:00,38.9,38.9,29.93,West,269,0.0,14.0,100,0.00,,CLR,0.21,VWS V14.01,2013-04-23 21:59:00,
2013-04-23 17:00:00,38.8,38.8,29.92,West,273,2.0,14.0,100,0.00,,CLR,0.21,VWS V14.01,2013-04-23 22:00:00,
2013-04-23 17:01:00,38.8,38.8,29.92,WNW,291,2.0,6.0,100,0.00,,CLR,0.21,VWS V14.01,2013-04-23 22:01:00,
2013-04-23 17:02:00,38.8,38.8,29.92,WNW,295,8.0,8.0,100,0.00,,CLR,0.21,VWS V14.01,2013-04-23 22:02:00,
2013-04-23 17:03:00,38.9,38.9,29.92,WNW,288,3.0,8.0,100,0.00,,CLR,0.21,VWS V14.01,2013-04-23 22:03:00,
2013-04-23 17:04:00,38.9,38.9,29.92,West,274,7.0,12.0,100,0.00,,CLR,0.21,VWS V14.01,2013-04-23 22:04:00,
2013-04-23 17:05:00,39.1,39.1,29.92,WNW,290,2.0,12.0,100,0.00,,CLR,0.21,VWS V14.01,2013-04-23 22:05:00,
2013-04-23 17:06:00,38.9,38.9,29.92,WNW,283,0.0,12.0,100,0.00,,CLR,0.21,VWS V14.01,2013-04-23 22:06:00,
2013-04-23 17:07:00,38.9,38.9,29.92,WNW,298,1.0,12.0,100,0.00,,CLR,0.21,VWS V14.01,2013-04-23 22:07:00,
2013-04-23 17:08:00,39.1,39.1,29.92,WNW,287,1.0,12.0,100,0.00,,CLR,0.21,VWS V14.01,2013-04-23 22:08:00,
2013-04-23 17:09:00,39.1,39.1,29.92,WNW,294,1.0,12.0,100,0.00,,CLR,0.21,VWS V14.01,2013-04-23 22:09:00,
2013-04-23 17:10:00,39.1,39.1,29.92,West,276,1.0,12.0,100,0.00,,CLR,0.21,VWS V14.01,2013-04-23 22:10:00,
2013-04-23 17:11:00,39.1,39.1,29.92,West,276,5.0,12.0,100,0.00,,CLR,0.21,VWS V14.01,2013-04-23 22:11:00,
2013-04-23 17:12:00,39.1,39.1,29.92,WNW,290,1.0,12.0,100,0.00,,CLR,0.21,VWS V14.01,2013-04-23 22:12:00,
2013-04-23 17:13:00,39.1,39.1,29.92,WNW,291,3.0,12.0,100,0.00,,CLR,0.21,VWS V14.01,2013-04-23 22:13:00,
2013-04-23 17:14:00,39.1,39.1,29.92,NW,308,11.0,12.0,100,0.00,,CLR,0.21,VWS V14.01,2013-04-23 22:14:00,
2013-04-23 17:15:00,39.2,39.2,29.93,West,280,2.0,12.0,100,0.00,,CLR,0.21,VWS V14.01,2013-04-23 22:15:00,
2013-04-23 17:16:00,39.1,39.1,29.93,WNW,293,3.0,12.0,100,0.00,,CLR,0.21,VWS V14.01,2013-04-23 22:16:00,
2013-04-23 17:17:00,39.1,39.1,29.93,NW,314,2.0,12.0,100,0.00,,CLR,0.21,VWS V14.01,2013-04-23 22:17:00,
2013-04-23 17:18:00,39.1,39.1,29.93,NW,305,2.0,12.0,100,0.00,,CLR,0.21,VWS V14.01,2013-04-23 22:18:00,
2013-04-23 17:19:00,38.9,38.9,29.93,NW,319,9.0,12.0,100,0.00,,CLR,0.21,VWS V14.01,2013-04-23 22:19:00,
2013-04-23 17:20:00,39.1,39.1,29.93,NW,315,3.0,12.0,100,0.00,,CLR,0.21,VWS V14.01,2013-04-23 22:20:00,
2013-04-23 17:21:00,39.1,39.1,29.93,WNW,286,2.0,12.0,100,0.00,,CLR,0.21,VWS V14.01,2013-04-23 22:21:00,
2013-04-23 17:22:00,39.1,39.1,29.93,West,270,6.0,12.0,100,0.00,,CLR,0.21,VWS V14.01,2013-04-23 22:22:00,
2013-04-23 17:23:00,39.1,39.1,29.93,NW,307,6.0,12.0,100,0.00,,CLR,0.21,VWS V14.01,2013-04-23 22:23:00,
2013-04-23 17:24:00,39.2,39.2,29.93,WNW,300,1.0,12.0,100,0.00,,CLR,0.21,VWS V14.01,2013-04-23 22:24:00,
2013-04-23 17:25:00,39.2,39.2,29.93,West,271,1.0,12.0,100,0.00,,CLR,0.21,VWS V14.01,2013-04-23 22:25:00,
2013-04-23 17:26:00,39.1,39.1,29.93,West,274,2.0,12.0,100,0.00,,CLR,0.21,VWS V14.01,2013-04-23 22:26:00,
2013-04-23 17:27:00,38.9,38.9,29.93,West,273,2.0,12.0,100,0.00,,CLR,0.21,VWS V14.01,2013-04-23 22:27:00,
2013-04-23 17:28:00,38.9,38.9,29.93,WNW,287,0.0,12.0,100,0.00,,CLR,0.21,VWS V14.01,2013-04-23 22:28:00,
2013-04-23 17:29:00,38.9,38.9,29.93,WNW,291,2.0,12.0,100,0.00,,CLR,0.21,VWS V14.01,2013-04-23 22:29:00,
2013-04-23 17:30:00,39.1,39.1,29.92,NW,310,3.0,13.0,100,0.00,,CLR,0.21,VWS V14.01,2013-04-23 22:30:00,
2013-04-23 17:31:00,39.1,39.1,29.92,NW,308,12.0,12.0,100,0.00,,CLR,0.21,VWS V14.01,2013-04-23 22:31:00,
2013-04-23 17:32:00,39.3,39.3,29.92,NW,325,8.0,14.0,100,0.00,,CLR,0.21,VWS V14.01,2013-04-23 22:32:00,
2013-04-23 17:33:00,39.5,39.5,29.92,West,269,0.0,14.0,100,0.00,,CLR,0.21,VWS V14.01,2013-04-23 22:33:00,
2013-04-23 17:34:00,39.3,39.3,29.92,WNW,286,1.0,14.0,100,0.00,,CLR,0.21,VWS V14.01,2013-04-23 22:34:00,
2013-04-23 17:35:00,39.2,39.2,29.92,West,278,5.0,14.0,100,0.00,,CLR,0.21,VWS V14.01,2013-04-23 22:35:00,
2013-04-23 17:36:00,39.1,39.1,29.92,West,270,0.0,14.0,100,0.00,,CLR,0.21,VWS V14.01,2013-04-23 22:36:00,
2013-04-23 17:37:00,38.9,38.9,29.92,West,276,0.0,14.0,100,0.00,,CLR,0.21,VWS V14.01,2013-04-23 22:37:00,
2013-04-23 17:38:00,38.8,38.8,29.92,West,270,1.0,14.0,100,0.00,,CLR,0.21,VWS V14.01,2013-04-23 22:38:00,
2013-04-23 17:39:00,38.8,38.8,29.92,NW,311,10.0,14.0,100,0.00,,CLR,0.21,VWS V14.01,2013-04-23 22:39:00,
2013-04-23 17:40:00,38.8,38.8,29.92,WNW,302,7.0,14.0,100,0.00,,CLR,0.21,VWS V14.01,2013-04-23 22:40:00,
2013-04-23 17:41:00,38.9,38.9,29.92,WNW,293,3.0,14.0,100,0.00,,CLR,0.21,VWS V14.01,2013-04-23 22:41:00,
2013-04-23 17:42:00,38.9,38.9,29.92,WNW,291,0.0,14.0,100,0.00,,CLR,0.21,VWS V14.01,2013-04-23 22:42:00,
2013-04-23 17:43:00,38.8,38.8,29.92,West,273,1.0,14.0,100,0.00,,CLR,0.21,VWS V14.01,2013-04-23 22:43:00,
2013-04-23 17:44:00,38.8,38.8,29.92,WNW,286,1.0,14.0,100,0.00,,CLR,0.21,VWS V14.01,2013-04-23 22:44:00,
2013-04-23 17:45:00,38.8,38.8,29.92,WNW,290,0.0,14.0,100,0.00,,CLR,0.21,VWS V14.01,2013-04-23 22:45:00,
2013-04-23 17:46:00,38.6,38.6,29.92,West,276,6.0,14.0,100,0.00,,CLR,0.21,VWS V14.01,2013-04-23 22:46:00,
2013-04-23 17:47:00,38.6,38.6,29.92,West,281,0.0,14.0,100,0.00,,CLR,0.21,VWS V14.01,2013-04-23 22:47:00,
2013-04-23 17:48:00,38.5,38.5,29.92,West,271,1.0,14.0,100,0.00,,CLR,0.21,VWS V14.01,2013-04-23 22:48:00,
2013-04-23 17:49:00,38.6,38.6,29.92,WNW,294,0.0,14.0,100,0.00,,CLR,0.21,VWS V14.01,2013-04-23 22:49:00,
2013-04-23 17:50:00,38.6,38.6,29.92,West,270,3.0,14.0,100,0.00,,CLR,0.21,VWS V14.01,2013-04-23 22:50:00,
2013-04-23 17:51:00,38.6,38.6,29.92,WNW,288,0.0,14.0,100,0.00,,CLR,0.21,VWS V14.01,2013-04-23 22:51:00,
2013-04-23 17:52:00,38.6,38.6,29.92,WNW,288,0.0,14.0,100,0.00,,CLR,0.21,VWS V14.01,2013-04-23 22:52:00,
2013-04-23 17:53:00,38.8,38.8,29.92,NW,317,4.0,14.0,100,0.00,,CLR,0.21,VWS V14.01,2013-04-23 22:53:00,
2013-04-23 17:54:00,38.8,38.8,29.92,NW,312,1.0,14.0,100,0.00,,CLR,0.21,VWS V14.01,2013-04-23 22:54:00,
2013-04-23 17:55:00,39.1,39.1,29.92,West,270,0.0,14.0,100,0.00,,CLR,0.21,VWS V14.01,2013-04-23 22:55:00,
2013-04-23 17:56:00,38.9,38.9,29.92,West,281,5.0,14.0,100,0.00,,CLR,0.21,VWS V14.01,2013-04-23 22:56:00,
2013-04-23 17:57:00,38.9,38.9,29.92,WNW,298,1.0,14.0,100,0.00,,CLR,0.21,VWS V14.01,2013-04-23 22:57:00,
2013-04-23 17:58:00,38.8,38.8,29.92,West,280,1.0,14.0,100,0.00,,CLR,0.21,VWS V14.01,2013-04-23 22:58:00,
2013-04-23 17:59:00,38.8,38.8,29.92,NW,308,0.0,14.0,100,0.00,,CLR,0.21,VWS V14.01,2013-04-23 22:59:00,
2013-04-23 18:00:00,38.8,38.8,29.92,West,276,0.0,14.0,100,0.00,,CLR,0.21,VWS V14.01,2013-04-23 23:00:00,
2013-04-23 18:01:00,38.8,38.8,29.92,NW,314,7.0,7.0,100,0.00,,CLR,0.21,VWS V14.01,2013-04-23 23:01:00,
2013-04-23 18:02:00,38.8,38.8,29.92,WNW,302,1.0,7.0,100,0.00,,CLR,0.21,VWS V14.01,2013-04-23 23:02:00,
2013-04-23 18:03:00,38.8,38.8,29.92,NW,315,5.0,7.0,100,0.00,,CLR,0.21,VWS V14.01,2013-04-23 23:03:00,
2013-04-23 18:04:00,38.6,38.6,29.92,NW,307,2.0,12.0,100,0.00,,CLR,0.21,VWS V14.01,2013-04-23 23:04:00,
2013-04-23 18:05:00,38.8,38.8,29.92,NW,307,6.0,12.0,100,0.00,,CLR,0.21,VWS V14.01,2013-04-23 23:05:00,
2013-04-23 18:06:00,38.9,38.9,29.92,NW,317,3.0,12.0,100,0.00,,CLR,0.21,VWS V14.01,2013-04-23 23:06:00,
2013-04-23 18:07:00,38.9,38.9,29.92,WNW,302,6.0,12.0,100,0.00,,CLR,0.21,VWS V14.01,2013-04-23 23:07:00,
2013-04-23 18:08:00,38.9,38.9,29.92,NNW,336,3.0,12.0,100,0.00,,CLR,0.21,VWS V14.01,2013-04-23 23:08:00,
2013-04-23 18:09:00,38.9,38.9,29.92,WNW,290,6.0,12.0,100,0.00,,CLR,0.21,VWS V14.01,2013-04-23 23:09:00,
2013-04-23 18:10:00,38.8,38.8,29.92,NNW,328,8.0,12.0,100,0.00,,CLR,0.21,VWS V14.01,2013-04-23 23:10:00,
2013-04-23 18:11:00,38.9,38.9,29.92,NW,318,5.0,12.0,100,0.00,,CLR,0.21,VWS V14.01,2013-04-23 23:11:00,
2013-04-23 18:12:00,38.9,38.9,29.92,WNW,297,2.0,12.0,100,0.00,,CLR,0.21,VWS V14.01,2013-04-23 23:12:00,
2013-04-23 18:13:00,38.9,38.9,29.92,WNW,298,2.0,12.0,100,0.00,,CLR,0.21,VWS V14.01,2013-04-23 23:13:00,
2013-04-23 18:14:00,38.8,38.8,29.92,WNW,286,3.0,12.0,100,0.00,,CLR,0.21,VWS V14.01,2013-04-23 23:14:00,
2013-04-23 18:15:00,38.8,38.8,29.92,WNW,288,2.0,12.0,100,0.00,,CLR,0.21,VWS V14.01,2013-04-23 23:15:00,
2013-04-23 18:16:00,38.6,38.6,29.92,NW,325,8.0,12.0,100,0.00,,CLR,0.21,VWS V14.01,2013-04-23 23:16:00,
2013-04-23 18:17:00,38.6,38.6,29.92,NW,310,7.0,12.0,100,0.00,,CLR,0.21,VWS V14.01,2013-04-23 23:17:00,
2013-04-23 18:18:00,38.8,38.8,29.92,NW,307,6.0,12.0,100,0.00,,CLR,0.21,VWS V14.01,2013-04-23 23:18:00,
2013-04-23 18:19:00,38.8,38.8,29.92,NW,318,0.0,12.0,100,0.00,,CLR,0.21,VWS V14.01,2013-04-23 23:19:00,
2013-04-23 18:20:00,38.6,38.6,29.92,NNW,339,7.0,12.0,100,0.00,,CLR,0.21,VWS V14.01,2013-04-23 23:20:00,
2013-04-23 18:21:00,38.6,38.6,29.92,WNW,283,1.0,12.0,100,0.00,,CLR,0.21,VWS V14.01,2013-04-23 23:21:00,
2013-04-23 18:22:00,38.6,38.6,29.92,West,276,2.0,12.0,100,0.00,,CLR,0.21,VWS V14.01,2013-04-23 23:22:00,
2013-04-23 18:23:00,38.5,38.5,29.92,West,281,4.0,12.0,100,0.00,,CLR,0.21,VWS V14.01,2013-04-23 23:23:00,
2013-04-23 18:24:00,38.3,38.3,29.92,West,276,5.0,12.0,100,0.00,,CLR,0.21,VWS V14.01,2013-04-23 23:24:00,
2013-04-23 18:25:00,38.3,38.3,29.92,WNW,291,0.0,12.0,100,0.00,,CLR,0.21,VWS V14.01,2013-04-23 23:25:00,
2013-04-23 18:26:00,38.2,38.2,29.92,West,277,0.0,12.0,100,0.00,,CLR,0.21,VWS V14.01,2013-04-23 23:26:00,
2013-04-23 18:27:00,38.2,38.2,29.92,West,278,1.0,12.0,100,0.00,,CLR,0.21,VWS V14.01,2013-04-23 23:27:00,
2013-04-23 18:28:00,38.0,38.0,29.92,West,280,1.0,12.0,100,0.00,,CLR,0.21,VWS V14.01,2013-04-23 23:28:00,
2013-04-23 18:29:00,38.0,38.0,29.92,West,281,1.0,12.0,100,0.00,,CLR,0.21,VWS V14.01,2013-04-23 23:29:00,
2013-04-23 18:30:00,38.0,38.0,29.92,WNW,284,1.0,12.0,100,0.00,,CLR,0.21,VWS V14.01,2013-04-23 23:30:00,
2013-04-23 18:31:00,38.0,38.0,29.92,WNW,291,2.0,3.0,100,0.00,,CLR,0.21,VWS V14.01,2013-04-23 23:31:00,
2013-04-23 18:32:00,38.2,38.2,29.92,West,277,1.0,5.0,100,0.00,,CLR,0.21,VWS V14.01,2013-04-23 23:32:00,
2013-04-23 18:33:00,38.2,38.2,29.92,West,278,3.0,5.0,100,0.00,,CLR,0.21,VWS V14.01,2013-04-23 23:33:00,
2013-04-23 18:34:00,38.2,38.2,29.92,WNW,283,1.0,5.0,100,0.00,,CLR,0.21,VWS V14.01,2013-04-23 23:34:00,
2013-04-23 18:35:00,38.0,38.0,29.92,West,271,1.0,5.0,100,0.00,,CLR,0.21,VWS V14.01,2013-04-23 23:35:00,
2013-04-23 18:36:00,38.0,38.0,29.92,West,264,0.0,5.0,100,0.00,,CLR,0.21,VWS V14.01,2013-04-23 23:36:00,
2013-04-23 18:37:00,37.9,37.9,29.92,West,269,1.0,5.0,100,0.00,,CLR,0.21,VWS V14.01,2013-04-23 23:37:00,
2013-04-23 18:38:00,37.9,37.9,29.92,West,273,0.0,5.0,100,0.00,,CLR,0.21,VWS V14.01,2013-04-23 23:38:00,
2013-04-23 18:39:00,38.0,38.0,29.92,NNW,328,0.0,5.0,100,0.00,,CLR,0.21,VWS V14.01,2013-04-23 23:39:00,
2013-04-23 18:40:00,38.0,38.0,29.92,WNW,294,2.0,5.0,100,0.00,,CLR,0.21,VWS V14.01,2013-04-23 23:40:00,
2013-04-23 18:41:00,38.2,38.2,29.92,NW,315,3.0,7.0,100,0.00,,CLR,0.21,VWS V14.01,2013-04-23 23:41:00,
2013-04-23 18:42:00,38.2,38.2,29.92,NW,308,3.0,7.0,100,0.00,,CLR,0.21,VWS V14.01,2013-04-23 23:42:00,
2013-04-23 18:43:00,38.2,38.2,29.92,NW,324,2.0,10.0,100,0.00,,CLR,0.21,VWS V14.01,2013-04-23 23:43:00,
2013-04-23 18:44:00,38.3,38.3,29.92,WNW,300,7.0,10.0,100,0.00,,CLR,0.21,VWS V14.01,2013-04-23 23:44:00,
2013-04-23 18:45:00,38.3,38.3,29.92,NNW,329,6.0,10.0,100,0.00,,CLR,0.21,VWS V14.01,2013-04-23 23:45:00,
2013-04-23 18:46:00,38.5,38.5,29.92,NW,326,0.0,10.0,100,0.00,,CLR,0.21,VWS V14.01,2013-04-23 23:46:00,
2013-04-23 18:47:00,38.5,38.5,29.92,NNW,329,2.0,10.0,100,0.00,,CLR,0.21,VWS V14.01,2013-04-23 23:47:00,
2013-04-23 18:48:00,38.6,38.6,29.92,NW,321,0.0,10.0,100,0.00,,CLR,0.21,VWS V14.01,2013-04-23 23:48:00,
2013-04-23 18:49:00,38.5,38.5,29.92,WNW,302,0.0,10.0,100,0.00,,CLR,0.21,VWS V14.01,2013-04-23 23:49:00,
2013-04-23 18:50:00,38.5,38.5,29.92,WNW,300,0.0,10.0,100,0.00,,CLR,0.21,VWS V14.01,2013-04-23 23:50:00,
2013-04-23 18:51:00,38.3,38.3,29.92,WNW,300,2.0,10.0,100,0.00,,CLR,0.21,VWS V14.01,2013-04-23 23:51:00,
2013-04-23 18:52:00,38.2,38.2,29.92,WNW,294,2.0,10.0,100,0.00,,CLR,0.21,VWS V14.01,2013-04-23 23:52:00,
2013-04-23 18:53:00,38.0,38.0,29.92,WNW,301,1.0,10.0,100,0.00,,CLR,0.21,VWS V14.01,2013-04-23 23:53:00,
2013-04-23 18:54:00,38.0,38.0,29.92,NW,308,1.0,10.0,100,0.00,,CLR,0.21,VWS V14.01,2013-04-23 23:54:00,
2013-04-23 18:55:00,38.0,38.0,29.92,WNW,302,1.0,10.0,100,0.00,,CLR,0.21,VWS V14.01,2013-04-23 23:55:00,
2013-04-23 18:56:00,37.9,37.9,29.92,NW,304,0.0,10.0,100,0.00,,CLR,0.21,VWS V14.01,2013-04-23 23:56:00,
2013-04-23 18:57:00,37.9,37.9,29.92,WNW,300,2.0,10.0,100,0.00,,CLR,0.21,VWS V14.01,2013-04-23 23:57:00,
2013-04-23 18:58:00,37.9,37.9,29.92,West,270,2.0,10.0,100,0.00,,CLR,0.21,VWS V14.01,2013-04-23 23:58:00,
2013-04-23 18:59:00,37.8,37.8,29.92,NW,307,0.0,10.0,100,0.00,,CLR,0.21,VWS V14.01,2013-04-23 23:59:00,
2013-04-23 19:00:00,37.8,37.8,29.92,NW,305,1.0,10.0,100,0.00,,CLR,0.21,VWS V14.01,2013-04-24 00:00:00,
2013-04-23 19:01:00,37.8,37.8,29.92,NW,317,3.0,3.0,100,0.00,,CLR,0.21,VWS V14.01,2013-04-24 00:01:00,
2013-04-23 19:02:00,37.8,37.8,29.92,NW,311,2.0,6.0,100,0.00,,CLR,0.21,VWS V14.01,2013-04-24 00:02:00,
2013-04-23 19:03:00,37.8,37.8,29.92,NW,310,1.0,6.0,100,0.00,,CLR,0.21,VWS V14.01,2013-04-24 00:03:00,
2013-04-23 19:04:00,37.8,37.8,29.92,NW,317,1.0,6.0,100,0.00,,CLR,0.21,VWS V14.01,2013-04-24 00:04:00,
2013-04-23 19:05:00,37.8,37.8,29.92,NW,312,2.0,6.0,100,0.00,,CLR,0.21,VWS V14.01,2013-04-24 00:05:00,
2013-04-23 19:06:00,37.8,37.8,29.92,NW,307,0.0,6.0,100,0.00,,CLR,0.21,VWS V14.01,2013-04-24 00:06:00,
2013-04-23 19:07:00,37.8,37.8,29.92,WNW,286,1.0,6.0,100,0.00,,CLR,0.21,VWS V14.01,2013-04-24 00:07:00,
2013-04-23 19:08:00,37.8,37.8,29.92,WNW,287,1.0,6.0,100,0.00,,CLR,0.21,VWS V14.01,2013-04-24 00:08:00,
2013-04-23 19:09:00,37.6,37.6,29.92,WNW,288,1.0,6.0,100,0.00,,CLR,0.21,VWS V14.01,2013-04-24 00:09:00,
2013-04-23 19:10:00,37.6,37.6,29.92,WNW,288,0.0,6.0,100,0.00,,CLR,0.21,VWS V14.01,2013-04-24 00:10:00,
2013-04-23 19:11:00,37.5,37.5,29.92,WNW,288,0.0,6.0,100,0.00,,CLR,0.21,VWS V14.01,2013-04-24 00:11:00,
2013-04-23 19:12:00,37.3,37.3,29.92,WNW,288,2.0,6.0,100,0.00,,CLR,0.21,VWS V14.01,2013-04-24 00:12:00,
2013-04-23 19:13:00,37.3,37.3,29.92,WNW,288,1.0,6.0,100,0.00,,CLR,0.21,VWS V14.01,2013-04-24 00:13:00,
2013-04-23 19:14:00,37.2,37.2,29.92,WNW,288,0.0,6.0,100,0.00,,CLR,0.21,VWS V14.01,2013-04-24 00:14:00,
2013-04-23 19:15:00,37.2,37.2,29.92,WNW,294,3.0,6.0,100,0.00,,CLR,0.21,VWS V14.01,2013-04-24 00:15:00,
2013-04-23 19:16:00,37.2,37.2,29.92,WNW,294,0.0,6.0,100,0.00,,CLR,0.21,VWS V14.01,2013-04-24 00:16:00,
2013-04-23 19:17:00,37.2,37.2,29.92,West,276,1.0,6.0,100,0.00,,CLR,0.21,VWS V14.01,2013-04-24 00:17:00,
2013-04-23 19:18:00,37.0,37.0,29.92,West,278,1.0,6.0,100,0.00,,CLR,0.21,VWS V14.01,2013-04-24 00:18:00,
2013-04-23 19:19:00,37.0,37.0,29.92,WNW,295,1.0,6.0,100,0.00,,CLR,0.21,VWS V14.01,2013-04-24 00:19:00,
2013-04-23 19:20:00,37.0,37.0,29.92,NNW,328,1.0,6.0,100,0.00,,CLR,0.21,VWS V14.01,2013-04-24 00:20:00,
2013-04-23 19:21:00,37.0,37.0,29.92,NW,311,0.0,6.0,100,0.00,,CLR,0.21,VWS V14.01,2013-04-24 00:21:00,
2013-04-23 19:22:00,36.9,36.9,29.92,NW,311,0.0,6.0,100,0.00,,CLR,0.21,VWS V14.01,2013-04-24 00:22:00,
2013-04-23 19:23:00,36.9,36.9,29.92,NW,310,0.0,6.0,100,0.00,,CLR,0.21,VWS V14.01,2013-04-24 00:23:00,
2013-04-23 19:24:00,36.8,36.8,29.92,NW,304,1.0,6.0,100,0.00,,CLR,0.21,VWS V14.01,2013-04-24 00:24:00,
2013-04-23 19:25:00,36.6,36.6,29.92,WNW,301,0.0,6.0,100,0.00,,CLR,0.21,VWS V14.01,2013-04-24 00:25:00,
2013-04-23 19:26:00,36.6,36.6,29.92,WNW,301,0.0,6.0,100,0.00,,CLR,0.21,VWS V14.01,2013-04-24 00:26:00,
2013-04-23 19:27:00,36.5,36.5,29.92,WNW,301,1.0,6.0,100,0.00,,CLR,0.21,VWS V14.01,2013-04-24 00:27:00,
2013-04-23 19:28:00,36.3,36.3,29.92,WNW,301,0.0,6.0,100,0.00,,CLR,0.21,VWS V14.01,2013-04-24 00:28:00,
2013-04-23 19:29:00,36.3,36.3,29.92,NW,304,0.0,6.0,100,0.00,,CLR,0.21,VWS V14.01,2013-04-24 00:29:00,
2013-04-23 19:30:00,36.2,36.2,29.92,WNW,302,3.0,6.0,100,0.00,,CLR,0.21,VWS V14.01,2013-04-24 00:30:00,
2013-04-23 19:31:00,36.0,36.0,29.92,WNW,298,0.0,3.0,100,0.00,,CLR,0.21,VWS V14.01,2013-04-24 00:31:00,
2013-04-23 19:32:00,36.0,36.0,29.92,WNW,298,0.0,3.0,100,0.00,,CLR,0.21,VWS V14.01,2013-04-24 00:32:00,
2013-04-23 19:33:00,35.9,35.9,29.92,WNW,297,1.0,3.0,100,0.00,,CLR,0.21,VWS V14.01,2013-04-24 00:33:00,
2013-04-23 19:34:00,35.9,35.9,29.92,WNW,297,0.0,3.0,100,0.00,,CLR,0.21,VWS V14.01,2013-04-24 00:34:00,
2013-04-23 19:35:00,35.8,35.8,29.92,WNW,295,0.0,3.0,100,0.00,,CLR,0.21,VWS V14.01,2013-04-24 00:35:00,
2013-04-23 19:36:00,35.8,35.8,29.92,WNW,295,1.0,3.0,100,0.00,,CLR,0.21,VWS V14.01,2013-04-24 00:36:00,
2013-04-23 19:37:00,35.6,35.6,29.92,WNW,295,1.0,3.0,100,0.00,,CLR,0.21,VWS V14.01,2013-04-24 00:37:00,
2013-04-23 19:38:00,35.6,35.6,29.92,WNW,297,0.0,3.0,100,0.00,,CLR,0.21,VWS V14.01,2013-04-24 00:38:00,
2013-04-23 19:39:00,35.5,35.5,29.92,WNW,297,0.0,3.0,100,0.00,,CLR,0.21,VWS V14.01,2013-04-24 00:39:00,
2013-04-23 19:40:00,35.5,35.5,29.92,WNW,297,0.0,3.0,100,0.00,,CLR,0.21,VWS V14.01,2013-04-24 00:40:00,
2013-04-23 19:41:00,35.5,35.5,29.92,WNW,297,0.0,3.0,100,0.00,,CLR,0.21,VWS V14.01,2013-04-24 00:41:00,
2013-04-23 19:42:00,35.3,35.3,29.92,WNW,297,0.0,3.0,100,0.00,,CLR,0.21,VWS V14.01,2013-04-24 00:42:00,
2013-04-23 19:43:00,35.3,35.3,29.92,WNW,297,0.0,3.0,100,0.00,,CLR,0.21,VWS V14.01,2013-04-24 00:43:00,
2013-04-23 19:44:00,35.2,35.2,29.92,WNW,297,0.0,3.0,100,0.00,,CLR,0.21,VWS V14.01,2013-04-24 00:44:00,
2013-04-23 19:45:00,35.2,35.2,29.93,WNW,295,1.0,3.0,100,0.00,,CLR,0.21,VWS V14.01,2013-04-24 00:45:00,
2013-04-23 19:46:00,35.0,35.0,29.93,WNW,291,0.0,3.0,100,0.00,,CLR,0.21,VWS V14.01,2013-04-24 00:46:00,
2013-04-23 19:47:00,35.0,35.0,29.93,WNW,291,0.0,3.0,100,0.00,,CLR,0.21,VWS V14.01,2013-04-24 00:47:00,
2013-04-23 19:48:00,35.0,35.0,29.93,WNW,291,0.0,3.0,100,0.00,,CLR,0.21,VWS V14.01,2013-04-24 00:48:00,
2013-04-23 19:49:00,34.9,34.9,29.93,WNW,291,0.0,3.0,100,0.00,,CLR,0.21,VWS V14.01,2013-04-24 00:49:00,
2013-04-23 19:50:00,34.9,34.9,29.93,WNW,291,0.0,3.0,100,0.00,,CLR,0.21,VWS V14.01,2013-04-24 00:50:00,
2013-04-23 19:51:00,34.9,34.9,29.93,WNW,291,0.0,3.0,100,0.00,,CLR,0.21,VWS V14.01,2013-04-24 00:51:00,
2013-04-23 19:52:00,34.7,34.7,29.93,WNW,291,0.0,3.0,100,0.00,,CLR,0.21,VWS V14.01,2013-04-24 00:52:00,
2013-04-23 19:53:00,34.7,34.7,29.93,WNW,291,1.0,3.0,100,0.00,,CLR,0.21,VWS V14.01,2013-04-24 00:53:00,
2013-04-23 19:54:00,34.7,34.7,29.93,WNW,291,0.0,3.0,100,0.00,,CLR,0.21,VWS V14.01,2013-04-24 00:54:00,
2013-04-23 19:55:00,34.6,34.6,29.93,WNW,291,2.0,3.0,100,0.00,,CLR,0.21,VWS V14.01,2013-04-24 00:55:00,
2013-04-23 19:56:00,34.6,34.6,29.93,WNW,291,0.0,5.0,100,0.00,,CLR,0.21,VWS V14.01,2013-04-24 00:56:00,
2013-04-23 19:57:00,34.6,34.6,29.93,WNW,291,0.0,5.0,100,0.00,,CLR,0.21,VWS V14.01,2013-04-24 00:57:00,
2013-04-23 19:58:00,34.6,34.6,29.93,WNW,291,0.0,5.0,100,0.00,,CLR,0.21,VWS V14.01,2013-04-24 00:58:00,
2013-04-23 19:59:00,34.4,34.4,29.93,WNW,291,0.0,5.0,100,0.00,,CLR,0.21,VWS V14.01,2013-04-24 00:59:00,
2013-04-23 20:00:00,34.4,34.4,29.93,WNW,291,1.0,5.0,100,0.00,,CLR,0.21,VWS V14.01,2013-04-24 01:00:00,
2013-04-23 20:01:00,34.4,34.4,29.93,WNW,291,1.0,2.0,100,0.00,,CLR,0.21,VWS V14.01,2013-04-24 01:01:00,
2013-04-23 20:02:00,34.3,34.3,29.93,WNW,291,0.0,2.0,100,0.00,,CLR,0.21,VWS V14.01,2013-04-24 01:02:00,
2013-04-23 20:03:00,34.3,34.3,29.93,WNW,291,0.0,2.0,100,0.00,,CLR,0.21,VWS V14.01,2013-04-24 01:03:00,
2013-04-23 20:04:00,34.3,34.3,29.93,WNW,291,0.0,2.0,100,0.00,,CLR,0.21,VWS V14.01,2013-04-24 01:04:00,
2013-04-23 20:05:00,34.3,34.3,29.93,WNW,291,0.0,2.0,100,0.00,,CLR,0.21,VWS V14.01,2013-04-24 01:05:00,
2013-04-23 20:06:00,34.3,34.3,29.93,WNW,291,0.0,2.0,100,0.00,,CLR,0.21,VWS V14.01,2013-04-24 01:06:00,
2013-04-23 20:07:00,34.1,34.1,29.93,WNW,291,0.0,2.0,100,0.00,,CLR,0.21,VWS V14.01,2013-04-24 01:07:00,
2013-04-23 20:08:00,34.1,34.1,29.93,WNW,291,2.0,2.0,100,0.00,,CLR,0.21,VWS V14.01,2013-04-24 01:08:00,
2013-04-23 20:09:00,34.1,34.1,29.93,WNW,291,1.0,2.0,100,0.00,,CLR,0.21,VWS V14.01,2013-04-24 01:09:00,
2013-04-23 20:10:00,34.1,34.1,29.93,WNW,291,0.0,2.0,100,0.00,,CLR,0.21,VWS V14.01,2013-04-24 01:10:00,
2013-04-23 20:11:00,34.0,34.0,29.93,WNW,291,0.0,2.0,100,0.00,,CLR,0.21,VWS V14.01,2013-04-24 01:11:00,
2013-04-23 20:12:00,34.0,34.0,29.93,WNW,291,0.0,2.0,100,0.00,,CLR,0.21,VWS V14.01,2013-04-24 01:12:00,
2013-04-23 20:13:00,34.0,34.0,29.93,WNW,291,0.0,2.0,100,0.00,,CLR,0.21,VWS V14.01,2013-04-24 01:13:00,
2013-04-23 20:14:00,34.0,34.0,29.93,WNW,291,0.0,2.0,100,0.00,,CLR,0.21,VWS V14.01,2013-04-24 01:14:00,
2013-04-23 20:15:00,34.0,34.0,29.94,WNW,291,0.0,2.0,100,0.00,,CLR,0.21,VWS V14.01,2013-04-24 01:15:00,
2013-04-23 20:16:00,33.8,33.8,29.94,WNW,291,0.0,2.0,100,0.00,,CLR,0.21,VWS V14.01,2013-04-24 01:16:00,
2013-04-23 20:17:00,33.8,33.8,29.94,WNW,291,0.0,2.0,100,0.00,,CLR,0.21,VWS V14.01,2013-04-24 01:17:00,
2013-04-23 20:18:00,33.8,33.8,29.94,WNW,291,0.0,2.0,100,0.00,,CLR,0.21,VWS V14.01,2013-04-24 01:18:00,
2013-04-23 20:19:00,33.8,33.8,29.94,WNW,291,0.0,2.0,100,0.00,,CLR,0.21,VWS V14.01,2013-04-24 01:19:00,
2013-04-23 20:20:00,33.7,33.7,29.94,WNW,294,0.0,3.0,100,0.00,,CLR,0.21,VWS V14.01,2013-04-24 01:20:00,
2013-04-23 20:21:00,33.7,33.7,29.94,WNW,294,0.0,3.0,100,0.00,,CLR,0.21,VWS V14.01,2013-04-24 01:21:00,
2013-04-23 20:22:00,33.7,33.7,29.94,WNW,293,0.0,3.0,100,0.00,,CLR,0.21,VWS V14.01,2013-04-24 01:22:00,
2013-04-23 20:23:00,33.7,33.7,29.94,WNW,293,0.0,3.0,100,0.00,,CLR,0.21,VWS V14.01,2013-04-24 01:23:00,
2013-04-23 20:24:00,33.7,33.7,29.94,WNW,293,0.0,3.0,100,0.00,,CLR,0.21,VWS V14.01,2013-04-24 01:24:00,
2013-04-23 20:25:00,33.7,33.7,29.94,WNW,293,0.0,3.0,100,0.00,,CLR,0.21,VWS V14.01,2013-04-24 01:25:00,
2013-04-23 20:26:00,33.5,33.5,29.94,WNW,293,0.0,3.0,100,0.00,,CLR,0.21,VWS V14.01,2013-04-24 01:26:00,
2013-04-23 20:27:00,33.5,33.5,29.94,WNW,293,0.0,3.0,100,0.00,,CLR,0.21,VWS V14.01,2013-04-24 01:27:00,
2013-04-23 20:28:00,33.5,33.5,29.94,WNW,293,0.0,3.0,100,0.00,,CLR,0.21,VWS V14.01,2013-04-24 01:28:00,
2013-04-23 20:29:00,33.5,33.5,29.94,WNW,293,0.0,3.0,100,0.00,,CLR,0.21,VWS V14.01,2013-04-24 01:29:00,
2013-04-23 20:30:00,33.5,33.5,29.94,WNW,293,0.0,3.0,100,0.00,,CLR,0.21,VWS V14.01,2013-04-24 01:30:00,
2013-04-23 20:31:00,33.4,33.4,29.94,WNW,293,0.0,0.0,100,0.00,,CLR,0.21,VWS V14.01,2013-04-24 01:31:00,
2013-04-23 20:32:00,33.4,33.4,29.94,WNW,293,0.0,2.0,100,0.00,,CLR,0.21,VWS V14.01,2013-04-24 01:32:00,
2013-04-23 20:33:00,33.4,33.4,29.94,WNW,293,1.0,2.0,100,0.00,,CLR,0.21,VWS V14.01,2013-04-24 01:33:00,
2013-04-23 20:34:00,33.4,33.4,29.94,WNW,293,0.0,2.0,100,0.00,,CLR,0.21,VWS V14.01,2013-04-24 01:34:00,
2013-04-23 20:35:00,33.4,33.4,29.94,WNW,293,1.0,2.0,100,0.00,,CLR,0.21,VWS V14.01,2013-04-24 01:35:00,
2013-04-23 20:36:00,33.4,33.4,29.94,WNW,291,0.0,3.0,100,0.00,,CLR,0.21,VWS V14.01,2013-04-24 01:36:00,
2013-04-23 20:37:00,33.4,33.4,29.94,WNW,291,0.0,3.0,100,0.00,,CLR,0.21,VWS V14.01,2013-04-24 01:37:00,
2013-04-23 20:38:00,33.4,33.4,29.94,WNW,291,3.0,3.0,100,0.00,,CLR,0.21,VWS V14.01,2013-04-24 01:38:00,
2013-04-23 20:39:00,33.4,33.4,29.94,WNW,291,0.0,3.0,100,0.00,,CLR,0.21,VWS V14.01,2013-04-24 01:39:00,
2013-04-23 20:40:00,33.2,33.2,29.94,WNW,291,0.0,3.0,100,0.00,,CLR,0.21,VWS V14.01,2013-04-24 01:40:00,
2013-04-23 20:41:00,33.2,33.2,29.94,WNW,291,0.0,3.0,100,0.00,,CLR,0.21,VWS V14.01,2013-04-24 01:41:00,
2013-04-23 20:42:00,33.2,33.2,29.94,WNW,291,0.0,3.0,100,0.00,,CLR,0.21,VWS V14.01,2013-04-24 01:42:00,
2013-04-23 20:43:00,33.1,33.1,29.94,WNW,291,0.0,3.0,100,0.00,,CLR,0.21,VWS V14.01,2013-04-24 01:43:00,
2013-04-23 20:44:00,33.1,33.1,29.94,WNW,291,0.0,3.0,100,0.00,,CLR,0.21,VWS V14.01,2013-04-24 01:44:00,
2013-04-23 20:45:00,33.1,33.1,29.95,WNW,291,0.0,3.0,100,0.00,,CLR,0.21,VWS V14.01,2013-04-24 01:45:00,
2013-04-23 20:46:00,33.1,33.1,29.95,WNW,291,2.0,3.0,100,0.00,,CLR,0.21,VWS V14.01,2013-04-24 01:46:00,
2013-04-23 20:47:00,33.1,33.1,29.95,WNW,288,1.0,3.0,100,0.00,,CLR,0.21,VWS V14.01,2013-04-24 01:47:00,
2013-04-23 20:48:00,32.9,32.9,29.95,WNW,288,0.0,3.0,100,0.00,,CLR,0.21,VWS V14.01,2013-04-24 01:48:00,
2013-04-23 20:49:00,32.9,32.9,29.95,WNW,288,0.0,3.0,100,0.00,,CLR,0.21,VWS V14.01,2013-04-24 01:49:00,
2013-04-23 20:50:00,32.9,32.9,29.95,WNW,290,1.0,3.0,100,0.00,,CLR,0.21,VWS V14.01,2013-04-24 01:50:00,
2013-04-23 20:51:00,32.9,32.9,29.95,West,270,0.0,6.0,100,0.00,,CLR,0.21,VWS V14.01,2013-04-24 01:51:00,
2013-04-23 20:52:00,32.9,32.9,29.95,West,273,2.0,6.0,100,0.00,,CLR,0.21,VWS V14.01,2013-04-24 01:52:00,
2013-04-23 20:53:00,32.8,32.8,29.95,WNW,293,5.0,6.0,100,0.00,,CLR,0.21,VWS V14.01,2013-04-24 01:53:00,
2013-04-23 20:54:00,32.8,32.8,29.95,WNW,293,5.0,6.0,100,0.00,,CLR,0.21,VWS V14.01,2013-04-24 01:54:00,
2013-04-23 20:55:00,32.8,32.8,29.95,WNW,291,0.0,6.0,100,0.00,,CLR,0.21,VWS V14.01,2013-04-24 01:55:00,
2013-04-23 20:56:00,32.8,32.8,29.95,WNW,291,0.0,6.0,100,0.00,,CLR,0.21,VWS V14.01,2013-04-24 01:56:00,
2013-04-23 20:57:00,32.8,32.8,29.95,WNW,293,0.0,6.0,100,0.00,,CLR,0.21,VWS V14.01,2013-04-24 01:57:00,
2013-04-23 20:58:00,32.8,32.8,29.95,WNW,288,0.0,6.0,100,0.00,,CLR,0.21,VWS V14.01,2013-04-24 01:58:00,
2013-04-23 20:59:00,32.7,32.7,29.95,WNW,293,4.0,6.0,100,0.00,,CLR,0.21,VWS V14.01,2013-04-24 01:59:00,
2013-04-23 21:00:00,32.7,32.7,29.95,WNW,293,0.0,6.0,100,0.00,,CLR,0.21,VWS V14.01,2013-04-24 02:00:00,
2013-04-23 21:01:00,32.7,32.7,29.95,WNW,293,0.0,1.0,100,0.00,,CLR,0.21,VWS V14.01,2013-04-24 02:01:00,
2013-04-23 21:02:00,32.7,32.7,29.95,WNW,291,1.0,1.0,100,0.00,,CLR,0.21,VWS V14.01,2013-04-24 02:02:00,
2013-04-23 21:03:00,32.7,32.7,29.95,WNW,291,0.0,1.0,100,0.00,,CLR,0.21,VWS V14.01,2013-04-24 02:03:00,
2013-04-23 21:04:00,32.7,32.7,29.95,WNW,290,1.0,3.0,100,0.00,,CLR,0.21,VWS V14.01,2013-04-24 02:04:00,
2013-04-23 21:05:00,32.7,32.7,29.95,WNW,293,1.0,3.0,100,0.00,,CLR,0.21,VWS V14.01,2013-04-24 02:05:00,
2013-04-23 21:06:00,32.7,32.7,29.95,WNW,290,2.0,3.0,100,0.00,,CLR,0.21,VWS V14.01,2013-04-24 02:06:00,
2013-04-23 21:07:00,32.7,32.7,29.95,WNW,290,0.0,3.0,100,0.00,,CLR,0.21,VWS V14.01,2013-04-24 02:07:00,
2013-04-23 21:08:00,32.7,32.7,29.95,WNW,290,1.0,3.0,100,0.00,,CLR,0.21,VWS V14.01,2013-04-24 02:08:00,
2013-04-23 21:09:00,32.7,32.7,29.95,WNW,290,2.0,3.0,100,0.00,,CLR,0.21,VWS V14.01,2013-04-24 02:09:00,
2013-04-23 21:10:00,32.7,32.7,29.95,WNW,295,1.0,5.0,100,0.00,,CLR,0.21,VWS V14.01,2013-04-24 02:10:00,
2013-04-23 21:11:00,32.7,32.7,29.95,WNW,295,0.0,5.0,100,0.00,,CLR,0.21,VWS V14.01,2013-04-24 02:11:00,
2013-04-23 21:12:00,32.7,32.7,29.95,WNW,302,2.0,5.0,100,0.00,,CLR,0.21,VWS V14.01,2013-04-24 02:12:00,
2013-04-23 21:13:00,32.7,32.7,29.95,WNW,300,1.0,5.0,100,0.00,,CLR,0.21,VWS V14.01,2013-04-24 02:13:00,
2013-04-23 21:14:00,32.7,32.7,29.95,WNW,287,0.0,5.0,100,0.00,,CLR,0.21,VWS V14.01,2013-04-24 02:14:00,
2013-04-23 21:15:00,32.7,32.7,29.95,WNW,288,0.0,5.0,100,0.00,,CLR,0.21,VWS V14.01,2013-04-24 02:15:00,
2013-04-23 21:16:00,32.7,32.7,29.95,WNW,290,3.0,5.0,100,0.00,,CLR,0.21,VWS V14.01,2013-04-24 02:16:00,
2013-04-23 21:17:00,32.7,32.7,29.95,WNW,290,1.0,5.0,100,0.00,,CLR,0.21,VWS V14.01,2013-04-24 02:17:00,
2013-04-23 21:18:00,32.5,32.5,29.95,WNW,290,0.0,5.0,100,0.00,,CLR,0.21,VWS V14.01,2013-04-24 02:18:00,
2013-04-23 21:19:00,32.5,32.5,29.95,WNW,288,0.0,5.0,100,0.00,,CLR,0.21,VWS V14.01,2013-04-24 02:19:00,
2013-04-23 21:20:00,32.5,32.5,29.95,WNW,291,2.0,5.0,100,0.00,,CLR,0.21,VWS V14.01,2013-04-24 02:20:00,
2013-04-23 21:21:00,32.5,32.5,29.95,WNW,300,3.0,5.0,100,0.00,,CLR,0.21,VWS V14.01,2013-04-24 02:21:00,
2013-04-23 21:22:00,32.5,32.5,29.95,WNW,297,1.0,5.0,100,0.00,,CLR,0.21,VWS V14.01,2013-04-24 02:22:00,
2013-04-23 21:23:00,32.5,32.5,29.95,WNW,294,0.0,5.0,100,0.00,,CLR,0.21,VWS V14.01,2013-04-24 02:23:00,
2013-04-23 21:24:00,32.5,32.5,29.95,WNW,290,0.0,5.0,100,0.00,,CLR,0.21,VWS V14.01,2013-04-24 02:24:00,
2013-04-23 21:25:00,32.4,32.4,29.95,WNW,293,0.0,5.0,100,0.00,,CLR,0.21,VWS V14.01,2013-04-24 02:25:00,
2013-04-23 21:26:00,32.4,32.4,29.95,WNW,293,0.0,5.0,100,0.00,,CLR,0.21,VWS V14.01,2013-04-24 02:26:00,
2013-04-23 21:27:00,32.4,32.4,29.95,WNW,293,0.0,5.0,100,0.00,,CLR,0.21,VWS V14.01,2013-04-24 02:27:00,
2013-04-23 21:28:00,32.4,32.4,29.95,WNW,291,1.0,5.0,100,0.00,,CLR,0.21,VWS V14.01,2013-04-24 02:28:00,
2013-04-23 21:29:00,32.4,32.4,29.95,WNW,297,3.0,5.0,100,0.00,,CLR,0.21,VWS V14.01,2013-04-24 02:29:00,
2013-04-23 21:30:00,32.4,32.4,29.96,WNW,297,0.0,5.0,100,0.00,,CLR,0.21,VWS V14.01,2013-04-24 02:30:00,
2013-04-23 21:31:00,32.4,32.4,29.96,WNW,295,2.0,3.0,100,0.00,,CLR,0.21,VWS V14.01,2013-04-24 02:31:00,
2013-04-23 21:32:00,32.4,32.4,29.96,WNW,297,0.0,3.0,100,0.00,,CLR,0.21,VWS V14.01,2013-04-24 02:32:00,
2013-04-23 21:33:00,32.4,0.0,29.96,WNW,297,0.0,3.0,0,0.00,,CLR,0.21,VWS V14.01,2013-04-24 02:33:00,
2013-04-23 21:34:00,32.2,0.0,29.96,WNW,295,0.0,3.0,0,0.00,,CLR,0.21,VWS V14.01,2013-04-24 02:34:00,
2013-04-23 21:35:00,32.2,0.0,29.96,WNW,300,5.0,5.0,0,0.00,,CLR,0.21,VWS V14.01,2013-04-24 02:35:00,
2013-04-23 21:36:00,32.1,0.0,29.96,WNW,301,2.0,5.0,0,0.00,,CLR,0.21,VWS V14.01,2013-04-24 02:36:00,
2013-04-23 21:37:00,32.1,0.0,29.96,WNW,291,1.0,7.0,0,0.00,,CLR,0.21,VWS V14.01,2013-04-24 02:37:00,
2013-04-23 21:38:00,32.1,0.0,29.96,WNW,291,0.0,7.0,0,0.00,,CLR,0.21,VWS V14.01,2013-04-24 02:38:00,
2013-04-23 21:39:00,32.1,0.0,29.96,WNW,291,0.0,7.0,0,0.00,,CLR,0.21,VWS V14.01,2013-04-24 02:39:00,
2013-04-23 21:40:00,32.1,0.0,29.96,WNW,291,0.0,7.0,0,0.00,,CLR,0.21,VWS V14.01,2013-04-24 02:40:00,
2013-04-23 21:41:00,32.1,0.0,29.96,WNW,291,0.0,7.0,0,0.00,,CLR,0.21,VWS V14.01,2013-04-24 02:41:00,
2013-04-23 21:42:00,32.1,0.0,29.96,WNW,291,2.0,7.0,0,0.00,,CLR,0.21,VWS V14.01,2013-04-24 02:42:00,
2013-04-23 21:43:00,32.1,0.0,29.96,WNW,291,1.0,7.0,0,0.00,,CLR,0.21,VWS V14.01,2013-04-24 02:43:00,
2013-04-23 21:45:00,32.1,0.0,29.96,WNW,291,0.0,7.0,0,0.00,,CLR,0.21,VWS V14.01,2013-04-24 02:45:00,
2013-04-23 21:46:00,32.1,0.0,29.96,WNW,291,0.0,7.0,0,0.00,,CLR,0.21,VWS V14.01,2013-04-24 02:46:00,
2013-04-23 21:47:00,32.1,0.0,29.96,WNW,291,0.0,7.0,0,0.00,,CLR,0.21,VWS V14.01,2013-04-24 02:47:00,
2013-04-23 21:48:00,32.1,0.0,29.96,WNW,291,0.0,7.0,0,0.00,,CLR,0.21,VWS V14.01,2013-04-24 02:48:00,
2013-04-23 21:49:00,32.1,0.0,29.96,WNW,291,0.0,7.0,0,0.00,,CLR,0.21,VWS V14.01,2013-04-24 02:49:00,
2013-04-23 21:50:00,31.9,0.0,29.96,WNW,291,0.0,7.0,0,0.00,,CLR,0.21,VWS V14.01,2013-04-24 02:50:00,
2013-04-23 21:51:00,31.9,0.0,29.96,WNW,294,0.0,7.0,0,0.00,,CLR,0.21,VWS V14.01,2013-04-24 02:51:00,
2013-04-23 21:52:00,31.9,0.0,29.96,NW,307,3.0,7.0,0,0.00,,CLR,0.21,VWS V14.01,2013-04-24 02:52:00,
2013-04-23 21:53:00,31.9,0.0,29.96,NW,310,0.0,7.0,0,0.00,,CLR,0.21,VWS V14.01,2013-04-24 02:53:00,
2013-04-23 21:54:00,31.9,0.0,29.96,NW,308,0.0,7.0,0,0.00,,CLR,0.21,VWS V14.01,2013-04-24 02:54:00,
2013-04-23 21:55:00,31.8,0.0,29.96,NW,307,0.0,7.0,0,0.00,,CLR,0.21,VWS V14.01,2013-04-24 02:55:00,
2013-04-23 21:56:00,31.8,0.0,29.96,NW,305,0.0,7.0,0,0.00,,CLR,0.21,VWS V14.01,2013-04-24 02:56:00,
2013-04-23 21:57:00,31.8,0.0,29.96,NW,305,2.0,7.0,0,0.00,,CLR,0.21,VWS V14.01,2013-04-24 02:57:00,
2013-04-23 21:58:00,31.8,0.0,29.96,NW,305,0.0,7.0,0,0.00,,CLR,0.21,VWS V14.01,2013-04-24 02:58:00,
2013-04-23 21:59:00,31.8,0.0,29.95,NW,305,0.0,7.0,0,0.00,,CLR,0.21,VWS V14.01,2013-04-24 02:59:00,
2013-04-23 22:00:00,31.8,0.0,29.95,NW,305,0.0,7.0,0,0.00,,CLR,0.21,VWS V14.01,2013-04-24 03:00:00,
2013-04-23 22:01:00,31.8,0.0,29.95,WNW,300,1.0,5.0,0,0.00,,CLR,0.21,VWS V14.01,2013-04-24 03:01:00,
2013-04-23 22:02:00,31.6,0.0,29.95,WNW,300,2.0,5.0,0,0.00,,CLR,0.21,VWS V14.01,2013-04-24 03:02:00,
2013-04-23 22:03:00,31.6,0.0,29.95,WNW,300,0.0,5.0,0,0.00,,CLR,0.21,VWS V14.01,2013-04-24 03:03:00,
2013-04-23 22:04:00,31.6,0.0,29.95,WNW,301,2.0,5.0,0,0.00,,CLR,0.21,VWS V14.01,2013-04-24 03:04:00,
2013-04-23 22:05:00,31.5,0.0,29.95,WNW,300,0.0,5.0,0,0.00,,CLR,0.21,VWS V14.01,2013-04-24 03:05:00,
2013-04-23 22:06:00,31.5,0.0,29.95,WNW,300,2.0,5.0,0,0.00,,CLR,0.21,VWS V14.01,2013-04-24 03:06:00,
2013-04-23 22:07:00,31.5,0.0,29.95,WNW,300,0.0,5.0,0,0.00,,CLR,0.21,VWS V14.01,2013-04-24 03:07:00,
2013-04-23 22:08:00,31.5,0.0,29.95,WNW,301,1.0,5.0,0,0.00,,CLR,0.21,VWS V14.01,2013-04-24 03:08:00,
2013-04-23 22:09:00,31.5,0.0,29.95,WNW,301,1.0,5.0,0,0.00,,CLR,0.21,VWS V14.01,2013-04-24 03:09:00,
2013-04-23 22:10:00,31.5,0.0,29.95,WNW,301,0.0,5.0,0,0.00,,CLR,0.21,VWS V14.01,2013-04-24 03:10:00,
2013-04-23 22:11:00,31.5,0.0,29.95,WNW,301,0.0,5.0,0,0.00,,CLR,0.21,VWS V14.01,2013-04-24 03:11:00,
2013-04-23 22:12:00,31.5,0.0,29.95,WNW,300,0.0,5.0,0,0.00,,CLR,0.21,VWS V14.01,2013-04-24 03:12:00,
2013-04-23 22:13:00,31.3,0.0,29.95,WNW,301,1.0,5.0,0,0.00,,CLR,0.21,VWS V14.01,2013-04-24 03:13:00,
2013-04-23 22:14:00,31.3,0.0,29.95,WNW,301,0.0,5.0,0,0.00,,CLR,0.21,VWS V14.01,2013-04-24 03:14:00,
2013-04-23 22:15:00,31.3,0.0,29.95,WNW,301,3.0,5.0,0,0.00,,CLR,0.21,VWS V14.01,2013-04-24 03:15:00,
2013-04-23 22:16:00,31.3,0.0,29.95,NW,308,6.0,6.0,0,0.00,,CLR,0.21,VWS V14.01,2013-04-24 03:16:00,
2013-04-23 22:17:00,31.3,0.0,29.95,NW,314,2.0,6.0,0,0.00,,CLR,0.21,VWS V14.01,2013-04-24 03:17:00,
2013-04-23 22:18:00,31.3,0.0,29.95,NW,312,5.0,6.0,0,0.00,,CLR,0.21,VWS V14.01,2013-04-24 03:18:00,
2013-04-23 22:19:00,31.3,0.0,29.95,NW,312,0.0,6.0,0,0.00,,CLR,0.21,VWS V14.01,2013-04-24 03:19:00,
2013-04-23 22:20:00,31.3,0.0,29.95,NW,312,0.0,6.0,0,0.00,,CLR,0.21,VWS V14.01,2013-04-24 03:20:00,
2013-04-23 22:21:00,31.3,0.0,29.95,NW,312,1.0,6.0,0,0.00,,CLR,0.21,VWS V14.01,2013-04-24 03:21:00,
2013-04-23 22:22:00,31.3,0.0,29.95,NW,312,0.0,6.0,0,0.00,,CLR,0.21,VWS V14.01,2013-04-24 03:22:00,
2013-04-23 22:23:00,31.3,0.0,29.95,NW,312,0.0,6.0,0,0.00,,CLR,0.21,VWS V14.01,2013-04-24 03:23:00,
2013-04-23 22:24:00,31.2,0.0,29.95,NW,312,0.0,6.0,0,0.00,,CLR,0.21,VWS V14.01,2013-04-24 03:24:00,
2013-04-23 22:25:00,31.2,0.0,29.95,NW,312,1.0,6.0,0,0.00,,CLR,0.21,VWS V14.01,2013-04-24 03:25:00,
2013-04-23 22:26:00,31.2,0.0,29.95,NW,312,1.0,6.0,0,0.00,,CLR,0.21,VWS V14.01,2013-04-24 03:26:00,
2013-04-23 22:27:00,31.2,0.0,29.95,NW,311,0.0,6.0,0,0.00,,CLR,0.21,VWS V14.01,2013-04-24 03:27:00,
2013-04-23 22:28:00,31.2,0.0,29.95,NW,311,0.0,6.0,0,0.00,,CLR,0.21,VWS V14.01,2013-04-24 03:28:00,
2013-04-23 22:29:00,31.2,0.0,29.95,NW,312,2.0,6.0,0,0.00,,CLR,0.21,VWS V14.01,2013-04-24 03:29:00,
2013-04-23 22:30:00,31.0,0.0,29.94,NW,311,0.0,6.0,0,0.00,,CLR,0.21,VWS V14.01,2013-04-24 03:30:00,
2013-04-23 22:31:00,31.0,0.0,29.94,NW,312,0.0,1.0,0,0.00,,CLR,0.21,VWS V14.01,2013-04-24 03:31:00,
2013-04-23 22:32:00,31.0,0.0,29.94,NW,312,0.0,2.0,0,0.00,,CLR,0.21,VWS V14.01,2013-04-24 03:32:00,
2013-04-23 22:33:00,31.0,0.0,29.94,NW,314,0.0,2.0,0,0.00,,CLR,0.21,VWS V14.01,2013-04-24 03:33:00,
2013-04-23 22:34:00,31.0,0.0,29.94,NW,312,0.0,2.0,0,0.00,,CLR,0.21,VWS V14.01,2013-04-24 03:34:00,
2013-04-23 22:35:00,31.0,0.0,29.94,NW,314,3.0,3.0,0,0.00,,CLR,0.21,VWS V14.01,2013-04-24 03:35:00,
2013-04-23 22:36:00,31.0,0.0,29.94,NW,314,2.0,6.0,0,0.00,,CLR,0.21,VWS V14.01,2013-04-24 03:36:00,
2013-04-23 22:37:00,31.0,0.0,29.94,NW,314,0.0,6.0,0,0.00,,CLR,0.21,VWS V14.01,2013-04-24 03:37:00,
2013-04-23 22:38:00,31.0,0.0,29.94,NW,311,0.0,6.0,0,0.00,,CLR,0.21,VWS V14.01,2013-04-24 03:38:00,
2013-04-23 22:39:00,31.0,0.0,29.94,NW,311,2.0,6.0,0,0.00,,CLR,0.21,VWS V14.01,2013-04-24 03:39:00,
2013-04-23 22:40:00,31.0,0.0,29.94,NW,311,0.0,6.0,0,0.00,,CLR,0.21,VWS V14.01,2013-04-24 03:40:00,
2013-04-23 22:41:00,30.9,0.0,29.94,NW,311,0.0,6.0,0,0.00,,CLR,0.21,VWS V14.01,2013-04-24 03:41:00,
2013-04-23 22:42:00,30.9,0.0,29.94,NW,311,0.0,6.0,0,0.00,,CLR,0.21,VWS V14.01,2013-04-24 03:42:00,
2013-04-23 22:43:00,30.9,0.0,29.94,NW,311,0.0,6.0,0,0.00,,CLR,0.21,VWS V14.01,2013-04-24 03:43:00,
2013-04-23 22:44:00,30.9,0.0,29.94,NW,311,2.0,6.0,0,0.00,,CLR,0.21,VWS V14.01,2013-04-24 03:44:00,
2013-04-23 22:45:00,30.9,0.0,29.94,NW,311,2.0,7.0,0,0.00,,CLR,0.21,VWS V14.01,2013-04-24 03:45:00,
2013-04-23 22:46:00,30.9,0.0,29.94,NW,311,0.0,7.0,0,0.00,,CLR,0.21,VWS V14.01,2013-04-24 03:46:00,
2013-04-23 22:47:00,30.9,0.0,29.94,NW,311,0.0,7.0,0,0.00,,CLR,0.21,VWS V14.01,2013-04-24 03:47:00,
2013-04-23 22:48:00,30.9,0.0,29.94,NW,311,0.0,7.0,0,0.00,,CLR,0.21,VWS V14.01,2013-04-24 03:48:00,
2013-04-23 22:49:00,30.9,0.0,29.94,NW,311,0.0,7.0,0,0.00,,CLR,0.21,VWS V14.01,2013-04-24 03:49:00,
2013-04-23 22:50:00,30.9,0.0,29.94,NW,311,0.0,7.0,0,0.00,,CLR,0.21,VWS V14.01,2013-04-24 03:50:00,
2013-04-23 22:51:00,30.9,0.0,29.94,NW,311,0.0,7.0,0,0.00,,CLR,0.21,VWS V14.01,2013-04-24 03:51:00,
2013-04-23 22:52:00,30.9,0.0,29.94,NW,311,0.0,7.0,0,0.00,,CLR,0.21,VWS V14.01,2013-04-24 03:52:00,
2013-04-23 22:53:00,30.9,0.0,29.94,NW,311,0.0,7.0,0,0.00,,CLR,0.21,VWS V14.01,2013-04-24 03:53:00,
2013-04-23 22:54:00,30.9,0.0,29.94,NW,311,0.0,7.0,0,0.00,,CLR,0.21,VWS V14.01,2013-04-24 03:54:00,
2013-04-23 22:55:00,30.7,0.0,29.94,NW,311,0.0,7.0,0,0.00,,CLR,0.21,VWS V14.01,2013-04-24 03:55:00,
2013-04-23 22:56:00,30.7,0.0,29.94,NW,311,0.0,7.0,0,0.00,,CLR,0.21,VWS V14.01,2013-04-24 03:56:00,
2013-04-23 22:57:00,30.7,0.0,29.94,NW,311,0.0,7.0,0,0.00,,CLR,0.21,VWS V14.01,2013-04-24 03:57:00,
2013-04-23 22:58:00,30.7,0.0,29.94,NW,311,0.0,7.0,0,0.00,,CLR,0.21,VWS V14.01,2013-04-24 03:58:00,
2013-04-23 22:59:00,30.7,0.0,29.94,NW,311,0.0,7.0,0,0.00,,CLR,0.21,VWS V14.01,2013-04-24 03:59:00,
2013-04-23 23:00:00,30.7,0.0,29.94,NW,311,0.0,7.0,0,0.00,,CLR,0.21,VWS V14.01,2013-04-24 04:00:00,
2013-04-23 23:01:00,30.7,0.0,29.94,NW,311,0.0,2.0,0,0.00,,CLR,0.21,VWS V14.01,2013-04-24 04:01:00,
2013-04-23 23:02:00,30.7,0.0,29.94,NW,311,0.0,2.0,0,0.00,,CLR,0.21,VWS V14.01,2013-04-24 04:02:00,
2013-04-23 23:03:00,30.7,0.0,29.94,NW,311,0.0,2.0,0,0.00,,CLR,0.21,VWS V14.01,2013-04-24 04:03:00,
2013-04-23 23:04:00,30.7,0.0,29.94,NW,311,0.0,2.0,0,0.00,,CLR,0.21,VWS V14.01,2013-04-24 04:04:00,
2013-04-23 23:05:00,30.6,0.0,29.94,NW,311,0.0,2.0,0,0.00,,CLR,0.21,VWS V14.01,2013-04-24 04:05:00,
2013-04-23 23:06:00,30.6,0.0,29.94,NW,311,0.0,2.0,0,0.00,,CLR,0.21,VWS V14.01,2013-04-24 04:06:00,
2013-04-23 23:07:00,30.6,0.0,29.94,NW,310,0.0,2.0,0,0.00,,CLR,0.21,VWS V14.01,2013-04-24 04:07:00,
2013-04-23 23:08:00,30.6,0.0,29.94,NW,311,0.0,2.0,0,0.00,,CLR,0.21,VWS V14.01,2013-04-24 04:08:00,
2013-04-23 23:09:00,30.4,0.0,29.94,NW,311,0.0,2.0,0,0.00,,CLR,0.21,VWS V14.01,2013-04-24 04:09:00,
2013-04-23 23:10:00,30.4,0.0,29.94,NW,311,0.0,2.0,0,0.00,,CLR,0.21,VWS V14.01,2013-04-24 04:10:00,
2013-04-23 23:11:00,30.4,0.0,29.94,NW,311,0.0,2.0,0,0.00,,CLR,0.21,VWS V14.01,2013-04-24 04:11:00,
2013-04-23 23:12:00,30.4,0.0,29.94,NW,311,0.0,2.0,0,0.00,,CLR,0.21,VWS V14.01,2013-04-24 04:12:00,
2013-04-23 23:13:00,30.4,0.0,29.94,NW,311,0.0,2.0,0,0.00,,CLR,0.21,VWS V14.01,2013-04-24 04:13:00,
2013-04-23 23:14:00,30.4,0.0,29.94,NW,311,0.0,2.0,0,0.00,,CLR,0.21,VWS V14.01,2013-04-24 04:14:00,
2013-04-23 23:15:00,30.4,0.0,29.94,NW,311,0.0,2.0,0,0.00,,CLR,0.21,VWS V14.01,2013-04-24 04:15:00,
2013-04-23 23:16:00,30.4,0.0,29.94,NW,310,0.0,2.0,0,0.00,,CLR,0.21,VWS V14.01,2013-04-24 04:16:00,
2013-04-23 23:17:00,30.4,0.0,29.94,NW,310,0.0,2.0,0,0.00,,CLR,0.21,VWS V14.01,2013-04-24 04:17:00,
2013-04-23 23:18:00,30.4,0.0,29.94,NW,311,0.0,2.0,0,0.00,,CLR,0.21,VWS V14.01,2013-04-24 04:18:00,
2013-04-23 23:19:00,30.4,0.0,29.94,NW,310,0.0,2.0,0,0.00,,CLR,0.21,VWS V14.01,2013-04-24 04:19:00,
2013-04-23 23:20:00,30.4,0.0,29.94,NW,310,0.0,2.0,0,0.00,,CLR,0.21,VWS V14.01,2013-04-24 04:20:00,
2013-04-23 23:21:00,30.4,0.0,29.94,NW,311,0.0,2.0,0,0.00,,CLR,0.21,VWS V14.01,2013-04-24 04:21:00,
2013-04-23 23:22:00,30.4,0.0,29.94,NW,310,0.0,2.0,0,0.00,,CLR,0.21,VWS V14.01,2013-04-24 04:22:00,
2013-04-23 23:23:00,30.4,0.0,29.94,NW,311,0.0,2.0,0,0.00,,CLR,0.21,VWS V14.01,2013-04-24 04:23:00,
2013-04-23 23:24:00,30.4,0.0,29.94,NW,311,0.0,2.0,0,0.00,,CLR,0.21,VWS V14.01,2013-04-24 04:24:00,
2013-04-23 23:25:00,30.4,0.0,29.94,NW,311,0.0,2.0,0,0.00,,CLR,0.21,VWS V14.01,2013-04-24 04:25:00,
2013-04-23 23:26:00,30.4,0.0,29.94,NW,311,0.0,2.0,0,0.00,,CLR,0.21,VWS V14.01,2013-04-24 04:26:00,
2013-04-23 23:27:00,30.4,0.0,29.94,NW,310,0.0,2.0,0,0.00,,CLR,0.21,VWS V14.01,2013-04-24 04:27:00,
2013-04-23 23:28:00,30.3,0.0,29.94,NW,311,0.0,2.0,0,0.00,,CLR,0.21,VWS V14.01,2013-04-24 04:28:00,
2013-04-23 23:29:00,30.3,0.0,29.94,NW,310,0.0,2.0,0,0.00,,CLR,0.21,VWS V14.01,2013-04-24 04:29:00,
2013-04-23 23:30:00,30.3,0.0,29.94,NW,311,0.0,2.0,0,0.00,,CLR,0.21,VWS V14.01,2013-04-24 04:30:00,
2013-04-23 23:31:00,30.3,0.0,29.94,NW,311,0.0,0.0,0,0.00,,CLR,0.21,VWS V14.01,2013-04-24 04:31:00,
2013-04-23 23:32:00,30.3,0.0,29.94,NW,310,0.0,0.0,0,0.00,,CLR,0.21,VWS V14.01,2013-04-24 04:32:00,
2013-04-23 23:33:00,30.1,0.0,29.94,NW,310,0.0,0.0,0,0.00,,CLR,0.21,VWS V14.01,2013-04-24 04:33:00,
2013-04-23 23:34:00,30.1,0.0,29.94,NW,311,0.0,0.0,0,0.00,,CLR,0.21,VWS V14.01,2013-04-24 04:34:00,
2013-04-23 23:35:00,30.1,0.0,29.94,NW,310,0.0,0.0,0,0.00,,CLR,0.21,VWS V14.01,2013-04-24 04:35:00,
2013-04-23 23:36:00,30.1,0.0,29.94,NW,311,0.0,0.0,0,0.00,,CLR,0.21,VWS V14.01,2013-04-24 04:36:00,
2013-04-23 23:37:00,30.0,0.0,29.94,NW,310,0.0,0.0,0,0.00,,CLR,0.21,VWS V14.01,2013-04-24 04:37:00,
2013-04-23 23:38:00,30.0,0.0,29.94,NW,310,0.0,0.0,0,0.00,,CLR,0.21,VWS V14.01,2013-04-24 04:38:00,
2013-04-23 23:39:00,30.0,0.0,29.94,NW,310,0.0,0.0,0,0.00,,CLR,0.21,VWS V14.01,2013-04-24 04:39:00,
2013-04-23 23:40:00,29.8,0.0,29.94,NW,310,0.0,0.0,0,0.00,,CLR,0.21,VWS V14.01,2013-04-24 04:40:00,
2013-04-23 23:41:00,29.8,0.0,29.94,NW,311,0.0,0.0,0,0.00,,CLR,0.21,VWS V14.01,2013-04-24 04:41:00,
2013-04-23 23:42:00,29.8,0.0,29.94,NW,310,0.0,0.0,0,0.00,,CLR,0.21,VWS V14.01,2013-04-24 04:42:00,
2013-04-23 23:43:00,29.8,0.0,29.94,NW,311,0.0,0.0,0,0.00,,CLR,0.21,VWS V14.01,2013-04-24 04:43:00,
2013-04-23 23:44:00,29.8,0.0,29.94,NW,310,0.0,0.0,0,0.00,,CLR,0.21,VWS V14.01,2013-04-24 04:44:00,
2013-04-23 23:45:00,29.8,0.0,29.93,NW,310,0.0,0.0,0,0.00,,CLR,0.21,VWS V14.01,2013-04-24 04:45:00,
2013-04-23 23:46:00,29.8,0.0,29.93,NW,310,0.0,0.0,0,0.00,,CLR,0.21,VWS V14.01,2013-04-24 04:46:00,
2013-04-23 23:47:00,29.8,0.0,29.93,NW,310,0.0,0.0,0,0.00,,CLR,0.21,VWS V14.01,2013-04-24 04:47:00,
2013-04-23 23:48:00,29.8,0.0,29.93,NW,310,0.0,0.0,0,0.00,,CLR,0.21,VWS V14.01,2013-04-24 04:48:00,
2013-04-23 23:49:00,29.7,0.0,29.93,NW,310,0.0,0.0,0,0.00,,CLR,0.21,VWS V14.01,2013-04-24 04:49:00,
2013-04-23 23:50:00,29.7,0.0,29.93,NW,310,0.0,0.0,0,0.00,,CLR,0.21,VWS V14.01,2013-04-24 04:50:00,
2013-04-23 23:51:00,29.7,0.0,29.93,NW,310,0.0,0.0,0,0.00,,CLR,0.21,VWS V14.01,2013-04-24 04:51:00,
2013-04-23 23:52:00,29.7,0.0,29.93,NW,310,0.0,0.0,0,0.00,,CLR,0.21,VWS V14.01,2013-04-24 04:52:00,
2013-04-23 23:53:00,29.7,0.0,29.93,NW,311,0.0,0.0,0,0.00,,CLR,0.21,VWS V14.01,2013-04-24 04:53:00,
2013-04-23 23:54:00,29.7,0.0,29.93,NW,310,0.0,0.0,0,0.00,,CLR,0.21,VWS V14.01,2013-04-24 04:54:00,
2013-04-23 23:55:00,29.5,0.0,29.93,NW,310,0.0,0.0,0,0.00,,CLR,0.21,VWS V14.01,2013-04-24 04:55:00,
2013-04-23 23:56:00,29.5,0.0,29.93,NW,310,0.0,0.0,0,0.00,,CLR,0.21,VWS V14.01,2013-04-24 04:56:00,
2013-04-23 23:57:00,29.5,0.0,29.93,NW,310,0.0,0.0,0,0.00,,CLR,0.21,VWS V14.01,2013-04-24 04:57:00,
2013-04-23 23:58:00,29.5,0.0,29.93,NW,310,0.0,0.0,0,0.00,,CLR,0.21,VWS V14.01,2013-04-24 04:58:00,
2013-04-23 23:59:00,29.5,0.0,29.93,NW,311,0.0,0.0,0,0.00,,CLR,0.21,VWS V14.01,2013-04-24 04:59:00,